GFSMA_prec_cloud_003.txt.gz
Cloud_Cover
0 0 4 2 0 0 0 0 0 0 0 0 0 0 0 0 0 0 0 0 4 5 5 25 100 100 100 100 100 100 100 100 100 100 100 100 100 100 100 100 100 100 100
5 5 5 5 5 5 3 0 0 0 0 0 0 0 0 0 0 0 0 0 0 1 5 5 6 42 88 80 100 100 100 100 100 100 100 100 100 100 100 100 100 100 100
64 5 5 5 2 0 5 5 3 0 0 0 0 0 0 0 0 0 0 0 0 0 0 5 5 5 93 81 75 100 100 100 100 100 100 100 100 100 100 100 100 100 100
5 1 4 5 5 5 5 5 5 5 0 0 5 100 77 0 5 5 1 0 4 4 0 0 3 5 4 66 97 84 100 100 100 100 100 100 100 100 100 100 100 100 100
5 5 5 16 70 5 5 5 2 5 5 5 5 5 5 5 5 5 8 5 2 0 3 3 0 1 5 5 3 56 69 100 100 100 100 100 100 100 100 100 100 100 100
41 53 67 6 5 3 2 5 3 1 1 4 5 13 76 70 41 14 34 48 32 11 38 5 4 0 0 5 4 5 4 26 49 100 100 100 100 100 100 100 100 100 100
25 100 5 4 1 0 0 5 5 5 5 5 5 5 27 66 5 6 25 19 6 48 25 5 80 49 5 3 4 5 3 2 5 72 100 100 100 62 100 100 100 100 100
54 5 6 0 0 3 5 5 3 2 4 5 5 4 4 34 10 38 42 52 61 68 64 5 47 99 68 97 16 35 30 4 0 4 6 100 100 100 79 100 100 100 100
82 62 6 6 5 5 5 5 3 0 4 11 5 5 4 7 10 64 96 81 92 100 66 94 78 71 43 88 99 11 50 26 5 2 1 5 100 100 100 99 97 99 100
5 19 15 9 5 2 5 5 5 10 34 22 17 12 5 5 23 19 16 98 99 100 100 100 100 100 89 35 100 29 100 97 99 5 0 0 6 100 100 100 100 99 89
6 6 8 38 100 100 98 91 19 5 0 0 5 99 100 100 100 100 89 6 5 5 24 11 54 100 100 100 47 100 84 94 65 100 14 5 4 3 95 100 100 100 100
100 100 100 100 87 100 100 100 98 5 5 5 10 100 92 100 54 100 20 4 5 3 0 0 2 62 99 100 91 78 100 100 98 97 100 56 5 25 0 13 49 92 100
52 71 43 38 70 47 22 10 4 5 5 5 23 2 5 10 100 100 100 93 40 4 3 0 0 0 15 92 100 88 100 100 100 100 100 98 100 71 5 2 1 4 23
93 72 6 0 0 0 4 8 15 6 97 82 44 68 84 15 100 96 67 17 88 54 5 5 0 3 66 34 4 25 95 100 100 100 100 100 100 100 5 67 30 1 5
83 7 29 2 2 38 9 6 10 1 8 5 5 5 5 65 95 100 100 100 100 82 6 97 24 8 70 40 89 18 84 100 100 100 100 100 100 100 52 100 83 1 25
61 98 18 0 0 0 0 0 0 0 0 3 5 5 5 49 67 100 100 100 100 99 51 98 100 100 100 100 100 99 79 100 100 100 100 100 100 100 100 37 3 1 0
1 0 0 0 0 3 0 0 0 0 0 1 5 5 36 84 57 59 100 100 100 100 96 22 100 100 100 100 100 100 100 100 94 100 100 100 100 100 80 26 9 5 5
0 0 0 0 0 0 0 0 3 5 3 5 5 5 5 1 3 19 66 100 100 100 100 41 99 100 100 100 100 100 100 100 100 100 100 100 98 97 49 24 100 78 5
100 83 0 0 0 0 4 3 5 2 5 5 9 5 5 0 0 1 76 54 99 56 100 85 54 100 100 100 100 100 100 100 100 100 100 100 100 100 57 5 89 100 62
92 1 1 0 0 2 5 5 0 0 4 5 4 0 0 0 0 0 0 48 86 91 66 5 5 92 100 100 100 98 9 100 100 100 100 100 100 84 13 6 51 100 100
100 100 86 0 5 5 4 5 31 8 5 5 5 4 0 1 5 3 12 34 54 84 6 4 85 12 100 100 100 100 86 53 100 100 100 79 34 57 99 82 22 88 100
33 100 35 5 0 5 5 84 36 74 88 78 4 5 5 5 69 100 92 100 100 78 12 5 5 5 89 82 86 96 64 98 99 84 92 35 9 67 68 48 7 8 44
91 100 7 16 5 5 52 75 76 30 5 5 13 5 5 92 76 85 100 100 100 100 99 89 53 7 63 72 8 36 65 54 6 74 58 48 18 64 86 75 51 46 5
100 1 100 6 5 17 24 4 5 7 77 96 94 55 22 80 100 100 82 26 19 14 53 26 5 6 26 99 5 68 81 94 82 100 98 35 100 66 100 6 5 5 12
6 100 64 5 0 0 2 5 34 53 58 71 72 89 91 30 100 100 100 83 84 7 25 6 30 81 97 92 99 100 97 75 73 66 15 5 15 10 6 5 5 5 9
100 50 5 0 4 5 5 10 71 100 82 100 100 100 100 100 100 100 100 98 80 26 5 5 11 73 74 65 96 95 76 98 100 70 50 96 5 5 6 5 5 6 5

GFSMA_prec_cloud_006.txt.gz
Cloud_Cover
24 39 29 75 0 3 0 0 1 0 0 0 0 0 0 4 2 0 0 0 0 0 0 5 8 68 100 100 100 100 100 100 100 100 100 100 100 100 100 100 100 100 100
57 100 27 2 0 5 5 4 5 0 5 3 4 4 1 0 6 9 5 1 0 0 0 1 4 7 25 95 100 100 100 100 100 100 100 100 100 100 100 100 100 100 100
67 9 0 0 3 0 0 0 0 3 5 5 5 6 5 5 5 3 1 0 0 0 0 0 0 3 5 46 36 100 100 100 100 100 100 100 100 100 100 100 100 100 100
9 5 3 2 3 5 3 0 0 0 3 5 5 5 13 5 5 5 3 0 0 1 0 0 0 6 5 3 13 100 100 100 100 100 100 100 100 100 100 100 100 100 100
28 72 66 60 30 59 23 2 2 5 5 7 5 9 45 42 35 22 29 56 50 6 80 5 2 1 2 4 5 2 40 91 100 100 100 100 100 100 100 34 100 100 100
82 94 65 91 21 5 2 0 0 3 5 5 21 51 92 100 100 100 99 74 98 82 32 26 6 5 1 5 5 5 5 5 13 92 100 100 100 100 100 100 100 100 100
36 95 26 5 5 2 0 0 2 0 3 5 5 5 62 99 100 100 80 90 79 51 100 100 100 44 5 2 2 5 5 5 5 5 22 100 100 100 100 100 100 100 100
28 16 21 4 2 2 0 0 0 0 0 1 0 0 2 7 10 43 22 90 80 98 100 93 51 88 100 64 30 17 77 66 62 5 5 14 100 100 100 100 100 100 100
8 5 5 0 1 3 5 5 5 8 5 3 2 4 0 0 3 9 5 5 9 41 14 17 94 95 66 70 97 71 30 36 97 64 5 5 10 90 100 100 100 100 100
5 5 5 5 11 15 5 24 51 63 92 60 60 49 11 9 2 60 5 5 5 4 0 4 5 28 98 100 87 65 5 5 88 98 94 5 2 5 18 100 100 100 100
16 5 80 100 100 100 5 5 5 5 29 81 61 3 4 5 5 5 10 4 3 0 0 0 0 0 32 99 100 100 96 82 21 81 54 100 69 6 5 5 86 100 100
47 68 76 90 95 39 63 41 2 2 5 21 15 5 14 98 46 30 12 7 5 5 0 0 0 0 0 1 57 100 100 57 100 100 100 95 91 72 5 2 4 64 100
100 47 100 99 61 7 0 0 5 5 66 99 99 99 99 87 100 48 82 55 20 2 4 4 0 0 1 29 5 26 84 100 25 100 100 100 62 86 29 5 0 1 21
100 37 11 5 78 12 0 3 0 0 0 1 0 2 9 8 67 99 100 100 100 100 31 5 4 5 0 12 98 71 94 100 88 100 100 100 100 71 95 5 5 3 0
5 5 7 6 1 0 0 0 0 0 0 0 0 0 5 5 9 80 100 100 100 100 88 39 6 27 100 59 16 92 92 92 100 100 100 100 100 100 100 100 69 79 12
53 96 96 97 31 20 71 12 99 0 0 0 0 0 0 1 30 77 100 97 100 100 100 44 88 89 100 99 93 5 6 73 62 100 100 100 100 100 100 100 100 83 72
100 100 100 100 100 100 60 83 9 0 0 0 4 4 5 5 4 0 7 31 50 94 100 95 99 90 100 100 100 48 80 100 92 100 100 100 100 100 100 100 100 100 100
79 100 100 100 100 100 12 0 0 5 47 65 16 7 5 5 0 0 0 0 0 6 48 43 82 100 100 100 100 100 23 28 100 100 100 100 100 100 100 100 100 100 100
99 100 95 100 100 100 100 62 1 5 5 5 5 5 5 4 0 0 0 0 0 0 92 90 13 98 100 100 100 100 40 39 100 100 100 100 100 100 100 100 99 100 100
93 100 100 100 100 100 28 2 5 5 5 14 80 87 31 3 0 2 38 17 41 4 4 99 78 100 88 77 100 100 92 94 100 100 100 100 97 100 100 93 100 97 4
60 98 100 100 100 6 5 5 5 6 94 38 2 0 4 4 5 48 100 100 100 99 78 22 10 68 5 3 80 100 100 87 99 44 99 100 77 99 100 61 98 100 63
97 100 100 98 2 3 5 5 5 5 0 5 5 5 5 5 5 5 14 89 100 100 100 100 100 100 45 5 5 79 97 100 78 5 92 100 100 100 92 82 63 100 100
92 100 99 26 5 5 3 5 5 5 17 5 5 5 5 35 100 22 5 43 100 90 100 100 23 5 5 5 2 8 5 5 50 44 77 47 99 92 79 80 86 85 11
90 95 10 5 5 3 4 5 28 85 90 68 5 5 6 99 100 91 43 86 93 100 78 5 5 5 5 5 5 5 5 13 88 100 71 48 92 44 100 100 46 7 33
71 89 100 54 5 5 5 18 97 95 43 5 48 53 94 100 100 100 100 85 82 99 92 34 61 98 57 89 74 81 99 100 100 100 38 5 25 5 6 73 100 93 70
81 100 100 5 15 6 5 9 92 27 10 31 38 99 100 100 100 100 100 100 95 97 94 23 5 5 10 58 5 22 82 100 100 100 100 7 100 49 5 70 96 39 24

GFSMA_prec_cloud_009.txt.gz
Cloud_Cover
15 80 86 3 82 35 62 41 8 5 1 1 0 0 0 2 2 1 5 2 0 1 5 2 0 0 0 4 24 96 100 100 96 100 100 100 100 100 100 100 100 100 100
100 96 100 100 57 89 86 16 0 4 5 0 0 0 0 0 0 0 4 5 5 5 5 5 5 1 0 0 6 100 100 100 100 100 100 100 100 100 100 100 100 100 100
86 100 95 100 40 9 0 2 2 5 4 5 5 5 5 3 0 0 0 0 5 5 2 0 5 5 4 0 0 11 100 100 100 100 100 100 100 100 100 100 100 100 100
5 5 5 5 5 5 5 5 0 0 0 0 1 3 4 4 0 0 4 1 4 1 5 5 1 5 5 3 4 1 5 46 100 100 100 100 100 100 100 100 100 100 100
24 5 48 53 6 5 5 5 2 0 0 0 0 1 3 5 5 2 5 5 4 1 0 0 3 4 3 5 5 4 3 5 17 100 100 100 100 100 100 100 100 100 100
35 74 88 47 14 5 3 2 1 0 0 0 4 5 5 5 5 5 5 5 5 28 27 6 7 5 0 1 5 5 3 5 5 7 99 100 100 100 100 100 100 100 100
100 65 5 5 5 2 0 0 0 0 0 0 0 5 5 5 5 7 41 74 85 96 89 9 68 51 17 4 0 5 2 5 5 5 18 100 100 100 100 100 100 100 100
5 5 5 4 1 0 0 4 5 5 5 4 5 1 4 5 5 5 5 8 31 30 9 16 12 52 98 100 43 3 0 0 0 3 5 24 97 100 100 100 100 100 100
2 0 0 0 2 3 5 5 5 5 5 5 5 4 0 2 3 2 0 0 0 0 0 0 5 5 5 10 76 84 27 4 0 1 4 4 8 58 100 100 100 100 100
0 0 5 5 5 6 76 44 30 5 5 17 4 0 0 0 14 7 5 4 0 0 0 0 0 0 0 0 2 5 7 54 5 1 4 5 5 5 6 59 100 100 100
5 5 6 13 99 100 72 35 16 0 0 4 4 6 6 43 67 98 73 14 6 1 0 0 0 0 0 0 0 0 4 5 5 5 5 6 5 4 5 5 5 100 100
41 70 100 68 69 83 86 96 95 0 0 1 2 3 9 82 100 100 100 100 100 31 37 2 1 0 1 0 3 0 14 70 5 38 94 100 59 14 5 5 5 5 77
88 72 14 4 5 6 5 4 5 4 4 6 0 3 4 6 19 24 87 88 100 32 6 22 39 14 5 5 11 54 5 33 34 84 92 100 76 96 26 99 15 5 5
4 5 14 92 84 100 99 100 100 82 10 75 45 0 0 0 4 8 28 100 19 6 5 5 24 95 81 71 5 5 5 22 91 100 89 100 100 37 97 100 100 75 5
2 48 98 99 100 100 100 100 97 100 58 1 75 66 0 0 0 0 1 28 89 69 7 5 6 83 100 100 88 5 5 100 97 35 79 100 100 97 53 100 100 100 100
50 41 60 86 100 77 96 100 90 91 69 88 84 81 5 0 4 2 5 5 4 16 27 5 5 83 100 100 100 66 5 5 93 76 100 100 100 100 100 90 100 100 100
100 100 62 81 96 100 100 100 99 100 100 78 76 5 5 5 5 5 5 5 3 5 5 5 0 32 91 100 100 100 35 5 5 5 5 46 100 100 100 100 100 100 100
99 98 85 76 92 100 72 17 46 100 100 86 5 55 70 5 5 5 5 0 0 0 5 5 1 9 20 100 100 100 100 16 5 66 4 39 100 100 100 98 100 81 100
1 43 12 5 5 89 74 97 99 94 6 5 98 91 57 3 0 0 0 5 17 19 48 16 1 80 14 90 100 100 100 100 16 5 8 96 39 100 100 100 100 100 100
22 10 13 5 29 100 100 5 4 5 5 53 76 5 2 3 5 1 5 11 74 100 100 84 5 24 93 74 3 61 100 98 90 52 99 90 100 100 100 99 75 100 100
92 5 5 68 98 58 8 4 5 5 5 5 4 5 5 5 5 5 26 41 30 95 100 100 100 98 87 49 5 3 21 100 38 85 73 100 100 100 100 100 100 100 100
79 92 95 100 98 5 5 5 5 5 5 40 88 35 19 5 5 39 89 100 100 100 100 100 99 100 100 95 70 5 5 5 31 5 69 100 100 100 100 100 100 100 100
97 93 56 5 62 8 40 5 6 72 98 86 98 100 36 7 19 51 88 100 100 100 100 100 100 100 100 100 49 5 5 5 5 12 5 82 98 100 99 100 100 75 100
5 5 5 24 45 98 5 5 26 68 28 15 5 5 60 79 96 99 100 100 100 100 99 100 100 100 72 5 10 5 5 5 31 5 5 90 36 38 45 96 54 5 20
5 5 93 100 100 7 5 8 5 50 16 5 5 5 95 100 99 100 100 100 100 100 99 57 85 95 99 100 98 92 95 100 100 99 26 9 50 7 8 5 27 100 100
72 81 100 99 96 64 5 5 13 59 32 18 5 6 59 100 100 100 100 100 100 100 98 100 78 6 5 5 23 99 68 98 100 95 22 98 8 5 5 24 7 5 45

GFSMA_prec_cloud_012.txt.gz
Cloud_Cover
80 61 5 5 5 0 0 0 2 0 0 0 0 0 0 0 0 0 0 0 0 0 0 0 0 0 0 0 0 0 0 21 13 43 85 100 100 100 100 100 100 100 100
5 5 5 5 5 2 5 5 5 0 0 0 0 0 0 0 0 0 0 0 0 0 0 0 0 0 5 2 0 0 0 0 9 72 79 97 100 100 100 100 100 100 100
5 14 5 5 5 5 6 5 5 4 1 0 0 0 0 1 3 0 0 0 0 0 2 5 0 0 0 4 3 0 0 0 0 30 56 41 100 100 100 100 100 100 100
6 5 5 7 88 71 38 5 5 5 1 0 0 0 0 1 5 5 4 2 0 0 0 0 0 0 0 0 0 5 1 0 0 0 14 5 77 100 100 100 100 100 100
48 6 77 9 78 75 7 5 5 1 0 0 3 5 5 5 5 5 5 5 5 5 2 0 1 4 3 1 0 0 5 5 0 4 2 65 33 71 100 100 100 100 100
91 84 97 98 9 4 5 4 0 0 0 0 1 0 0 0 0 1 5 6 26 62 64 49 5 1 3 5 5 2 0 5 5 2 4 5 100 99 29 100 100 100 100
65 5 33 4 1 0 0 0 0 0 0 0 0 0 0 0 0 1 5 1 3 5 5 5 44 96 19 5 1 4 0 0 1 5 12 0 14 100 92 58 100 100 100
42 5 4 0 0 0 1 5 5 5 5 5 1 0 0 3 3 1 0 0 0 0 1 2 2 4 17 87 43 78 10 1 4 0 5 4 0 14 100 99 100 98 100
0 0 0 1 1 5 5 5 17 5 5 26 18 25 5 1 1 1 0 0 0 0 0 0 0 0 4 5 4 8 17 70 5 5 2 4 4 0 14 100 100 100 100
3 5 5 5 5 5 6 36 6 12 35 14 15 3 4 62 97 14 5 5 4 1 0 0 0 0 0 0 4 5 4 3 10 41 5 4 0 4 0 6 91 100 100
5 5 39 86 17 5 6 59 21 3 5 2 1 1 4 5 33 66 84 10 25 5 5 2 0 5 1 0 0 0 1 5 5 0 4 5 9 4 2 51 0 20 100
5 5 5 9 60 21 5 21 87 50 5 3 4 6 8 13 7 68 20 34 11 5 10 5 1 4 5 5 0 0 0 0 0 3 0 6 5 33 57 6 0 4 5
3 16 30 7 5 5 68 73 96 100 100 86 75 77 57 55 10 37 29 11 5 2 4 3 5 5 5 76 5 1 1 5 0 0 11 91 46 17 99 100 99 15 5
5 5 2 1 4 66 44 75 100 97 86 58 66 82 77 81 3 1 12 29 7 5 4 4 0 21 5 5 35 5 5 5 5 5 5 46 100 100 60 100 100 100 23
4 1 5 5 99 73 94 98 100 100 92 18 99 100 58 0 7 5 4 8 39 9 2 0 5 0 1 5 64 65 35 94 6 78 99 100 100 100 79 100 100 52 5
0 0 10 82 85 62 91 99 84 5 79 52 1 3 5 5 5 16 85 38 68 99 82 2 0 0 0 0 6 97 95 99 83 5 83 100 78 88 42 100 98 94 95
0 19 87 29 50 97 5 5 19 29 3 0 4 1 5 5 5 6 43 4 2 3 5 1 0 0 0 0 5 24 100 100 48 5 5 9 60 96 75 84 100 96 97
5 2 18 95 100 83 80 5 35 38 5 0 0 3 5 8 69 6 0 1 0 1 13 92 8 5 1 2 3 19 76 100 91 8 96 47 5 4 5 82 100 100 100
2 37 99 100 58 100 91 100 37 2 0 0 5 5 5 5 5 5 5 5 5 13 80 100 86 6 5 87 98 38 83 100 100 75 96 70 5 71 68 45 100 99 100
11 100 100 90 40 89 100 100 49 0 0 4 5 5 4 43 85 81 27 49 5 36 23 78 97 61 78 6 100 56 10 33 100 100 34 63 49 14 30 55 100 100 100
22 100 51 87 92 98 100 50 5 1 5 5 5 5 35 51 98 100 94 100 100 98 97 100 100 92 100 100 100 99 68 2 44 100 21 12 40 14 67 100 100 100 100
30 5 82 92 100 100 6 5 5 5 5 5 72 90 5 5 5 100 70 100 100 100 97 100 93 100 100 100 100 100 100 48 2 37 77 5 42 54 94 97 100 100 100
5 5 27 5 10 5 11 57 10 5 5 10 5 5 6 40 26 33 7 60 100 100 100 100 99 100 100 100 100 94 100 48 5 0 4 5 5 76 100 100 100 100 100
76 84 51 72 61 72 50 37 7 5 5 5 5 5 14 29 47 99 93 100 100 100 100 100 100 89 94 100 99 100 100 49 18 5 5 59 5 52 98 72 100 100 100
48 100 100 99 100 80 65 8 5 5 5 5 5 5 78 90 63 100 100 100 100 100 100 100 100 100 100 100 100 100 96 100 99 61 62 71 35 6 6 53 19 100 100
98 75 24 5 12 96 28 5 5 5 55 7 8 14 6 100 100 100 100 99 100 100 100 100 100 83 90 71 63 9 52 100 100 92 25 77 5 5 5 8 6 5 94

GFSMA_prec_cloud_015.txt.gz
Cloud_Cover
5 5 7 51 7 5 5 6 5 4 0 0 0 0 0 0 0 0 0 0 0 0 0 0 0 0 0 0 0 0 0 0 0 0 2 44 100 100 100 100 100 100 100
69 92 9 6 5 5 8 14 5 5 5 0 0 0 0 0 0 0 0 0 0 0 0 0 0 0 0 0 0 4 3 0 0 0 0 3 100 100 100 100 100 100 100
84 95 86 96 100 53 9 10 38 5 0 0 0 0 0 0 0 0 0 0 0 0 0 0 0 0 0 0 3 0 1 5 5 1 0 0 5 100 100 100 100 100 100
100 100 100 100 72 42 49 25 5 3 3 3 4 5 4 0 0 0 1 5 5 5 1 2 0 0 0 0 0 0 0 0 7 5 4 0 0 27 100 100 100 100 100
100 100 28 9 55 25 5 5 5 5 2 0 0 0 0 0 0 0 2 5 5 5 5 3 5 5 3 0 0 0 0 0 0 25 10 1 0 1 46 100 100 100 100
14 2 5 5 5 5 4 0 0 0 0 4 1 0 0 0 0 0 0 1 5 5 5 5 5 23 5 5 4 0 0 0 0 0 8 10 0 0 2 91 100 100 100
5 5 5 5 0 0 0 0 0 5 5 5 5 5 2 0 3 3 5 5 3 3 4 0 0 5 0 5 5 2 0 0 0 3 0 5 42 0 0 5 98 100 100
2 0 0 0 2 5 5 5 5 0 4 4 2 0 0 5 5 4 0 0 0 0 0 1 0 0 0 0 2 4 5 0 0 0 0 0 4 7 0 0 5 16 100
0 0 3 4 5 5 5 2 0 0 0 0 0 0 0 0 5 0 0 1 4 5 5 5 5 5 5 3 1 0 0 1 4 0 0 0 0 2 4 0 0 6 99
0 0 0 3 2 0 0 0 3 0 0 1 1 5 3 9 5 0 4 5 5 5 5 5 5 5 5 5 4 0 0 0 0 0 0 0 2 3 1 4 0 2 5
0 5 5 5 3 0 0 0 1 8 5 73 98 98 99 100 100 68 3 4 5 5 21 5 5 5 5 5 5 5 0 0 0 0 5 5 2 4 5 5 2 0 5
0 0 0 0 0 2 4 43 87 93 70 56 35 17 76 86 86 96 100 25 2 0 4 5 4 0 0 4 4 3 5 1 0 0 0 4 5 22 18 34 31 2 0
0 0 0 3 5 5 35 100 94 53 58 23 5 5 16 4 2 5 5 5 5 1 1 5 5 1 0 0 4 1 5 28 3 0 0 0 56 28 43 97 99 49 7
5 5 5 13 5 5 62 100 100 10 3 4 3 5 5 1 0 2 5 5 5 5 5 5 5 5 5 2 0 1 5 100 89 4 2 49 7 91 100 100 30 100 13
6 35 9 5 4 90 26 7 6 0 0 0 0 0 0 0 0 0 5 5 90 80 7 5 5 5 5 5 3 1 5 6 100 57 6 5 14 100 64 77 100 18 100
32 5 5 5 85 88 5 5 4 5 4 8 4 0 1 0 2 5 5 35 99 96 90 4 5 2 4 1 5 0 4 5 100 100 96 16 64 100 100 72 100 100 100
5 5 11 90 97 87 34 97 83 88 99 10 4 3 0 5 5 6 42 66 61 72 100 1 5 9 66 90 7 2 5 58 100 100 99 96 7 64 100 100 7 39 99
3 1 10 87 81 5 100 17 80 100 96 40 7 0 2 5 5 68 96 97 99 100 100 98 88 100 100 100 100 5 20 83 100 100 100 100 98 58 97 100 100 59 73
5 5 5 5 68 100 93 100 100 100 100 67 4 5 5 5 41 99 100 100 100 100 100 100 100 100 100 100 100 78 52 93 100 66 100 100 100 100 83 87 26 100 84
39 5 5 65 96 90 100 100 100 97 9 5 5 5 13 89 89 92 100 100 100 100 100 100 100 100 100 100 100 100 100 89 60 100 92 97 51 98 61 100 28 100 100
13 5 6 40 100 97 100 100 74 7 39 75 5 5 5 36 63 84 100 100 100 100 100 100 100 100 100 100 100 100 100 100 91 43 16 50 5 51 62 6 90 100 100
2 5 5 6 8 45 5 22 92 98 49 5 2 5 5 5 59 100 100 100 95 100 100 100 100 100 100 100 100 100 100 100 87 66 5 5 4 15 72 32 11 100 100
0 5 11 75 78 89 96 98 16 5 5 4 5 5 7 86 100 100 100 87 100 96 100 100 100 100 100 100 100 100 100 100 100 100 96 25 5 4 72 100 100 96 100
2 5 6 6 15 89 97 32 5 1 0 5 5 19 99 100 100 99 100 100 100 100 100 100 100 100 100 100 100 100 100 100 100 99 100 93 46 38 64 100 100 100 100
5 5 5 5 5 8 5 5 4 5 5 5 28 94 100 100 100 100 100 100 100 100 100 88 88 100 100 99 92 100 100 100 100 96 100 100 96 97 89 5 90 100 100
3 5 5 5 5 5 5 5 2 5 25 29 43 24 100 100 100 100 100 100 100 100 100 100 100 100 100 100 86 97 100 100 100 100 100 100 100 99 97 9 6 92 100

GFSMA_prec_cloud_018.txt.gz
Cloud_Cover
100 93 96 99 22 5 66 25 6 18 18 5 1 0 0 0 0 0 0 0 0 0 4 1 0 0 0 0 0 0 0 0 0 0 0 0 0 4 100 100 100 100 100
100 100 100 66 84 71 7 72 97 25 5 5 0 0 0 0 0 0 0 0 0 0 0 1 0 0 0 0 0 0 0 0 0 0 0 0 0 2 100 100 100 100 100
100 100 100 100 100 100 100 100 95 62 4 0 0 0 0 0 0 0 0 0 0 0 0 0 0 0 0 0 0 0 0 0 0 0 0 0 0 0 51 100 100 100 100
100 100 100 100 100 100 100 55 15 0 0 0 5 5 5 5 2 0 1 0 0 0 0 1 0 0 0 0 0 0 0 0 0 0 0 22 0 0 0 95 100 100 100
100 100 100 100 57 4 0 1 2 5 2 2 2 1 4 4 0 4 26 3 1 1 0 2 4 0 0 0 0 0 1 0 0 0 0 0 9 9 0 5 100 100 100
72 100 62 6 3 2 0 0 0 0 0 3 0 0 1 0 1 2 5 5 3 5 1 0 0 2 4 5 5 4 0 0 0 0 0 0 0 3 45 0 33 100 100
0 0 0 0 0 0 0 0 5 5 1 2 0 0 0 4 42 78 77 33 44 58 93 100 73 28 5 5 2 1 5 0 0 0 0 0 0 0 0 18 1 96 100
0 0 0 0 0 0 0 0 1 2 4 6 22 5 4 3 0 55 46 5 5 5 5 6 5 5 5 5 5 5 5 5 1 0 0 0 0 0 0 1 6 4 84
0 0 0 0 0 0 1 0 0 5 5 5 43 5 4 2 3 3 18 13 5 5 15 6 5 9 5 5 5 5 5 4 0 0 0 0 0 0 0 0 0 0 5
5 5 0 0 0 0 0 1 5 1 5 5 5 5 5 5 34 26 20 91 37 4 33 28 29 36 4 1 1 13 20 2 0 0 0 0 0 0 0 0 0 0 0
5 5 3 0 4 1 5 0 0 5 6 46 63 82 5 5 7 37 6 5 5 7 5 5 5 5 23 5 0 1 4 0 0 0 0 0 0 2 3 0 1 2 0
23 5 2 0 0 0 16 5 5 5 50 100 86 5 5 5 5 24 35 9 11 2 6 5 40 62 6 5 0 0 1 0 0 3 2 0 0 1 6 2 20 2 0
12 0 1 4 13 5 14 46 100 59 29 56 61 15 12 66 71 100 100 95 88 5 5 8 5 39 52 5 5 16 2 0 2 0 5 0 0 0 1 24 40 26 73
5 11 68 32 5 31 91 100 94 99 100 90 85 83 98 100 100 100 100 100 86 34 5 5 5 5 5 36 30 1 5 4 5 5 5 5 44 32 8 36 57 100 100
67 23 5 5 24 99 89 97 98 94 97 95 100 100 100 100 100 100 100 100 100 98 11 6 8 24 40 87 86 60 6 5 5 5 5 29 26 5 13 100 100 99 64
5 5 5 6 89 35 69 70 87 31 100 100 100 100 100 100 100 100 100 100 100 100 56 29 41 100 100 100 100 100 99 8 5 5 5 52 94 59 5 83 92 98 100
5 14 5 5 51 14 29 82 62 50 98 100 100 100 100 100 100 100 100 100 100 100 100 2 100 100 100 100 100 100 100 100 88 96 5 5 100 98 81 5 5 11 46
12 5 5 5 61 99 78 81 100 84 100 100 100 100 100 100 100 100 100 100 100 100 100 86 100 100 100 100 100 100 100 100 100 100 30 99 96 100 100 100 26 20 16
97 91 5 85 84 61 30 59 78 100 100 99 95 14 69 65 80 72 84 99 100 100 100 100 100 100 100 100 98 100 100 99 100 100 20 73 95 100 100 100 100 44 68
48 5 61 93 84 25 80 92 97 100 99 94 66 58 76 18 5 5 17 93 100 100 100 100 100 100 100 100 100 100 100 100 100 100 100 41 77 100 97 100 100 80 86
6 14 26 93 59 69 66 81 96 96 71 97 71 26 4 4 5 39 73 99 100 100 100 100 100 100 100 100 100 100 100 100 100 100 100 100 100 93 100 100 100 100 99
65 22 46 88 53 69 5 55 95 84 94 60 5 0 1 5 70 6 92 84 60 100 100 100 100 100 100 100 100 100 100 100 100 100 100 100 100 100 100 100 67 100 100
5 24 87 22 30 70 5 17 83 90 5 5 1 0 5 5 98 100 100 100 100 100 100 99 100 100 100 100 100 100 100 100 100 100 100 100 100 100 100 100 69 100 100
42 100 100 53 64 43 5 5 5 5 5 5 5 5 5 36 100 84 100 100 100 100 100 100 100 100 100 100 100 100 100 100 100 100 100 100 100 100 100 100 45 100 100
94 100 56 70 89 87 5 5 5 5 5 5 5 5 5 24 97 84 100 100 100 100 100 100 99 100 16 9 32 87 100 100 100 100 100 100 100 100 100 100 96 100 100
71 5 5 5 8 71 5 5 5 5 85 54 11 5 5 44 45 98 98 100 100 100 100 100 100 100 100 100 65 80 100 100 100 100 100 100 100 100 100 100 97 100 100

GFSMA_prec_cloud_024.txt.gz
Cloud_Cover
100 100 98 45 82 100 90 100 85 100 70 90 100 100 100 100 100 95 3 0 0 0 1 0 0 0 0 0 0 0 0 0 0 0 12 5 0 0 0 0 77 100 100
100 100 100 100 100 100 100 100 100 95 52 57 99 100 100 100 66 1 5 4 5 5 3 5 0 0 0 0 0 0 0 0 0 0 0 1 25 1 0 0 1 99 100
100 100 100 99 100 100 99 100 93 100 100 100 62 4 0 0 0 0 0 0 1 5 92 12 5 3 0 0 0 0 0 0 0 0 0 0 9 54 20 0 0 45 100
100 100 100 100 72 97 100 96 42 5 4 2 0 0 0 0 0 0 0 3 0 5 90 100 96 5 5 0 0 0 0 1 3 0 0 0 0 0 11 21 0 1 100
70 10 5 4 6 5 4 0 0 0 0 0 0 0 0 0 0 0 0 0 0 20 68 100 97 58 33 3 2 0 1 4 5 35 55 2 0 0 0 0 0 0 12
5 4 1 2 1 0 0 0 0 5 5 3 0 0 0 0 0 0 1 12 6 77 100 98 83 74 91 20 7 5 7 2 6 90 100 88 4 0 0 0 0 0 0
0 0 0 1 4 0 3 0 5 0 0 0 0 0 0 0 0 0 0 1 1 76 100 100 100 100 17 5 94 20 5 85 100 32 5 5 5 5 1 0 0 0 0
4 1 3 4 1 5 5 5 4 0 0 0 0 0 0 3 0 0 1 0 5 45 95 100 53 37 98 17 5 0 36 5 4 3 5 5 5 5 5 4 2 0 0
5 5 4 5 5 5 5 4 0 0 1 2 0 2 1 4 5 4 2 0 1 4 2 4 52 89 56 3 0 0 4 4 0 0 0 4 5 5 5 5 5 0 0
79 41 23 5 1 5 5 1 0 2 0 0 3 1 5 5 5 5 4 5 5 5 4 2 3 5 5 0 0 3 4 4 4 0 0 0 5 5 5 5 5 4 1
86 5 36 5 0 0 0 0 0 5 5 6 5 5 5 5 5 5 5 5 0 0 0 60 100 12 11 5 2 5 5 5 5 2 0 0 0 5 5 5 23 25 2
65 24 4 1 4 4 5 0 5 5 44 18 3 39 28 13 5 51 3 3 0 1 0 4 27 12 75 5 78 33 5 5 5 3 0 0 0 3 25 14 100 100 100
70 12 25 24 5 5 5 5 5 5 10 3 52 99 12 97 33 5 5 2 17 0 0 0 0 4 44 5 24 4 2 0 0 0 0 0 5 15 100 46 99 100 100
99 98 5 5 48 59 27 33 51 8 5 5 52 100 99 38 70 97 7 5 3 0 0 0 0 1 3 0 5 5 5 4 0 0 0 0 2 5 6 32 52 60 23
97 5 5 12 88 50 18 44 10 10 40 33 79 94 100 93 89 100 52 86 95 12 4 1 1 3 5 5 5 4 0 0 1 0 0 0 0 5 5 5 5 5 5
43 12 27 100 100 100 100 100 100 13 33 10 64 100 100 100 100 85 35 12 6 100 8 1 3 32 98 32 1 0 0 0 0 0 0 1 5 5 5 3 4 2 5
5 83 100 100 100 100 100 64 17 5 14 17 79 58 100 100 92 5 5 6 47 19 16 5 5 4 0 0 0 0 0 0 0 17 77 5 5 5 4 5 14 5 5
71 76 90 99 100 63 55 5 52 100 100 98 98 83 86 95 6 45 91 5 5 0 0 0 0 0 5 0 4 5 4 5 5 5 0 34 6 100 86 89 35 5 86
9 89 99 33 5 5 98 11 5 100 33 75 28 5 10 83 97 5 5 0 0 0 3 5 5 2 5 5 5 5 5 6 5 5 10 100 88 97 99 99 30 5 5
44 48 5 23 66 79 92 86 64 89 97 8 21 15 30 79 5 5 0 0 0 2 5 5 5 5 5 5 19 28 5 5 5 5 4 5 86 100 68 88 81 2 1
68 89 86 100 100 83 100 100 93 100 93 15 63 14 57 49 5 0 0 1 5 5 5 5 5 5 5 5 5 34 31 23 5 5 5 19 90 93 100 97 70 86 5
100 83 95 99 95 94 100 100 100 100 95 4 5 36 5 2 5 5 5 5 5 5 5 46 43 97 14 75 74 50 5 5 28 5 10 4 93 92 100 100 100 99 83
100 100 94 100 100 100 100 100 100 100 6 5 5 5 5 5 5 5 4 4 0 2 64 100 100 98 99 88 72 24 5 5 5 6 30 0 78 100 100 100 99 38 3
100 100 100 100 100 100 100 100 100 100 94 5 5 5 5 62 5 0 0 0 3 3 5 76 86 5 5 5 5 5 5 5 5 5 6 5 88 90 100 83 76 41 26
100 100 100 100 100 100 100 100 42 22 5 8 5 5 52 84 5 3 0 4 5 2 4 5 5 5 5 55 71 98 44 96 70 5 36 55 27 6 5 11 54 100 100
100 100 100 100 100 91 100 100 13 5 54 5 5 5 5 5 5 5 4 5 5 5 2 3 20 22 5 7 100 100 100 100 98 76 100 58 46 100 15 47 46 89 92

GFSMA_prec_cloud_030.txt.gz
Cloud_Cover
100 100 100 100 100 100 100 100 100 100 100 100 100 100 60 2 4 1 0 0 0 0 0 0 0 0 0 0 0 0 0 0 0 0 0 1 2 14 60 64 16 67 100
100 100 100 100 100 100 100 100 100 100 100 100 100 34 3 0 0 0 0 0 0 0 0 0 0 0 0 0 0 0 0 0 0 0 0 13 9 1 0 0 0 0 21
100 100 100 100 100 100 100 100 100 100 78 36 5 0 0 0 0 0 0 0 0 0 0 0 0 1 15 5 2 2 2 2 0 0 0 0 0 0 0 0 0 0 0
100 100 100 100 100 100 100 100 97 53 16 8 5 3 0 0 0 0 0 0 0 0 0 56 100 41 45 13 6 6 11 5 5 1 1 0 0 0 0 0 0 0 0
100 100 100 100 100 100 100 50 18 6 5 3 0 0 0 0 0 0 0 0 0 0 0 5 4 8 45 30 80 86 70 18 5 5 1 5 0 0 0 0 3 1 0
100 100 100 99 39 40 5 16 40 5 5 0 0 0 0 0 0 0 0 0 0 0 4 3 5 11 95 99 97 98 70 8 20 50 5 4 5 4 5 5 4 5 5
100 92 9 5 23 43 26 83 73 62 0 2 0 0 0 0 0 0 0 2 2 0 0 0 5 55 78 100 100 100 100 100 100 99 5 5 2 3 0 3 5 3 5
5 22 40 77 24 17 69 14 78 15 78 46 2 0 0 0 0 4 5 5 5 4 1 0 0 4 48 89 83 82 90 92 93 57 8 4 0 3 0 2 2 5 5
44 6 73 44 25 5 49 67 20 6 12 0 0 1 1 0 0 5 7 5 4 2 0 0 0 0 0 0 0 0 4 4 5 1 0 0 0 4 7 9 14 2 3
5 5 5 5 5 5 4 4 5 46 5 0 1 4 5 5 5 5 4 5 5 0 0 0 2 0 0 0 0 0 4 5 5 5 3 0 0 5 59 8 9 4 5
8 76 96 85 5 5 5 7 92 74 0 0 5 5 17 56 92 12 5 5 5 2 0 0 4 3 0 0 0 0 0 0 0 0 5 5 5 5 5 50 22 0 55
54 94 83 62 95 38 67 49 6 5 0 3 5 14 25 36 68 5 5 5 5 7 88 68 5 5 0 0 0 0 0 0 0 0 0 2 4 5 5 5 84 92 95
96 100 100 100 99 84 78 5 5 5 5 8 35 5 8 11 94 91 77 43 93 72 100 100 41 18 3 0 0 0 0 0 0 0 0 0 0 3 5 5 64 100 100
100 100 100 100 67 80 76 43 5 5 87 18 5 76 94 100 92 71 39 97 84 70 76 100 100 15 3 0 0 0 3 5 1 0 0 0 0 4 5 22 93 100 100
100 100 100 100 70 92 46 65 7 56 61 5 19 90 100 100 100 100 100 100 100 64 5 23 5 5 2 0 2 1 1 0 0 0 0 1 5 15 64 100 100 100 100
100 100 100 56 68 100 57 40 87 88 77 28 100 100 83 69 77 100 100 100 100 100 90 14 5 5 2 0 0 0 0 0 0 0 4 4 5 5 5 22 33 11 7
99 100 100 79 99 70 81 80 100 76 100 82 99 99 90 100 100 100 100 100 100 100 100 66 7 0 0 0 0 0 0 0 0 0 0 5 5 0 4 5 5 5 5
97 62 67 18 76 87 99 53 38 67 90 100 100 94 92 78 87 100 100 100 100 91 18 4 0 0 0 0 0 0 0 0 0 2 5 5 0 5 5 9 86 14 5
15 19 31 5 41 99 100 98 78 41 73 94 98 100 100 100 100 100 99 70 5 5 2 5 4 0 0 0 0 1 4 1 1 2 0 0 0 4 5 5 5 8 42
5 50 97 80 99 100 100 97 94 98 100 92 100 100 100 98 65 9 5 5 4 0 0 5 5 5 5 1 5 5 33 5 3 0 0 0 4 5 5 5 0 5 99
87 79 79 100 96 85 74 95 89 71 100 100 100 100 72 4 5 5 2 1 4 5 5 5 5 5 5 5 5 5 35 5 0 0 0 4 3 0 0 0 0 10 100
100 100 100 96 93 84 87 98 100 100 100 100 98 5 5 0 0 0 4 5 5 4 5 5 5 5 5 5 5 5 6 48 85 5 100 5 5 5 2 2 0 17 100
100 100 91 100 99 100 100 100 100 100 93 5 5 5 5 0 0 1 5 5 5 0 0 5 5 8 35 3 53 68 91 95 90 12 84 83 5 5 0 0 0 33 100
100 100 100 100 100 100 100 100 100 83 70 85 82 21 5 0 0 5 5 5 3 3 0 0 4 1 4 5 94 99 100 96 72 48 75 92 29 5 3 6 87 66 100
100 100 100 100 100 100 59 62 80 46 40 5 62 7 0 1 5 5 5 5 5 5 0 0 2 4 5 5 88 100 80 94 83 34 66 100 23 72 5 5 98 100 100
99 99 74 26 5 5 5 10 70 81 6 5 5 2 3 4 1 4 5 5 5 5 5 5 0 5 0 0 5 55 77 100 100 88 62 100 77 100 13 6 21 20 6

GFSMA_prec_cloud_033.txt.gz
Cloud_Cover
100 100 100 99 100 100 100 100 66 49 81 75 19 49 100 57 64 5 5 0 0 0 0 0 0 0 0 0 0 0 0 0 0 0 0 0 0 0 0 0 0 0 0
100 100 100 100 100 83 100 100 100 100 100 93 11 90 99 94 31 28 5 3 0 0 0 0 0 0 1 3 3 5 4 5 5 5 0 0 0 0 0 0 0 0 0
100 99 100 100 100 100 100 100 100 100 100 98 100 70 30 5 5 5 0 0 0 0 0 0 0 1 100 69 5 5 10 39 10 5 5 4 0 0 0 0 0 0 0
96 100 84 94 98 100 100 100 100 100 86 99 90 19 5 5 3 0 0 0 0 0 0 0 0 4 97 5 5 5 25 42 5 8 21 20 0 0 0 0 0 2 0
100 100 100 100 100 100 100 100 100 100 90 27 6 5 2 0 0 0 0 0 0 0 0 0 2 46 5 5 5 5 5 19 100 100 87 12 5 1 1 2 1 0 3
100 100 100 100 100 100 100 100 76 52 11 5 5 5 5 1 0 0 0 0 0 0 0 0 4 5 5 5 5 5 48 15 5 5 6 7 46 0 0 0 0 1 0
100 100 100 87 58 85 75 34 6 4 5 5 99 4 5 3 0 0 0 0 0 0 0 0 0 0 0 0 3 4 5 5 5 5 4 5 0 0 0 0 0 1 5
72 76 46 62 50 17 6 7 0 0 0 1 8 60 77 12 0 0 0 0 0 0 0 0 0 0 0 0 0 0 0 0 0 1 0 0 1 5 5 5 6 3 5
7 18 8 5 2 0 4 5 2 2 5 70 53 49 3 1 3 5 5 5 5 29 93 98 87 49 6 4 4 0 2 0 0 0 0 0 5 5 41 98 64 20 26
6 5 5 5 5 6 33 5 5 5 5 3 1 1 5 5 10 6 5 5 5 5 5 5 5 7 38 77 23 16 4 0 0 0 0 5 5 5 60 100 60 8 5
5 17 28 46 8 98 96 68 31 5 5 5 5 5 5 5 7 5 5 33 77 68 5 5 5 19 14 6 98 22 11 5 4 0 0 5 5 5 55 99 100 8 5
30 33 5 7 16 99 98 92 96 85 64 20 15 24 93 24 69 76 67 54 27 5 33 23 97 100 100 100 100 83 30 5 5 0 1 5 5 5 5 5 5 5 5
65 71 33 100 100 100 100 100 35 30 77 92 98 96 98 98 12 5 11 5 18 55 100 100 94 100 99 100 99 93 100 30 1 0 3 5 5 5 5 4 5 5 24
100 87 100 100 100 100 96 95 99 49 100 100 19 47 57 22 15 83 98 71 100 100 100 99 100 100 100 100 100 100 5 0 0 0 0 0 0 5 5 5 31 75 99
100 100 100 100 100 100 97 96 99 56 86 79 75 13 45 98 99 100 100 100 100 100 100 100 100 100 99 42 38 0 0 0 1 3 0 4 5 10 69 92 94 100 100
100 100 100 100 100 100 72 69 100 73 96 100 91 44 70 50 61 84 83 76 100 93 77 35 5 5 5 0 0 0 0 0 0 0 5 5 5 62 85 58 29 98 84
100 100 100 100 100 91 86 100 96 25 69 94 27 5 5 5 67 100 97 100 100 99 61 5 4 0 0 0 0 0 0 0 0 0 5 5 5 5 5 5 5 5 5
98 82 97 100 100 96 100 100 100 91 5 5 5 92 99 100 100 100 100 100 87 70 85 5 0 0 0 0 0 2 0 0 0 0 5 4 3 5 5 5 78 33 5
69 99 100 89 100 100 100 87 25 93 73 10 90 100 100 100 91 19 88 60 5 5 5 5 5 0 4 0 0 1 5 1 3 2 0 0 0 1 5 19 99 5 5
100 100 100 100 100 100 90 99 69 82 63 94 91 74 15 4 5 5 3 3 1 1 5 5 5 4 5 2 5 5 5 3 0 0 0 1 5 5 5 5 2 0 3
100 100 100 100 100 100 100 86 96 100 100 78 6 5 1 5 5 5 0 0 2 5 5 5 5 5 5 5 5 4 5 5 5 1 4 4 5 5 5 5 4 0 0
100 100 100 100 100 100 100 84 95 24 5 5 5 27 5 5 5 5 0 0 3 5 5 5 5 5 5 5 5 5 22 99 95 5 18 27 5 5 5 5 5 5 5
100 100 100 100 100 100 100 90 5 5 5 5 5 5 5 46 5 3 0 5 5 5 5 5 5 5 5 5 10 80 95 99 96 21 45 87 5 5 5 4 1 100 96
92 100 100 100 100 96 9 5 5 5 16 5 63 5 5 5 3 1 5 5 5 5 5 0 1 5 5 5 14 95 98 88 32 5 5 91 5 5 5 5 4 75 99
100 96 100 100 87 60 7 3 5 5 89 74 73 5 5 2 0 4 5 5 5 5 5 5 5 5 5 4 4 5 5 98 94 20 5 91 5 5 5 5 5 94 100
100 100 100 100 84 6 45 3 5 92 94 91 74 50 5 5 5 5 5 5 5 5 5 5 5 5 4 5 5 3 5 99 100 88 5 53 51 80 80 5 8 64 10

GFSMA_prec_cloud_036.txt.gz
Cloud_Cover
100 100 99 92 100 91 92 97 100 100 32 6 5 5 55 5 28 5 24 5 5 6 5 0 6 4 0 0 0 1 1 0 0 0 0 0 0 0 0 0 0 0 0
100 100 100 100 100 87 100 100 88 97 40 27 10 36 92 100 86 26 7 33 6 1 0 0 6 27 30 0 0 4 3 5 4 2 2 0 1 0 0 0 0 0 0
100 100 100 100 100 100 100 73 6 5 31 25 28 100 100 62 31 55 10 2 0 0 0 0 0 0 1 0 5 5 26 100 7 5 5 8 68 4 0 0 0 0 0
100 100 100 100 100 100 100 80 57 100 100 93 64 92 84 13 23 4 0 0 0 0 0 0 0 0 0 3 5 5 6 17 5 75 100 98 16 5 5 4 4 2 1
100 100 100 100 100 100 100 95 82 76 24 64 63 49 19 0 0 0 0 0 0 0 0 0 0 1 5 4 4 5 5 5 4 10 7 5 5 54 12 4 3 0 0
100 100 100 100 100 100 92 25 66 77 58 14 4 0 0 0 0 0 2 5 2 0 0 0 0 0 0 0 0 0 0 1 3 2 5 8 5 9 5 5 5 5 0
100 100 100 100 100 37 6 99 86 5 0 0 0 0 0 0 2 0 0 0 0 0 0 0 0 0 0 0 0 0 0 0 3 5 5 5 4 5 5 5 5 5 5
72 74 63 25 13 68 39 2 0 0 0 0 5 4 1 0 3 54 5 5 5 4 0 0 0 0 4 3 0 0 0 0 0 0 0 5 5 5 5 5 5 82 14
31 5 17 47 14 0 0 0 4 6 32 84 5 67 25 5 4 5 21 5 5 5 4 5 22 59 15 10 6 34 58 48 11 2 4 5 5 5 5 5 5 23 56
20 33 11 0 0 3 4 5 76 85 91 46 30 45 21 5 5 4 3 4 5 5 5 5 13 72 78 96 100 85 40 100 71 45 61 92 48 18 5 69 42 90 100
5 5 5 5 6 5 7 88 89 85 6 5 79 93 32 5 5 5 5 5 0 2 6 98 99 99 98 100 100 100 100 100 29 98 65 5 15 5 7 64 54 5 13
6 40 5 23 35 92 100 90 99 95 80 26 5 6 5 5 5 5 5 3 4 2 6 5 63 93 64 100 100 89 64 30 66 8 4 5 5 5 5 54 5 5 5
79 14 97 86 92 95 100 100 100 17 79 26 5 63 5 5 5 5 6 5 5 12 96 88 50 64 82 96 100 100 97 95 50 16 0 2 4 5 5 5 5 5 5
100 91 61 84 100 100 100 100 100 100 45 18 5 5 5 5 5 6 5 5 17 71 100 5 88 99 98 93 100 95 89 5 0 0 0 4 5 5 5 5 22 45 53
73 100 40 90 100 100 99 72 48 52 76 41 5 9 26 14 38 60 57 5 99 100 99 57 6 6 11 7 3 0 0 0 0 0 1 4 5 49 55 70 93 100 100
99 93 100 64 63 99 91 96 32 74 79 31 82 100 73 54 100 73 11 8 100 100 96 5 10 35 5 4 0 0 0 0 0 0 5 5 5 9 83 89 60 64 74
43 100 100 100 100 71 72 94 80 95 28 75 100 96 90 89 5 5 5 5 5 21 51 5 5 5 5 0 0 0 0 0 0 0 5 5 6 6 11 5 5 5 5
96 100 100 90 100 100 98 98 100 96 6 64 70 100 86 5 5 5 5 5 5 5 5 5 5 1 0 0 0 0 0 0 0 0 5 5 5 5 5 5 5 5 5
100 100 10 69 100 76 100 100 92 100 100 100 95 5 5 5 5 0 3 5 5 5 5 3 0 0 0 0 0 1 4 1 0 4 2 5 5 4 5 5 18 5 5
100 82 86 100 100 100 100 100 100 100 91 76 62 6 5 5 0 2 5 5 5 0 0 4 5 3 0 0 4 5 4 0 4 0 1 2 3 5 5 5 5 5 5
58 98 100 100 100 100 100 100 98 100 50 97 82 39 5 5 5 5 39 41 5 0 4 5 5 0 0 3 3 5 5 5 5 4 5 4 5 5 5 5 5 5 5
39 100 100 100 100 100 100 100 96 86 100 100 37 5 5 5 5 41 22 4 0 5 5 5 5 5 5 2 5 5 37 98 98 55 5 5 5 5 5 5 5 5 5
100 100 100 100 100 100 100 100 99 100 100 94 6 84 8 5 5 5 3 0 3 5 5 5 5 4 4 5 6 12 90 98 100 62 45 46 5 5 5 5 5 5 5
100 100 100 100 100 100 100 100 100 100 100 28 5 99 63 87 13 5 5 4 5 5 5 5 1 5 5 5 59 5 8 32 54 26 5 94 5 5 5 5 5 5 5
100 100 100 100 100 100 100 100 100 100 100 70 89 100 100 99 94 79 5 4 1 5 4 2 5 5 5 11 5 5 5 60 98 77 37 90 10 5 5 5 5 4 70
100 100 100 100 100 100 100 100 100 100 65 6 70 100 100 94 100 100 19 5 5 5 5 5 7 5 5 5 5 5 5 84 98 54 48 12 66 99 31 5 7 11 5

GFSMA_prec_cloud_042.txt.gz
Cloud_Cover
63 77 97 91 99 100 100 100 99 100 98 57 68 90 70 22 29 89 43 5 0 0 0 0 22 27 19 0 0 0 0 0 0 0 0 3 4 2 0 0 0 0 0
100 100 91 80 99 100 78 100 100 100 99 93 96 53 32 12 60 7 5 5 4 2 0 0 3 18 7 0 0 0 0 0 4 0 0 5 5 5 4 0 0 0 2
99 100 100 54 96 100 100 100 100 100 92 66 70 29 94 12 6 5 5 2 0 0 0 0 0 1 6 2 0 0 1 34 27 2 6 5 5 9 3 5 3 4 5
100 98 100 100 100 100 100 99 39 11 59 10 66 5 7 26 5 5 1 0 0 0 1 0 0 0 0 0 18 69 35 5 3 5 8 44 54 9 15 5 5 5 5
100 100 100 100 100 100 64 10 42 100 97 67 36 18 5 5 4 4 0 0 0 0 0 0 0 0 0 0 1 2 2 1 5 5 5 5 6 49 62 70 19 5 5
100 100 100 100 66 19 26 61 99 22 5 5 4 5 5 1 0 0 0 0 0 0 0 0 0 0 0 0 0 0 0 0 5 5 5 5 5 9 41 36 5 5 5
100 100 74 5 5 82 100 24 55 5 5 2 5 5 0 0 0 0 5 0 0 0 0 0 0 0 3 0 0 0 0 1 5 5 5 5 5 5 5 5 5 68 100
61 31 57 21 10 11 38 7 4 4 5 5 5 5 39 19 1 4 0 2 2 0 0 0 0 0 3 0 5 3 5 0 0 0 0 5 4 5 5 5 5 8 78
62 98 100 97 25 5 5 5 5 5 5 5 12 95 89 96 24 4 1 5 4 5 2 2 2 4 5 3 3 5 5 4 4 3 5 5 34 74 80 66 96 98 90
90 67 100 100 70 6 5 5 5 5 89 100 100 89 55 73 5 5 3 2 4 0 5 5 1 5 5 5 5 5 5 5 5 5 5 6 6 20 61 96 100 100 100
100 100 100 100 100 100 69 5 16 98 96 100 79 8 5 4 2 5 5 5 5 5 5 5 5 5 5 5 5 6 5 5 5 5 5 8 8 5 14 86 100 99 100
100 96 100 99 99 76 92 78 85 100 86 97 58 10 21 5 5 2 4 5 5 5 22 10 19 5 52 5 5 2 5 5 5 5 5 5 5 5 4 5 5 45 99
100 100 100 100 100 92 100 100 94 100 86 100 59 80 5 5 5 5 35 19 5 5 68 73 72 67 73 79 82 25 5 3 0 0 0 0 0 4 5 5 5 5 5
100 100 100 100 100 100 100 100 100 100 100 70 5 6 5 30 5 5 23 12 5 50 25 11 70 83 100 94 99 11 1 0 0 0 0 0 0 0 5 5 5 5 27
100 100 100 100 100 100 100 100 95 100 100 24 6 10 86 99 93 23 5 7 43 35 5 17 28 97 93 100 100 62 5 0 0 0 0 0 0 1 5 5 5 26 94
100 100 100 100 100 99 100 99 100 100 100 100 100 93 80 100 100 91 93 100 66 14 44 37 21 83 97 100 96 5 5 2 0 0 0 0 5 5 5 5 5 56 61
100 100 100 99 95 100 91 100 100 100 99 96 100 96 98 91 100 100 100 100 99 92 86 80 66 83 91 97 60 5 5 0 0 0 0 0 5 5 5 5 5 5 5
100 100 100 74 99 100 98 95 100 100 100 100 100 61 100 100 100 100 100 100 100 100 100 61 63 22 95 95 5 5 5 0 0 0 0 0 2 5 5 5 5 5 5
100 100 100 100 100 100 100 100 100 100 100 100 100 100 100 100 100 100 100 100 100 100 100 100 70 96 73 16 46 19 5 0 0 0 0 0 5 2 5 5 5 5 5
100 100 100 100 100 100 100 100 100 100 100 100 100 100 100 100 100 100 100 100 100 100 100 100 100 94 36 55 50 13 3 0 0 0 0 4 5 5 5 4 2 4 5
71 95 94 100 100 100 100 100 96 84 100 100 100 100 100 100 100 100 100 100 100 100 100 100 99 97 51 78 43 10 0 2 1 5 5 7 59 76 100 100 74 72 46
80 100 100 100 100 94 87 98 93 100 100 100 100 100 100 100 100 100 95 83 100 63 98 100 100 100 72 65 66 5 3 5 4 5 5 5 18 62 100 100 95 1 0
100 100 100 88 100 99 100 100 100 100 100 100 97 98 100 100 74 78 72 95 65 5 5 22 52 76 84 55 57 4 5 5 5 10 5 5 29 76 100 100 83 4 0
94 100 97 100 100 93 93 100 70 85 79 90 37 19 85 90 83 40 64 65 95 84 44 5 5 5 18 44 5 5 8 32 40 56 65 10 44 91 100 100 57 5 5
100 99 100 100 100 100 74 65 48 42 24 23 5 23 48 37 10 14 6 53 87 79 100 14 8 5 5 5 5 5 6 91 91 27 53 85 83 82 100 100 100 99 6
96 32 30 11 10 41 20 5 6 5 5 5 14 39 5 17 15 5 13 96 87 66 90 100 21 10 55 58 5 8 41 100 100 90 53 72 100 97 100 98 100 97 100

GFSMA_prec_cloud_045.txt.gz
Cloud_Cover
100 100 100 100 100 91 64 99 94 76 94 98 100 100 99 78 4 34 76 63 2 1 0 0 25 34 21 0 0 0 0 0 0 0 0 3 5 0 4 1 0 0 4
100 100 100 98 100 75 98 81 56 97 97 97 100 99 18 94 50 5 0 3 0 0 0 0 12 5 28 0 0 0 0 0 0 0 28 5 3 5 7 5 5 4 4
100 100 100 100 100 100 100 100 10 60 21 89 26 75 49 5 1 2 4 0 0 0 0 0 0 1 31 31 0 0 0 2 100 38 14 70 56 44 98 5 5 5 5
100 100 100 100 100 99 93 96 15 32 86 97 84 42 5 5 5 3 0 0 0 0 0 0 0 0 0 0 3 28 40 79 51 21 5 5 7 30 86 100 98 15 5
100 100 100 100 100 95 84 65 95 50 6 61 3 7 15 7 3 1 0 0 0 0 0 0 0 0 0 0 5 39 16 10 4 5 5 5 40 38 22 24 62 79 5
100 100 100 100 100 84 95 70 62 87 85 6 26 7 2 2 2 5 0 0 0 0 0 0 0 0 0 0 0 0 0 0 0 5 5 5 5 5 5 5 5 5 5
100 100 89 53 83 15 45 4 5 5 11 56 8 3 1 5 4 4 0 0 0 0 0 0 0 0 1 0 2 1 0 0 1 5 5 5 5 5 5 5 5 5 92
99 89 86 30 6 37 28 5 61 62 27 2 5 5 17 100 59 4 0 1 3 3 1 5 2 0 2 0 4 2 3 0 0 1 4 5 5 5 22 81 97 70 96
73 32 53 39 30 21 38 69 96 95 5 4 5 24 40 84 34 5 2 0 0 0 4 3 5 5 5 5 3 5 5 5 5 0 1 5 5 7 65 99 100 100 100
100 89 73 67 8 59 100 100 100 8 6 20 71 54 58 5 5 6 5 5 4 5 4 4 5 5 12 22 41 29 5 4 1 0 0 5 5 6 65 100 100 100 100
100 78 82 93 92 100 99 96 78 56 100 90 100 89 7 5 5 6 5 5 5 30 82 94 81 7 8 64 72 51 5 5 0 0 5 5 5 5 5 5 5 18 52
99 64 88 100 67 86 100 54 79 100 100 100 100 100 76 68 61 99 84 53 70 41 5 44 10 55 21 63 71 5 4 0 0 0 0 0 0 0 0 5 5 5 5
100 100 92 100 100 100 100 100 100 100 100 93 100 100 98 8 50 84 98 98 54 96 100 93 76 62 53 44 57 32 5 4 5 5 0 0 0 0 2 3 5 5 5
100 100 100 100 100 100 100 100 100 100 100 100 99 62 100 100 99 100 100 100 76 92 100 100 100 100 95 98 28 5 5 5 4 0 0 0 0 0 2 5 5 5 5
100 100 100 100 100 100 100 100 100 100 100 100 92 100 100 90 100 92 95 78 96 88 88 100 100 100 88 88 54 8 5 50 5 0 0 0 0 0 5 5 5 5 5
100 100 100 100 100 100 100 100 100 100 86 99 100 100 100 100 100 100 96 93 100 100 59 100 100 100 100 100 91 52 5 5 5 5 0 0 0 0 5 5 5 5 5
100 100 100 100 100 100 100 100 100 100 99 100 97 100 100 100 100 100 100 100 100 99 89 72 99 100 92 81 72 47 70 48 27 4 0 0 0 0 0 2 5 5 5
100 100 100 100 100 100 100 100 100 100 100 100 100 100 100 89 99 100 100 100 100 100 88 97 100 99 57 27 50 45 6 66 48 5 0 0 0 0 0 0 0 5 5
100 100 100 100 100 100 100 100 100 100 100 100 100 100 99 100 100 100 100 98 88 100 100 92 12 71 73 41 83 48 55 89 23 3 0 0 0 0 0 0 0 0 4
100 100 100 100 100 100 100 100 100 100 89 97 100 100 100 100 100 100 100 100 100 46 77 60 53 60 85 74 74 22 10 94 95 1 4 2 5 5 5 5 5 1 2
93 98 100 100 100 100 100 100 100 61 77 100 100 100 100 89 84 100 100 85 21 19 25 96 66 94 89 100 99 98 75 35 7 5 5 5 57 14 5 6 27 95 55
46 77 100 100 100 100 100 99 43 88 100 100 100 78 82 6 72 55 57 20 5 5 5 5 5 61 95 100 100 100 92 100 4 2 5 5 15 6 55 33 71 94 5
45 100 97 91 90 100 76 59 100 100 100 100 78 16 5 51 5 12 5 16 5 5 6 43 96 87 30 93 98 54 97 91 5 5 33 5 75 5 77 74 55 5 27
99 100 90 98 100 100 100 89 76 76 49 7 5 5 16 49 62 5 5 10 10 5 5 32 5 5 5 95 80 94 45 5 5 5 49 49 88 5 46 39 5 5 21
96 100 100 100 100 56 21 5 24 5 5 23 99 99 74 6 5 5 5 5 4 1 5 97 34 66 68 84 100 100 37 23 5 5 55 93 79 32 48 5 5 81 18
94 56 64 88 35 5 5 5 5 9 13 38 52 50 11 11 9 81 99 11 5 5 5 5 100 100 48 98 100 100 100 51 87 16 100 96 78 65 10 8 50 5 5

GFSMA_prec_cloud_048.txt.gz
Cloud_Cover
100 100 100 100 100 100 72 97 84 100 19 90 72 90 9 62 5 58 18 5 49 5 1 2 18 11 21 1 0 0 0 0 0 0 0 0 0 0 4 18 4 3 0
100 100 100 100 100 100 100 100 100 100 100 100 96 66 7 10 5 13 7 5 0 0 0 0 5 24 23 38 0 0 0 0 0 0 14 28 69 10 95 99 5 12 6
100 100 100 100 100 100 100 45 99 100 99 73 100 76 6 7 33 5 8 29 5 2 0 0 0 2 33 59 0 0 0 0 21 96 14 38 69 100 92 100 97 100 15
100 100 98 100 100 100 100 100 100 100 100 96 84 5 7 4 5 1 5 4 2 0 0 0 0 0 0 3 14 35 32 1 99 32 5 5 5 6 6 9 64 18 7
100 100 100 100 100 100 100 100 100 100 77 85 38 57 5 5 3 5 5 4 1 0 0 0 0 0 0 0 0 0 0 0 1 0 5 5 5 21 14 5 6 7 5
100 100 100 100 100 100 100 100 100 100 69 6 9 1 0 3 5 5 2 0 0 0 0 0 0 0 0 0 0 0 0 0 0 5 5 5 5 5 5 5 5 5 5
100 100 100 100 100 100 100 100 100 17 5 5 5 3 1 0 5 5 5 0 5 0 0 0 0 0 0 0 0 0 0 0 0 0 4 5 5 5 5 5 5 47 79
100 100 100 100 100 57 82 24 6 5 6 5 15 24 5 7 10 5 5 5 5 1 0 4 0 0 0 0 0 3 5 5 0 0 0 2 4 5 5 20 53 91 59
100 79 67 100 100 91 73 34 6 38 78 59 89 34 36 22 5 5 5 5 5 5 5 5 0 0 0 0 0 3 4 5 5 5 0 0 5 5 5 5 38 93 80
100 100 99 95 98 91 100 100 83 68 85 34 68 86 95 100 62 25 19 7 5 5 5 5 2 5 6 2 5 5 5 5 5 5 4 0 5 5 5 5 5 5 5
57 100 100 100 98 100 97 99 100 100 100 73 88 100 100 100 100 95 98 89 7 5 20 67 13 5 5 5 3 5 5 5 5 3 0 0 3 5 5 5 5 5 5
100 100 100 100 92 100 100 100 100 100 100 100 100 100 100 53 100 100 100 69 62 100 100 100 10 5 5 5 18 5 5 5 4 4 0 0 0 3 5 5 5 5 5
100 100 100 100 100 100 100 100 100 100 100 100 100 100 100 100 99 72 100 89 71 99 100 100 97 40 5 71 76 44 5 0 4 4 0 3 0 0 2 0 5 5 5
100 100 100 100 100 100 100 100 100 100 100 100 100 100 100 92 99 100 100 95 67 80 100 100 100 100 98 100 51 54 5 3 5 1 5 0 0 0 0 0 5 5 5
100 100 100 100 100 100 100 100 100 100 100 100 100 100 98 100 74 100 100 100 86 85 98 78 90 100 100 96 41 5 5 5 5 2 0 0 0 0 0 0 0 4 5
79 100 100 100 100 100 100 100 100 100 100 100 100 100 100 100 99 77 100 100 100 45 8 38 30 67 95 65 44 7 29 5 5 5 0 0 0 0 0 0 0 0 5
100 100 100 100 100 100 100 100 100 100 100 100 100 99 100 100 100 93 8 64 80 20 54 5 5 7 9 26 98 100 96 5 1 0 4 0 0 0 0 0 0 0 0
100 100 100 100 100 100 100 100 100 100 100 100 100 100 99 94 24 49 99 95 76 100 98 5 5 5 5 5 5 5 5 5 1 0 0 0 0 0 0 0 0 0 0
100 100 100 100 100 100 100 100 100 100 100 100 100 98 79 100 100 100 95 100 99 100 89 86 8 5 5 30 5 5 5 5 5 0 5 5 0 0 0 0 5 0 0
100 100 100 100 100 100 100 100 100 100 100 100 100 80 100 100 100 99 84 71 28 39 81 100 98 10 20 27 43 77 38 5 5 5 5 5 0 0 5 5 3 4 2
100 100 100 100 100 100 100 100 100 100 100 90 54 97 100 84 7 6 5 5 7 14 42 72 31 91 85 100 100 100 100 71 76 4 1 0 0 4 5 4 5 5 5
30 27 95 65 58 28 99 100 100 100 100 100 100 100 71 5 5 5 5 5 5 5 5 5 5 5 5 5 94 99 87 36 40 2 5 0 0 0 3 5 36 100 8
5 5 27 60 59 79 73 34 72 100 100 100 94 12 5 5 5 5 5 5 5 5 32 94 97 53 10 24 100 100 100 98 45 5 5 1 2 5 5 66 26 23 5
37 48 18 29 88 100 89 100 100 68 44 38 7 5 5 5 5 5 5 5 5 5 5 5 7 17 59 48 100 100 100 88 91 51 100 54 0 4 5 65 10 5 1
70 92 99 37 95 100 55 10 24 88 33 5 5 6 26 6 5 5 5 5 5 5 5 4 4 6 4 5 98 100 100 100 10 100 100 99 5 5 12 52 18 1 5
67 56 100 100 18 5 68 100 94 6 44 93 100 100 53 100 82 24 28 73 98 96 99 100 64 36 1 5 42 99 100 84 98 100 67 100 54 96 10 100 27 5 1

GFSMA_prec_cloud_054.txt.gz
Cloud_Cover
100 100 100 99 96 100 93 100 79 95 28 20 100 100 100 72 100 100 100 100 100 99 34 5 40 14 21 17 0 0 3 0 0 0 0 0 0 0 1 3 2 2 2
100 100 99 94 100 100 100 100 96 79 100 100 100 100 100 81 100 100 100 58 31 25 60 100 5 6 28 25 24 0 0 0 0 0 43 12 0 1 13 22 3 3 1
100 100 78 95 100 100 94 100 100 100 69 100 95 88 100 100 100 100 100 100 85 100 64 5 5 4 8 61 100 18 0 0 0 0 56 4 4 5 5 0 1 4 5
100 82 100 96 100 100 100 100 100 100 99 98 61 100 82 100 97 100 73 100 97 100 98 5 5 47 7 9 4 1 4 4 14 8 4 1 1 5 5 5 5 5 5
39 100 100 100 100 100 100 100 100 100 100 100 100 100 100 20 100 100 100 100 100 50 5 6 20 5 5 5 5 5 3 10 2 8 6 3 5 5 5 4 5 5 5
95 100 100 100 100 100 96 100 100 100 100 100 100 100 100 100 100 100 100 100 94 50 79 22 5 5 5 5 49 5 5 1 0 0 3 0 0 0 0 2 5 5 5
100 100 100 100 100 100 100 100 100 100 100 100 100 100 100 100 100 62 6 85 100 86 97 59 29 19 95 100 100 19 5 5 0 0 0 0 0 0 0 0 4 5 5
100 100 100 100 100 100 100 100 100 100 100 100 100 100 100 100 100 77 100 94 16 42 73 100 100 100 100 100 99 4 1 2 0 0 0 0 0 0 0 0 5 5 2
100 100 100 100 87 95 97 100 65 94 70 100 100 100 100 100 100 100 85 83 89 100 100 100 100 100 100 98 4 8 5 5 2 0 0 0 0 0 0 0 5 5 5
100 100 100 100 100 100 100 100 99 100 94 100 100 100 100 100 100 100 100 96 100 100 100 100 100 54 55 96 100 72 6 5 5 0 0 0 0 0 0 0 4 5 5
100 100 100 100 100 100 100 100 100 100 96 95 92 100 100 100 98 100 97 100 100 100 100 100 100 100 60 16 5 5 5 5 5 5 5 0 0 0 0 0 3 5 5
95 100 100 100 100 99 99 100 100 100 99 83 100 100 99 100 100 100 100 97 100 100 100 98 91 100 51 34 18 53 86 92 41 80 14 5 5 5 5 0 0 2 5
100 100 100 100 100 100 100 100 100 100 100 100 100 100 100 98 100 100 100 100 100 100 88 100 100 83 42 58 72 33 70 98 98 64 50 56 15 5 5 4 3 3 5
99 100 100 100 92 100 100 100 100 100 100 100 100 100 100 100 100 100 100 100 100 99 100 100 67 44 6 5 5 5 7 17 25 70 98 100 100 100 5 5 4 0 4
100 97 92 92 100 100 100 100 100 100 100 100 100 100 100 100 100 100 100 100 100 100 100 18 98 90 14 5 5 4 5 5 61 72 100 89 15 3 5 5 4 0 0
100 100 100 98 94 95 97 100 100 100 100 100 100 100 100 100 100 100 100 100 85 100 100 100 100 84 5 5 5 5 5 5 5 5 5 5 5 5 5 5 2 0 0
100 100 100 100 40 41 66 79 100 100 100 100 100 100 100 100 100 100 100 90 100 88 100 100 98 26 15 5 10 44 23 5 6 88 38 20 5 5 15 5 5 1 0
100 100 100 88 65 100 100 100 100 100 100 100 100 100 98 100 100 100 100 100 8 84 77 27 23 8 5 5 11 53 100 91 99 99 100 93 96 32 100 22 19 32 1
100 100 100 100 100 100 100 100 100 100 100 84 84 100 100 100 100 100 100 73 83 67 13 22 78 7 5 57 9 5 6 91 6 98 19 28 72 100 90 82 100 15 5
100 100 100 100 100 100 100 100 100 100 100 88 99 100 100 100 100 97 82 13 5 91 63 6 5 5 5 5 5 5 5 5 5 5 8 24 53 42 100 70 100 83 5
100 100 100 100 100 100 100 100 100 100 76 100 100 100 100 100 96 96 53 51 94 73 18 10 5 21 5 5 36 80 100 5 5 5 41 56 96 62 99 100 100 97 19
100 100 100 100 100 100 100 100 91 100 100 100 100 100 100 100 100 89 5 8 5 5 5 5 5 5 5 5 50 80 100 85 30 44 76 5 62 99 100 100 100 100 5
100 100 100 100 100 100 100 100 100 100 100 100 100 96 100 100 64 65 73 96 41 82 42 30 6 8 12 51 100 100 100 100 71 100 74 80 61 96 100 100 100 100 92
100 100 100 100 100 100 100 98 95 65 34 6 25 21 38 18 85 99 80 100 100 97 91 100 88 87 100 100 88 50 10 76 100 61 100 100 49 72 100 100 100 100 100
100 100 80 29 10 5 5 6 8 36 5 8 14 9 14 27 64 6 61 9 83 100 100 100 100 100 100 100 100 16 99 100 93 8 63 100 75 40 96 100 100 100 100
4 5 5 53 46 37 100 100 98 47 8 5 7 7 19 26 17 66 46 16 100 100 99 100 100 100 100 100 100 100 100 100 97 100 8 93 100 81 92 99 100 99 10

GFSMA_prec_cloud_057.txt.gz
Cloud_Cover
100 100 100 73 96 90 96 100 100 100 100 88 88 52 68 65 5 5 46 100 100 100 100 100 100 63 100 100 54 11 10 0 3 3 0 0 0 0 4 6 0 6 5
100 100 100 100 100 100 100 100 100 100 100 100 76 79 38 51 74 98 100 100 100 100 100 100 100 100 92 37 92 10 5 5 5 0 0 1 0 0 0 0 0 0 4
100 100 100 100 100 100 100 100 92 100 100 99 100 100 94 84 82 100 100 100 100 100 100 100 100 54 60 29 20 100 13 3 3 0 44 0 0 0 0 0 0 0 0
100 100 100 100 100 100 100 100 100 100 100 100 100 100 100 87 100 100 100 100 100 100 100 100 100 100 51 5 45 66 73 39 1 18 8 5 5 1 0 1 1 0 2
100 100 100 100 100 99 100 100 100 97 100 100 99 100 100 100 100 100 100 100 100 100 65 43 100 100 93 13 5 5 9 82 100 4 4 5 5 5 38 5 0 0 5
100 100 100 100 100 100 100 100 100 100 100 100 100 100 100 100 100 100 100 100 100 100 98 100 100 100 44 5 5 18 100 50 10 76 97 66 72 5 5 0 0 0 5
100 100 100 100 100 100 100 100 100 100 100 100 100 100 100 100 100 100 100 79 100 100 100 100 21 11 5 5 100 100 100 100 100 100 93 100 5 0 0 0 0 0 5
100 100 100 100 100 100 100 100 100 100 100 100 100 100 100 100 100 100 98 100 100 100 72 88 81 92 100 100 100 100 100 100 100 100 81 1 0 0 0 0 0 0 3
100 100 100 97 100 100 100 100 100 100 100 100 100 100 100 100 100 100 100 98 100 100 94 85 75 100 100 100 100 100 100 100 100 9 5 3 0 0 0 0 0 0 1
100 100 100 100 100 100 100 100 100 100 100 100 100 100 100 100 100 100 100 94 100 92 99 100 100 100 100 100 100 100 100 100 22 7 5 5 5 5 2 0 0 0 0
100 100 100 100 100 100 100 100 100 100 100 100 100 100 100 100 100 100 100 100 100 100 100 96 100 100 100 100 100 100 100 26 100 81 63 5 5 5 5 2 2 5 0
100 100 100 100 100 100 100 100 100 100 100 100 100 100 94 84 100 100 100 100 100 100 100 100 100 100 100 100 100 100 100 100 100 97 100 100 99 100 14 5 5 5 0
100 100 100 100 100 100 100 100 100 100 100 100 100 100 100 100 100 100 100 98 100 100 100 100 100 100 99 100 89 78 90 92 72 99 98 100 99 96 50 69 39 5 1
100 100 100 100 100 79 100 93 100 100 100 100 100 100 100 100 100 100 100 100 100 100 100 100 98 34 96 90 59 100 89 9 6 36 14 100 100 100 100 52 54 5 5
100 98 100 100 93 46 76 98 100 92 99 100 100 100 100 100 100 100 100 100 100 100 100 100 100 95 39 74 96 8 5 31 5 5 5 5 7 39 6 90 8 5 2
98 100 100 100 100 100 100 82 75 97 65 79 100 100 100 100 99 100 100 100 100 100 100 100 100 94 94 79 38 5 5 5 5 5 5 16 95 35 98 61 45 80 18
100 100 100 100 100 100 100 100 49 58 72 100 100 100 100 100 100 99 78 100 100 100 100 100 98 99 15 6 15 8 19 20 5 80 78 100 100 100 100 100 100 100 100
100 100 100 100 100 100 100 100 100 100 100 100 100 100 100 100 100 99 100 100 100 100 72 94 81 5 29 85 83 30 5 5 27 5 41 100 100 100 100 100 100 96 100
100 100 100 100 100 100 100 100 100 100 100 100 100 100 100 98 86 100 100 100 100 100 41 86 100 74 94 64 85 21 43 33 15 16 100 100 100 99 98 19 73 86 100
100 100 100 100 100 100 100 100 100 100 100 100 100 100 100 99 98 100 100 100 92 45 96 97 100 100 100 55 29 11 11 10 50 98 61 84 97 98 87 45 79 100 100
100 100 100 100 100 100 100 100 100 100 100 100 100 100 100 100 100 100 100 91 84 42 88 72 16 6 89 69 97 66 5 9 100 100 5 48 96 11 72 100 7 94 100
100 100 100 100 100 100 100 100 100 100 100 100 74 94 100 100 100 100 95 100 41 42 8 6 61 76 54 82 52 8 43 87 100 100 25 35 100 74 79 5 5 98 100
100 100 100 100 100 100 100 100 100 100 100 100 100 100 100 100 100 100 96 35 13 28 35 50 42 78 65 73 67 11 36 100 100 100 84 83 100 100 60 5 5 73 100
100 100 100 100 100 100 100 100 100 100 100 100 100 100 100 100 100 75 75 98 95 81 67 12 22 44 42 30 93 52 15 100 100 100 100 98 97 44 5 54 40 97 100
100 100 100 100 100 100 100 100 100 100 100 100 100 99 98 90 43 18 78 95 100 100 100 100 100 100 100 100 100 93 100 100 100 100 100 100 100 60 27 9 84 99 100
100 100 100 100 100 100 100 100 100 99 91 64 26 12 92 79 98 100 99 100 100 100 100 100 100 100 100 100 100 100 100 100 100 100 100 100 89 100 100 5 100 90 64

GFSMA_prec_cloud_063.txt.gz
Cloud_Cover
100 100 100 100 60 99 100 78 82 84 87 99 89 100 99 100 100 100 100 93 54 58 97 100 100 100 100 100 100 100 100 100 100 100 36 5 6 11 5 5 0 0 5
100 100 100 99 76 90 62 100 95 67 91 96 96 100 99 100 100 100 100 94 100 100 100 100 100 100 100 100 100 100 100 100 100 80 70 5 48 5 1 4 4 14 27
100 100 100 97 92 100 100 93 90 100 100 100 100 100 100 100 100 100 100 100 100 100 100 100 100 100 82 33 100 100 100 100 100 100 6 5 5 5 5 5 100 100 43
100 100 100 89 100 99 100 100 100 100 100 100 100 100 100 100 100 100 100 100 100 100 100 100 100 100 100 100 100 100 100 100 99 27 5 5 9 4 55 100 100 98 5
100 100 100 100 100 100 100 100 100 100 100 100 100 100 100 100 100 100 100 100 100 100 100 100 100 100 100 100 100 100 100 38 43 96 29 4 2 98 100 100 98 6 5
100 100 100 100 100 95 100 100 100 100 100 100 100 100 100 100 100 100 100 100 100 100 100 100 100 100 100 100 100 62 5 47 45 82 12 22 91 100 100 100 41 20 5
100 100 100 100 100 100 100 100 100 100 100 100 100 100 100 100 100 100 100 100 100 100 100 100 100 100 100 66 55 97 78 8 32 28 49 100 100 100 100 17 16 88 42
100 100 100 100 100 100 100 100 100 100 100 100 100 100 100 100 100 100 100 100 100 100 100 100 100 95 99 92 87 100 100 93 100 100 100 100 100 95 5 5 14 5 62
100 100 100 100 100 100 100 100 100 100 100 100 100 100 100 100 100 97 100 100 100 99 81 100 100 100 100 98 100 100 100 100 100 100 100 100 34 5 5 35 71 15 18
100 100 100 100 100 100 100 100 100 100 100 100 100 100 82 83 100 100 94 100 100 100 100 100 100 100 100 100 100 100 100 100 100 59 5 5 31 61 65 100 100 96 94
100 100 100 100 100 100 100 100 100 100 100 100 100 100 100 100 100 98 100 100 100 100 100 100 100 100 100 100 100 100 100 89 74 6 26 55 31 100 100 100 100 100 100
100 100 100 100 100 100 100 100 100 91 100 94 100 100 100 98 99 100 100 100 100 100 100 100 100 100 100 100 100 98 58 24 6 20 62 100 100 97 99 95 64 75 87
100 100 100 100 100 100 100 100 100 100 100 100 100 100 100 100 100 92 99 100 100 100 100 100 100 64 83 100 100 100 100 100 100 100 99 88 69 70 15 86 100 99 85
100 100 100 100 100 100 100 100 100 100 100 100 100 100 100 100 100 99 98 98 100 100 100 96 20 87 100 99 96 100 100 100 100 34 6 6 71 40 83 100 100 88 66
100 100 100 100 100 100 99 95 77 89 93 80 98 100 100 99 100 97 81 100 100 100 100 92 83 7 78 95 83 76 100 100 36 17 38 100 100 100 100 100 100 100 95
5 15 78 98 85 77 60 48 70 99 100 95 100 100 100 100 100 100 100 100 100 100 100 49 66 97 100 100 34 100 85 83 25 85 100 100 100 100 87 86 74 59 100
53 79 24 14 67 100 100 87 56 100 100 100 100 100 100 100 100 100 100 100 100 87 87 75 100 99 100 80 100 96 87 38 87 100 94 99 83 31 11 5 5 21 56
96 56 68 87 100 76 100 100 100 100 100 100 100 100 100 100 100 100 100 100 100 59 95 100 100 100 75 100 100 67 31 77 67 38 12 86 98 42 54 54 79 28 62
8 73 99 88 90 68 100 100 100 100 100 100 100 100 100 100 100 99 100 100 100 99 100 95 100 100 100 100 88 92 94 40 94 92 100 100 100 63 64 5 6 85 93
30 53 96 93 77 100 100 100 100 100 100 100 100 100 100 100 100 100 100 100 100 100 100 100 100 100 100 100 100 100 98 99 90 100 100 100 87 93 94 45 100 100 70
28 88 98 100 41 48 68 99 100 100 100 100 100 100 100 100 100 100 100 100 100 100 100 100 100 100 100 100 97 100 100 71 100 100 100 100 98 100 94 100 100 100 100
4 2 37 100 100 100 100 100 100 100 100 100 100 100 100 100 100 100 100 100 100 100 100 100 100 100 100 100 100 77 30 75 85 86 82 100 99 100 72 85 100 100 100
12 19 90 100 100 100 100 100 100 100 100 100 100 100 100 100 100 100 100 100 100 100 100 100 100 97 98 100 57 99 86 75 84 97 65 61 100 87 100 100 100 100 30
82 98 100 100 100 100 100 100 100 100 100 100 100 100 100 100 100 100 100 100 100 100 100 100 100 100 100 99 99 82 100 74 87 98 100 55 100 100 100 100 100 75 5
100 100 100 100 100 100 100 100 100 100 100 100 100 100 100 100 100 100 100 100 100 100 100 100 100 100 100 97 97 98 73 49 90 100 100 100 100 38 75 100 55 18 5
100 100 100 100 100 100 100 100 100 100 100 100 100 100 100 100 100 100 100 100 100 100 100 100 100 100 100 100 100 100 100 100 100 100 100 100 99 50 40 9 29 69 7

GFSMA_prec_cloud_066.txt.gz
Cloud_Cover
100 100 100 100 100 22 88 40 77 83 100 100 100 100 49 97 100 90 51 85 100 99 100 100 100 100 100 100 100 99 59 100 19 100 100 100 100 100 100 91 5 4 0
100 100 100 100 100 100 97 59 22 74 100 85 100 82 86 88 91 97 96 100 100 100 100 100 100 100 100 100 100 99 100 73 100 100 100 100 100 97 17 2 0 0 2
100 100 100 100 100 100 76 96 52 76 73 75 54 100 100 99 100 100 100 100 100 100 100 100 100 100 100 100 100 100 100 100 100 100 100 89 2 0 5 0 0 2 5
100 100 98 95 95 85 55 99 100 63 58 17 79 100 100 100 100 100 100 100 100 100 100 100 100 100 100 100 100 100 100 100 100 100 80 5 5 10 5 5 4 5 100
100 100 100 100 99 100 100 99 95 73 96 100 100 100 100 100 100 100 100 99 100 100 100 100 100 100 100 100 100 100 100 100 73 5 7 23 42 5 5 4 51 100 100
100 100 100 100 100 100 100 100 100 100 100 100 100 100 100 100 99 100 100 100 100 100 100 100 100 100 100 100 100 100 96 40 37 81 95 55 86 53 97 100 100 100 100
100 100 100 100 100 100 100 100 100 100 100 100 100 100 100 100 100 100 100 100 100 100 100 100 100 100 100 100 100 5 27 13 52 78 13 93 86 100 100 100 100 21 5
100 100 100 100 100 100 100 100 100 100 100 100 100 100 100 100 100 100 100 100 100 100 100 100 100 97 100 100 16 14 67 86 8 17 81 100 100 100 88 32 5 5 5
100 100 100 100 100 100 100 100 100 100 100 100 100 100 100 100 100 100 100 100 100 100 100 100 100 76 82 96 93 73 65 52 100 100 100 82 30 46 5 5 16 10 5
100 100 100 100 100 100 100 100 100 100 100 100 100 100 100 100 100 100 100 100 100 100 94 99 100 100 100 100 99 29 100 100 64 44 9 5 5 17 98 48 58 85 100
100 100 100 100 100 100 100 100 100 100 100 100 100 100 100 100 100 100 100 100 76 63 100 100 100 98 100 99 100 100 100 6 7 5 5 5 5 5 7 76 100 60 85
100 100 100 100 100 100 100 100 100 100 100 100 100 100 100 100 100 100 100 98 72 97 100 100 100 100 100 100 100 67 99 93 89 51 100 9 78 67 5 6 77 46 38
100 100 100 100 100 100 100 100 100 100 100 100 100 100 100 100 100 100 100 100 100 99 100 97 100 100 100 52 5 27 100 100 100 100 100 61 72 12 5 5 5 10 16
100 100 100 100 100 100 100 100 100 100 100 100 100 100 100 100 100 100 96 99 100 100 98 98 100 100 18 50 6 7 54 26 94 100 26 59 90 33 5 5 5 5 49
100 100 100 100 100 100 100 100 100 100 100 100 97 97 93 92 100 100 97 95 100 100 100 100 94 100 56 10 5 71 86 48 8 71 92 53 53 23 6 6 55 15 13
100 100 100 100 100 100 100 100 100 100 66 22 60 100 100 97 88 100 100 100 100 100 100 85 98 21 18 15 95 65 64 68 100 100 100 100 23 70 100 86 78 96 89
22 35 25 78 99 60 69 89 20 71 85 100 99 97 100 100 100 100 100 100 100 100 100 100 100 60 78 40 100 84 73 100 100 100 100 100 100 99 75 70 98 99 72
99 50 94 98 100 100 69 89 97 60 40 98 100 100 100 100 100 100 100 100 100 100 100 100 82 100 75 100 40 97 64 93 100 100 100 100 100 100 70 99 67 21 92
13 52 63 17 6 6 56 67 39 90 90 95 100 100 100 100 100 100 100 100 100 100 100 100 100 100 99 100 100 100 100 100 98 100 100 100 100 100 66 100 15 44 24
10 78 98 6 5 5 6 31 48 96 100 100 100 100 100 100 100 100 100 100 100 100 100 100 100 100 100 100 100 100 100 99 100 100 100 99 87 95 100 100 97 74 36
5 5 55 18 13 5 86 99 100 98 65 60 80 100 100 100 100 100 100 100 100 100 100 100 100 100 100 100 100 100 100 100 100 100 100 100 100 98 92 100 100 100 100
0 0 0 3 9 21 50 89 100 98 70 99 100 100 100 100 100 100 100 100 100 100 100 100 100 100 100 100 100 100 100 100 100 100 100 100 100 100 100 100 100 100 100
0 3 0 0 0 0 75 100 100 100 100 100 100 100 100 100 100 100 100 100 100 100 100 100 100 100 100 100 100 100 100 100 100 100 79 97 100 100 97 100 100 100 100
2 20 41 63 78 79 100 100 100 100 100 100 100 100 100 100 100 100 100 100 100 100 100 100 100 100 100 100 100 100 100 100 100 100 100 100 100 89 100 100 100 100 100
89 100 100 100 100 99 100 100 100 100 100 100 100 100 100 100 100 100 100 100 100 100 100 100 100 100 100 100 100 100 100 100 100 100 100 100 97 91 76 100 100 100 100
100 100 100 100 100 100 100 100 100 100 100 100 100 100 100 100 100 100 100 100 100 100 100 100 100 100 100 100 100 100 100 100 100 100 100 88 89 94 94 100 100 100 63

GFSMA_prec_cloud_069.txt.gz
Cloud_Cover
100 100 100 100 100 100 100 100 100 54 21 87 100 100 97 100 99 94 100 100 100 100 100 100 100 100 100 99 100 86 100 100 100 100 100 100 100 100 100 100 100 88 6
100 100 100 100 100 100 100 88 70 75 94 98 98 100 100 100 100 87 99 56 100 100 100 100 100 100 100 99 100 100 100 96 100 100 100 98 100 100 100 100 5 0 0
100 100 100 100 100 100 100 100 98 98 95 99 100 88 76 93 94 59 96 100 100 100 100 100 100 95 100 100 94 100 94 38 100 100 86 100 100 100 100 2 2 4 5
100 100 100 100 100 100 100 100 100 100 87 82 48 86 78 56 67 100 100 100 100 100 100 100 100 100 100 100 100 100 100 100 100 100 100 100 100 5 5 5 5 5 6
100 100 100 100 100 100 100 95 99 80 94 26 38 11 84 96 100 100 100 100 100 100 100 100 100 100 100 100 100 100 100 100 100 100 100 100 52 6 5 6 18 98 100
100 100 100 100 100 100 93 100 100 99 100 92 86 94 100 100 100 100 100 100 100 100 100 100 100 100 100 100 100 100 100 100 100 86 18 35 10 14 10 100 100 100 82
100 100 100 100 100 100 100 100 100 100 100 100 100 100 100 100 100 100 100 100 100 100 100 100 100 100 100 100 100 100 100 100 79 93 99 100 100 100 100 95 29 0 0
100 100 100 100 100 100 100 100 100 100 100 100 100 100 100 100 100 100 100 100 100 100 100 100 100 100 100 100 96 68 11 59 17 34 73 100 100 41 2 2 1 0 3
100 100 90 100 100 100 100 100 100 100 100 100 100 100 100 100 100 100 100 100 100 100 100 100 100 100 100 93 58 84 68 81 91 46 100 100 6 44 73 4 12 36 30
100 100 95 100 100 100 100 100 100 100 100 100 96 100 100 99 100 100 100 100 100 100 100 100 100 66 76 84 66 37 100 99 100 100 18 5 5 5 5 5 51 45 100
100 100 100 100 100 100 100 100 100 100 100 100 99 100 94 84 100 100 100 100 100 100 100 100 100 98 79 100 87 94 99 100 100 36 5 5 5 5 21 5 5 5 60
100 100 100 100 100 100 100 100 100 100 100 100 100 100 100 100 100 100 100 100 100 100 100 100 92 69 49 61 80 77 100 89 5 5 62 20 43 97 99 18 38 5 5
100 93 100 100 100 100 100 100 100 100 100 100 100 100 100 100 100 100 100 100 100 100 99 100 96 91 50 30 84 4 10 24 5 53 99 94 100 100 100 74 77 70 5
100 100 100 100 100 100 100 100 100 100 100 100 100 100 100 100 100 100 100 100 74 100 99 16 100 100 81 98 16 5 37 6 100 100 82 88 91 84 72 100 92 73 95
100 100 100 100 100 94 66 99 100 100 100 100 100 100 100 100 100 100 100 90 92 100 100 72 72 40 33 100 9 9 21 29 5 7 30 18 12 15 85 20 100 100 93
100 100 100 100 100 100 100 100 100 100 100 100 100 100 100 100 100 100 90 91 94 83 100 100 100 100 100 52 56 100 35 18 100 78 42 85 44 65 57 84 100 99 98
90 100 100 100 100 100 100 100 100 100 100 100 100 100 100 100 98 95 100 100 100 100 100 100 100 100 100 100 99 100 100 80 95 100 100 98 52 98 100 99 100 100 100
5 9 18 27 97 99 63 99 96 99 100 96 100 100 100 99 93 100 100 100 100 100 100 100 100 100 100 99 100 73 100 89 100 100 100 100 100 100 100 100 100 100 100
1 48 96 58 12 50 35 55 69 83 85 92 100 62 75 94 100 100 100 100 100 100 100 100 100 100 100 100 100 100 100 100 100 100 100 100 100 100 100 100 100 100 100
0 4 5 5 6 40 44 54 63 62 23 5 5 43 86 97 100 78 100 100 100 100 100 100 100 100 100 100 100 100 100 100 100 100 96 100 100 100 100 100 100 100 100
0 0 1 0 4 5 5 5 5 5 5 14 100 90 59 75 100 100 100 100 100 100 100 100 100 100 100 100 100 100 100 100 100 100 100 100 100 100 100 100 100 100 100
0 0 0 0 0 0 5 5 9 78 74 83 86 32 99 100 100 100 100 100 100 100 100 100 100 100 100 100 100 100 100 100 100 100 100 100 100 100 100 100 100 100 100
86 4 19 3 2 2 5 5 2 3 42 37 20 87 98 100 100 100 100 100 100 100 100 100 100 100 100 100 100 100 100 100 100 100 100 100 100 100 100 100 100 100 100
65 100 100 100 70 50 22 100 100 26 52 35 100 100 100 100 100 100 100 100 100 100 100 100 100 100 100 100 100 100 100 100 100 100 100 100 100 100 96 72 100 100 100
99 97 99 100 100 100 92 100 100 98 99 100 100 100 100 100 100 100 100 100 100 100 100 100 100 100 100 100 100 100 100 100 100 100 100 100 100 100 99 89 100 100 100
100 100 100 100 100 100 100 100 100 100 100 100 100 100 100 100 100 100 100 100 100 100 100 100 100 100 100 100 100 100 100 100 100 100 100 100 100 94 75 100 100 100 100

GFSMA_prec_cloud_072.txt.gz
Cloud_Cover
98 100 100 82 98 100 100 100 100 100 100 100 100 6 95 100 88 75 100 98 100 100 100 64 100 100 97 100 78 88 98 98 100 99 100 100 100 100 100 100 100 100 100
100 100 100 100 100 100 100 100 100 100 100 100 100 72 94 100 54 89 100 96 100 96 89 100 100 100 100 100 100 94 100 18 100 100 100 100 100 100 100 100 100 100 40
100 100 100 100 100 100 100 100 100 100 100 100 99 99 100 100 100 100 93 99 56 73 100 100 100 100 100 100 100 100 100 85 66 84 100 100 100 100 100 100 99 99 24
90 100 100 100 100 100 100 100 100 100 100 98 96 91 100 98 100 72 18 99 79 100 100 100 100 100 100 100 100 100 100 100 11 69 100 100 100 100 100 100 68 5 5
100 100 100 100 100 100 100 100 100 100 100 92 87 76 61 81 55 84 46 99 100 100 100 100 100 100 100 100 100 100 100 100 100 100 100 100 100 100 100 80 5 5 5
100 100 100 100 100 100 100 100 100 100 100 100 97 100 100 100 64 66 66 100 100 100 100 100 100 100 100 100 100 100 100 100 100 100 100 100 100 44 6 45 6 5 5
100 100 100 100 100 100 100 100 100 100 100 100 100 100 100 97 94 94 100 100 100 100 100 100 100 100 100 100 100 100 100 100 100 100 100 98 90 39 5 50 5 5 5
100 78 98 98 100 100 100 100 100 100 100 100 100 100 100 100 100 100 100 100 100 98 100 100 96 96 100 100 100 100 99 100 100 69 94 98 100 100 100 52 14 23 54
100 100 100 100 100 100 100 100 100 100 100 100 100 100 100 100 100 100 100 100 95 57 100 98 100 100 100 100 100 100 100 100 55 5 13 56 5 28 93 72 11 83 99
100 100 100 100 100 100 100 100 100 100 100 100 100 100 100 100 100 100 99 100 15 59 96 100 100 100 100 100 100 93 75 17 44 5 5 96 60 5 5 5 10 32 24
100 100 100 100 100 100 100 100 100 100 100 100 100 100 82 100 100 100 100 99 100 100 100 100 100 100 100 100 51 98 100 100 84 99 99 16 46 24 48 69 47 100 100
100 100 100 97 100 100 100 100 100 100 100 100 100 100 100 100 100 100 100 99 100 100 100 100 100 100 100 100 51 90 26 92 100 65 65 51 29 72 75 90 46 93 100
100 100 97 100 90 100 100 100 100 100 100 100 100 100 100 100 100 100 100 100 100 100 100 100 100 100 84 85 100 98 86 60 42 14 23 5 5 26 36 5 75 95 78
100 100 100 100 100 100 100 100 100 100 100 100 100 100 100 100 97 100 100 100 100 100 100 100 100 86 52 6 92 92 24 5 11 5 26 5 24 33 69 100 100 100 100
75 100 100 100 100 100 100 100 100 100 100 100 100 100 100 100 100 100 100 100 100 100 100 99 7 63 36 56 96 100 100 100 97 100 100 100 49 82 100 100 100 100 100
100 100 100 100 100 100 100 100 100 96 100 100 100 100 100 100 100 100 100 100 100 76 86 100 92 76 96 100 74 100 100 100 100 100 100 100 75 100 100 100 100 100 100
22 80 100 100 100 100 100 100 100 100 100 100 100 100 100 100 100 100 100 100 100 70 100 84 100 100 100 100 100 100 100 100 100 100 100 100 100 100 100 100 100 100 100
37 7 1 6 68 100 100 100 100 100 100 100 100 100 100 100 100 100 100 87 94 99 100 100 100 100 100 100 100 100 100 100 100 100 100 100 100 100 100 100 100 100 100
0 0 1 4 5 3 4 47 88 86 92 73 64 40 75 95 100 86 100 99 93 100 100 100 100 100 100 100 99 98 100 100 100 100 100 100 100 100 100 100 100 100 100
28 1 0 0 1 5 5 5 5 13 45 14 66 56 78 89 42 100 100 99 100 100 100 100 100 100 100 100 96 100 100 100 100 100 100 100 100 100 100 100 100 100 100
9 76 4 1 0 0 0 1 4 5 5 5 47 5 5 5 55 100 95 100 100 100 100 100 100 100 100 100 100 100 100 100 100 100 100 100 100 100 100 100 100 100 100
26 100 100 96 18 4 0 5 5 4 5 5 5 47 25 21 18 13 100 100 100 100 100 100 100 100 100 100 100 100 100 100 100 100 100 100 100 100 100 100 100 100 100
6 19 21 5 21 100 100 100 100 88 10 13 48 93 88 34 19 100 98 100 100 100 100 100 100 100 100 100 100 100 100 100 100 100 100 100 100 100 100 100 100 100 100
88 100 99 79 46 73 61 100 100 100 100 97 73 93 87 88 100 99 100 100 100 100 100 100 100 100 100 100 100 100 100 100 100 100 100 100 100 100 100 100 100 100 100
81 45 67 92 100 100 100 100 100 100 100 100 100 100 100 100 100 100 100 100 100 100 100 100 100 100 100 100 100 100 100 100 100 100 100 100 100 100 100 100 100 100 100
100 84 100 100 100 100 100 100 100 100 100 100 100 100 100 100 100 100 100 100 100 100 100 100 100 100 100 100 100 100 100 100 100 100 100 100 100 100 100 100 100 100 100

GFSMA_prec_cloud_075.txt.gz
Cloud_Cover
100 100 100 98 74 18 100 100 66 100 100 100 100 100 100 100 100 100 100 100 100 35 100 100 62 99 95 100 100 100 100 78 100 100 100 100 100 92 100 70 27 100 58
100 100 85 97 63 17 69 59 79 98 100 100 100 100 100 100 100 98 98 94 87 96 100 100 91 65 100 100 100 100 100 100 100 100 100 95 98 100 100 100 100 100 100
100 100 100 82 56 61 93 98 98 100 100 100 100 100 100 100 95 100 99 100 100 97 98 100 100 100 100 100 100 100 100 100 100 100 100 100 100 100 100 100 100 100 100
100 100 100 98 61 86 99 100 100 100 100 100 100 100 100 57 97 74 100 100 77 93 96 98 98 100 100 100 100 100 100 98 100 100 100 100 100 100 100 100 100 100 100
100 100 93 100 100 100 100 100 100 100 100 100 100 100 100 96 98 98 100 100 86 91 100 100 100 100 100 100 100 100 100 100 100 100 100 100 100 100 100 100 100 89 5
100 100 100 100 100 94 99 84 100 100 100 100 100 100 100 100 100 96 100 99 56 38 76 100 100 100 100 100 100 100 100 100 100 100 100 100 100 100 100 100 24 100 8
100 100 100 100 60 100 100 100 100 100 100 100 100 100 100 100 97 100 99 24 100 98 48 100 100 100 100 100 91 100 100 100 100 100 100 100 100 100 100 98 5 5 5
100 100 100 100 100 100 99 97 100 100 100 100 100 100 100 100 93 40 88 99 98 100 100 100 100 100 100 61 50 100 100 100 100 100 100 100 100 96 5 3 5 8 84
100 100 100 100 100 100 100 100 100 100 100 100 100 100 100 99 78 100 88 100 100 100 100 100 100 100 98 71 93 100 100 100 100 100 100 100 36 18 21 10 5 6 22
100 100 100 100 100 100 100 100 100 100 100 100 100 100 100 100 100 100 100 100 100 100 100 100 100 100 51 100 100 100 100 100 100 100 72 32 41 99 99 73 13 41 16
100 100 100 100 100 100 100 100 100 100 100 100 100 100 100 100 100 100 100 100 100 100 100 100 100 95 100 100 100 100 100 100 84 18 80 49 100 61 76 7 46 7 5
100 100 100 100 100 100 100 100 100 94 96 100 100 100 100 100 100 100 100 100 100 100 100 100 99 76 100 100 100 100 72 78 42 40 72 91 30 7 6 66 15 42 86
100 100 100 100 100 100 100 100 100 100 99 100 100 100 100 100 100 100 100 100 100 100 100 100 100 100 100 100 100 100 98 84 76 100 94 40 40 72 76 26 50 33 90
100 100 100 98 100 100 100 100 100 100 97 100 100 100 100 100 100 100 100 100 100 100 100 100 100 100 100 100 99 98 12 70 84 100 98 100 93 100 98 100 96 92 70
100 100 100 100 100 100 100 100 100 100 100 100 100 100 100 100 100 100 100 100 100 100 100 100 100 100 100 100 91 8 19 98 100 100 100 100 100 100 100 52 52 35 10
100 98 100 100 100 100 100 100 100 100 100 100 100 100 100 100 100 100 100 100 98 100 100 100 100 100 100 14 40 73 96 100 100 100 100 100 100 99 100 100 100 91 100
100 92 100 98 100 100 100 100 100 100 100 100 100 100 100 100 100 100 100 100 100 100 100 100 100 97 31 6 32 86 100 100 100 100 100 100 100 100 100 100 100 100 95
0 1 2 1 5 37 100 100 100 100 92 84 96 100 100 100 100 100 100 100 100 100 28 46 68 8 18 31 63 98 100 100 100 100 100 100 100 100 100 100 100 100 100
0 0 0 0 0 1 4 5 5 38 96 100 100 100 100 100 100 100 100 100 48 95 45 97 98 100 100 100 93 100 100 100 100 100 100 100 100 100 100 100 100 100 100
1 0 4 3 5 0 0 0 4 4 5 5 5 10 27 37 52 28 8 62 95 94 84 100 99 100 100 99 100 100 100 100 100 100 100 100 100 100 100 100 100 100 100
40 0 0 2 29 35 5 0 0 0 0 0 1 2 5 18 98 100 59 68 87 88 100 100 100 100 100 100 100 100 100 100 100 100 100 100 100 100 100 100 100 100 100
18 47 21 6 1 0 0 1 4 5 14 100 100 100 51 7 4 74 69 68 100 100 100 95 100 100 100 100 100 100 100 100 100 100 100 100 100 100 100 100 100 100 100
1 4 23 39 71 52 9 6 5 9 2 3 4 18 70 100 100 100 100 100 100 100 100 100 100 100 100 100 100 100 100 100 100 100 100 100 100 100 100 100 100 100 100
5 28 14 96 96 59 60 71 95 100 100 94 96 98 98 100 100 100 100 100 100 100 100 100 100 100 100 100 100 100 100 100 100 100 100 100 100 100 100 100 100 100 100
5 14 100 96 64 97 100 98 80 100 100 100 100 100 100 100 100 100 100 100 100 100 100 100 100 100 100 100 100 100 100 100 100 100 100 100 100 100 100 100 100 100 100
100 94 92 62 99 100 100 100 100 100 100 100 100 100 100 100 100 100 100 100 100 100 100 100 100 100 100 100 100 100 100 100 100 100 100 100 100 100 100 100 100 100 100

GFSMA_prec_cloud_078.txt.gz
Cloud_Cover
100 100 100 99 100 100 100 79 60 84 99 100 100 100 100 100 100 100 100 100 100 100 100 86 95 10 17 73 88 100 100 65 99 100 98 77 86 100 22 28 55 100 99
100 100 100 100 100 99 97 94 99 82 100 100 100 100 100 100 100 100 100 100 100 100 96 43 95 100 55 98 100 99 89 87 100 100 100 100 100 94 60 88 91 47 100
100 100 100 100 100 86 80 73 79 93 100 100 100 99 100 100 100 100 100 100 100 98 26 100 100 92 96 98 99 100 86 68 100 100 100 100 89 100 100 98 90 100 100
100 100 100 100 100 100 94 14 99 97 75 100 100 100 100 100 100 100 100 100 100 100 97 100 100 31 87 100 79 100 100 100 100 100 100 100 100 97 100 100 100 100 100
100 100 100 97 100 99 100 100 93 99 98 100 100 100 100 100 100 98 100 88 100 99 100 100 98 98 65 100 99 100 100 100 100 100 100 100 100 100 100 100 100 100 100
100 100 100 100 100 100 100 98 99 100 90 100 100 100 100 100 100 72 85 100 100 83 100 100 91 100 100 100 100 100 100 100 100 100 100 100 100 100 100 100 100 100 61
100 100 100 100 100 100 100 100 97 100 100 100 100 100 100 100 97 91 100 100 100 98 100 100 99 100 89 100 100 100 100 100 100 100 100 100 100 100 100 100 100 80 5
100 100 100 100 100 100 100 100 100 100 100 100 100 100 100 100 100 100 98 99 99 100 100 100 100 100 100 100 100 100 93 82 82 100 100 100 100 100 100 100 38 7 18
100 100 100 100 100 100 100 100 100 100 100 100 100 100 100 100 100 100 100 95 70 100 100 100 100 100 100 100 100 100 86 91 100 100 100 100 100 100 99 72 38 5 9
100 100 100 100 100 100 100 100 100 97 79 78 86 100 100 100 100 97 100 100 100 100 87 98 100 100 100 100 100 100 27 42 94 100 94 100 97 97 97 99 93 38 13
100 100 100 100 100 100 100 100 100 100 83 100 100 100 100 100 100 100 100 100 100 100 100 100 100 100 100 100 100 100 48 100 100 100 100 100 100 73 7 5 100 71 19
100 100 100 100 100 100 100 100 100 100 96 95 100 100 100 100 100 100 100 100 99 100 100 100 100 100 100 100 100 100 100 100 100 100 6 98 62 50 12 5 32 50 72
100 100 100 100 100 100 100 100 100 100 92 96 100 100 100 99 100 100 100 100 100 100 100 100 100 100 100 100 100 100 100 100 100 79 14 20 58 97 64 35 97 98 98
100 100 100 100 100 100 100 99 100 100 100 100 100 86 94 100 100 100 100 100 100 100 100 100 100 100 100 100 100 100 100 100 100 98 20 27 38 100 73 100 100 100 100
54 100 100 100 100 100 100 100 99 96 91 97 99 100 100 100 100 100 100 100 100 100 100 100 100 100 74 67 100 100 100 100 100 68 98 100 90 96 100 100 100 80 56
78 79 100 100 100 100 100 100 100 99 100 100 100 100 100 100 100 100 100 100 100 99 100 100 100 100 100 100 100 100 98 100 84 78 93 100 100 100 100 100 100 100 100
100 100 100 100 100 100 100 100 100 100 100 100 98 100 100 100 100 100 100 100 100 100 100 100 100 100 100 100 96 32 38 30 11 5 22 100 100 100 100 100 100 100 100
8 22 98 100 100 100 100 100 100 100 91 99 100 100 95 82 100 95 54 100 100 100 100 100 100 100 100 73 14 6 5 7 97 100 100 100 100 100 100 100 100 100 100
58 14 20 0 0 5 47 31 64 94 83 35 9 16 81 100 100 100 100 100 100 100 99 95 97 78 44 50 13 27 91 89 98 100 100 93 100 100 100 100 100 100 100
100 100 42 32 1 9 1 14 25 15 16 10 5 5 5 14 5 9 18 10 30 55 5 56 71 60 51 75 94 99 87 89 71 99 100 100 100 100 100 100 100 100 100
100 100 100 89 28 0 0 0 1 4 1 1 2 1 4 1 56 97 37 5 5 63 57 11 94 100 100 100 100 100 100 100 100 100 100 100 100 100 100 100 100 100 100
19 99 100 100 36 19 17 0 0 4 1 0 0 0 0 2 38 11 5 5 5 7 6 29 79 100 94 100 100 100 100 100 100 100 100 100 100 100 100 100 100 100 100
20 15 8 7 19 6 5 5 17 58 13 4 12 10 5 5 5 5 5 6 20 30 66 81 100 100 100 100 100 100 100 100 100 100 100 100 100 100 100 100 100 100 100
92 98 97 42 16 9 6 56 83 29 80 86 100 85 84 43 46 45 80 38 83 100 100 100 100 100 100 100 100 100 100 100 100 100 100 100 100 100 100 100 100 100 100
98 100 100 100 80 100 99 96 93 100 100 100 100 100 100 100 100 100 100 100 100 100 100 100 100 100 100 100 100 100 100 100 100 100 100 100 100 100 100 100 100 100 100
100 100 100 100 100 100 100 100 100 100 100 100 89 100 100 100 100 100 100 100 100 100 100 100 100 100 100 100 100 100 100 100 100 100 100 100 99 100 100 100 100 100 100

GFSMA_prec_cloud_081.txt.gz
Cloud_Cover
100 100 100 100 44 14 22 73 100 100 100 94 80 100 100 100 100 100 100 100 100 100 100 100 84 90 89 75 42 60 92 88 100 100 100 100 100 100 100 100 79 100 83
100 100 100 100 100 55 99 99 97 100 100 56 26 100 98 100 100 100 100 100 100 100 100 100 84 100 65 97 99 98 45 89 94 93 100 100 85 100 100 100 74 94 100
100 100 100 100 100 100 100 100 100 100 100 84 98 100 100 100 100 100 100 100 100 100 99 96 100 88 98 100 94 25 65 91 98 84 71 97 100 100 97 71 99 100 100
100 100 100 100 100 100 100 100 100 100 97 60 100 100 100 100 100 100 100 100 100 100 100 100 100 100 93 48 88 52 97 100 88 98 95 27 52 81 77 90 100 100 50
100 100 100 100 100 100 100 83 100 98 100 100 98 94 99 100 100 100 100 100 100 100 98 100 100 96 72 100 85 100 100 100 80 95 91 48 14 100 100 100 67 80 100
100 100 100 100 100 94 100 100 95 100 100 75 94 100 75 99 100 100 100 100 100 99 100 100 100 87 88 96 100 98 100 100 87 99 100 96 42 61 100 93 91 100 100
100 100 100 100 100 100 100 100 100 99 85 95 100 95 100 100 100 100 100 100 100 100 100 100 100 96 94 100 64 84 100 100 100 100 100 99 38 42 100 98 100 100 14
100 100 100 100 100 100 100 100 98 85 77 100 100 100 100 100 100 100 100 100 100 100 100 100 100 100 98 98 24 79 99 100 100 100 100 94 100 100 100 100 94 17 90
100 100 100 100 100 100 100 100 100 100 97 100 99 100 93 100 100 100 100 100 100 100 95 100 100 100 98 98 30 89 100 100 100 100 100 100 100 88 98 100 100 100 100
100 100 100 100 100 100 100 100 100 100 100 100 100 100 100 100 100 100 100 100 100 100 100 96 100 100 100 100 95 100 100 100 100 100 100 100 99 94 39 70 100 100 94
100 100 100 100 100 100 100 100 100 100 100 100 95 100 100 100 100 100 100 100 100 100 100 100 100 100 100 100 100 100 100 100 100 100 100 100 100 100 100 83 100 100 6
100 100 100 100 100 100 100 100 100 100 95 97 100 100 99 100 100 100 100 100 100 100 100 100 100 100 100 100 100 100 97 100 100 100 100 100 100 94 100 37 85 57 60
100 100 100 100 100 100 100 100 100 100 100 100 100 100 100 100 100 100 100 100 100 100 91 93 100 100 100 100 100 100 100 100 100 100 100 100 100 100 17 29 83 30 99
100 100 100 100 100 100 100 100 100 100 100 100 100 100 100 100 100 100 100 100 100 93 93 100 100 100 100 100 100 100 100 100 100 100 100 100 98 100 29 17 62 97 100
100 100 100 100 100 100 100 100 100 100 100 100 100 100 100 100 100 100 100 100 100 100 100 100 100 100 100 100 100 100 100 100 100 100 100 100 100 100 100 48 31 41 100
100 100 100 100 100 100 100 100 100 100 100 100 100 100 100 100 100 100 100 100 100 100 100 100 100 100 100 100 100 100 100 100 100 100 100 81 80 79 71 42 100 100 91
100 100 100 100 100 100 100 100 100 100 100 100 100 100 100 100 100 100 100 100 100 100 100 100 100 100 100 100 100 100 100 100 100 94 21 29 98 98 100 73 50 86 98
78 100 100 100 100 100 100 100 100 100 100 100 100 100 100 100 100 100 100 100 100 100 100 100 100 100 100 100 100 100 99 55 24 17 86 98 100 62 100 100 100 33 99
0 0 4 8 16 50 68 47 35 87 98 98 100 100 99 100 100 100 100 100 100 100 100 100 100 100 100 88 5 7 20 74 30 100 96 90 96 100 100 100 100 100 100
89 15 5 0 0 0 0 0 2 4 5 5 17 82 98 98 36 22 41 36 45 100 100 100 100 100 94 33 57 86 68 96 99 87 75 62 69 100 100 100 93 100 100
93 100 100 98 76 32 4 14 17 0 1 22 33 33 28 5 5 5 28 17 5 33 53 96 100 100 96 100 100 96 94 100 100 100 100 100 100 100 100 100 100 100 100
1 5 68 99 100 100 100 81 68 81 75 4 4 3 16 59 34 55 62 47 70 66 62 48 64 99 86 88 31 75 83 99 100 100 100 100 100 100 100 100 100 100 100
59 72 42 20 16 27 53 89 98 71 35 39 5 4 5 5 10 8 7 19 24 16 50 58 81 90 87 71 100 100 100 100 100 100 100 100 100 100 100 100 100 100 100
100 100 100 100 100 100 100 100 94 100 89 48 30 20 54 76 90 100 100 100 100 100 100 100 100 100 100 100 100 100 100 100 100 100 100 100 100 100 100 100 100 100 100
100 100 100 100 100 100 100 100 100 100 100 100 100 100 100 100 100 100 100 100 100 100 100 100 100 100 100 100 100 100 100 100 100 100 100 100 100 100 100 100 100 100 100
100 100 100 100 100 100 100 100 100 100 100 100 100 100 100 100 100 100 100 100 100 100 100 100 100 100 100 100 100 100 100 100 100 100 100 100 100 100 100 100 100 100 100

GFSMA_prec_cloud_087.txt.gz
Cloud_Cover
100 100 100 100 100 100 100 100 90 100 100 62 100 73 44 74 100 100 100 100 98 100 100 100 100 100 100 100 100 75 99 100 92 52 99 50 87 100 57 58 100 100 100
100 100 100 100 100 100 100 100 100 100 92 74 95 68 100 97 100 100 100 100 100 100 100 100 100 100 100 100 100 100 82 100 73 96 100 84 28 48 99 100 100 100 100
100 100 100 100 100 100 100 100 100 100 97 79 87 100 95 98 100 100 98 97 100 100 100 100 100 100 100 100 100 100 100 61 28 90 82 100 100 12 80 88 100 100 100
100 100 100 100 100 100 100 100 100 100 100 100 92 92 96 99 82 100 86 54 96 100 100 100 100 100 100 100 100 100 62 100 100 100 100 100 100 93 100 96 100 100 100
100 100 100 100 100 100 100 100 100 100 100 100 97 82 89 99 79 14 100 66 100 100 100 100 100 100 100 100 100 100 65 100 100 99 100 100 100 100 100 100 100 100 100
100 100 100 100 100 100 100 100 100 94 100 100 96 100 100 72 99 20 75 93 100 100 97 100 100 100 100 100 99 100 94 100 96 89 100 100 100 100 100 100 100 100 94
100 100 100 100 100 100 100 100 100 96 100 100 100 83 75 68 100 98 100 100 100 100 95 100 100 100 100 100 100 100 100 100 100 92 100 100 100 100 100 100 96 49 100
100 100 100 100 100 100 100 100 100 100 100 100 53 73 97 89 93 97 89 100 97 97 100 93 100 100 100 100 100 100 100 100 100 100 100 100 100 100 100 100 43 93 93
100 100 100 100 100 100 100 100 100 100 100 100 100 72 97 92 100 100 100 97 99 98 100 100 100 100 100 100 100 100 100 100 100 100 100 100 100 100 100 100 100 100 100
100 100 100 100 100 100 100 100 100 100 100 100 66 68 100 100 60 71 15 99 76 100 100 100 100 100 100 100 100 100 100 100 100 100 100 100 100 100 100 100 100 100 100
100 100 100 100 100 100 100 100 100 100 100 100 100 100 100 85 96 100 100 100 100 100 100 100 100 100 100 100 100 100 100 100 100 100 100 100 100 100 100 100 100 53 86
100 100 100 100 100 100 100 100 100 100 100 100 100 97 100 78 100 98 100 100 100 100 100 100 100 100 100 100 100 100 100 100 100 100 100 100 100 100 100 100 100 100 100
100 100 100 100 100 100 100 100 100 100 100 100 100 100 100 100 100 100 100 100 100 100 100 100 100 100 100 100 100 100 100 100 100 100 100 100 100 100 100 99 100 100 100
100 100 100 100 100 100 100 100 100 100 100 100 100 100 100 100 100 100 100 100 100 100 100 100 100 100 100 100 100 100 100 100 100 100 100 100 100 100 100 100 100 100 100
100 100 100 100 100 100 100 100 100 100 100 100 100 100 100 100 100 100 100 100 100 100 100 100 100 100 100 100 100 100 100 100 100 100 100 100 100 100 100 100 100 100 86
100 100 100 100 100 100 100 100 100 100 100 100 100 100 100 100 100 100 100 100 100 100 99 100 100 100 100 100 100 100 100 100 100 100 100 93 100 100 100 100 100 100 68
100 100 100 100 100 100 100 100 100 100 100 100 100 100 100 100 100 100 100 100 100 100 100 100 100 100 100 100 100 100 100 100 100 100 100 100 100 100 100 98 100 100 5
100 100 100 100 100 100 100 100 100 100 100 100 100 100 100 100 100 100 100 100 100 100 100 100 100 88 44 66 77 100 100 100 80 98 100 100 100 97 100 100 93 99 100
100 100 100 100 100 100 100 100 100 100 100 100 100 100 100 100 100 100 100 100 97 100 100 100 57 40 36 26 12 14 5 6 23 74 99 98 92 92 100 100 100 100 100
100 100 100 100 100 100 100 100 100 100 100 100 100 100 100 100 100 100 100 100 99 95 97 100 100 100 97 54 78 73 68 96 92 18 60 100 96 99 58 93 100 81 89
100 100 74 43 44 62 59 79 98 100 100 100 100 100 100 39 58 31 75 36 79 94 96 100 100 95 61 84 99 100 96 100 100 94 36 100 71 83 91 95 99 100 100
60 76 93 71 100 100 100 100 100 100 100 100 100 97 100 90 68 89 100 100 100 100 100 100 100 100 100 100 100 100 100 100 100 100 100 100 100 100 100 100 100 100 100
100 100 100 100 100 100 100 98 93 80 96 100 100 100 100 100 100 100 98 100 100 100 100 100 100 100 100 100 100 100 100 100 100 100 100 100 100 100 100 100 100 100 100
100 100 100 100 100 100 100 100 94 100 100 100 100 100 100 100 100 100 100 100 100 100 100 100 100 100 100 100 100 100 100 100 100 100 100 100 100 100 100 100 100 100 100
100 100 100 100 100 100 100 100 100 100 100 100 100 100 100 100 100 100 100 100 100 100 100 100 100 100 100 100 97 100 100 100 100 100 100 100 100 100 100 100 100 100 100
100 100 100 100 100 100 100 100 100 100 100 100 100 100 100 100 100 100 100 100 100 100 100 100 100 100 100 100 100 100 100 100 100 100 100 100 100 100 100 100 100 100 100

GFSMA_prec_cloud_090.txt.gz
Cloud_Cover
100 100 100 100 100 100 100 100 100 100 100 100 92 89 100 77 100 100 99 100 100 100 100 100 100 100 100 98 100 100 100 100 100 100 21 72 32 38 100 100 100 95 66
100 100 100 100 100 100 100 100 100 100 100 100 95 100 100 100 100 96 93 99 100 100 100 100 100 100 100 100 100 100 100 100 100 100 88 38 79 97 100 100 99 100 79
100 100 100 100 100 100 100 100 100 100 100 100 100 100 100 100 89 85 100 100 100 100 100 98 100 100 100 100 100 100 100 100 100 100 100 62 100 94 99 100 72 100 100
100 100 100 100 100 100 100 100 100 100 100 100 100 100 100 100 78 100 100 100 100 100 91 100 100 100 100 100 100 100 100 100 100 100 100 94 100 97 100 100 100 100 100
100 100 100 100 100 100 100 100 100 100 100 100 100 100 99 92 100 85 93 100 99 99 92 100 100 100 100 100 100 100 100 80 93 90 81 100 100 97 100 100 100 100 100
100 100 100 100 100 100 100 100 100 100 100 100 100 91 70 62 54 100 98 100 100 100 91 98 100 98 100 100 100 100 100 100 100 100 100 100 100 100 100 100 100 100 100
100 100 100 100 100 100 100 100 100 100 100 100 100 100 100 100 100 100 100 100 100 100 100 88 90 79 100 100 100 100 100 100 100 100 100 100 100 100 100 100 100 100 100
100 100 100 100 100 100 100 100 100 100 100 100 92 100 100 100 100 100 96 87 100 93 78 55 78 60 87 100 100 100 100 100 100 100 100 100 100 100 100 100 100 100 100
100 100 100 100 100 100 100 100 100 100 100 100 100 100 100 100 100 100 100 100 75 42 82 99 100 88 83 100 100 100 100 100 100 100 100 100 100 100 100 100 100 100 100
100 100 100 100 100 100 100 100 100 100 100 100 100 100 100 100 100 65 100 89 51 24 56 5 59 50 91 100 100 100 100 100 100 100 100 100 100 100 100 100 100 100 100
100 100 100 100 100 100 100 100 100 100 100 100 100 100 100 98 100 85 97 74 100 98 85 30 64 97 100 100 100 100 100 100 100 100 100 100 100 100 100 100 100 100 100
100 100 100 100 100 100 100 100 100 100 100 100 100 100 100 98 100 100 89 83 96 82 75 98 100 100 100 100 100 100 100 100 100 100 100 100 100 100 100 100 100 100 100
100 100 100 100 100 100 100 100 100 100 100 100 100 100 100 100 100 100 92 77 95 99 100 100 100 100 100 100 100 100 100 100 100 100 100 100 100 100 100 100 100 100 100
100 100 100 100 100 100 100 100 100 100 100 100 100 100 100 100 100 100 100 90 100 100 100 100 100 100 100 100 100 100 100 100 100 100 100 100 100 100 100 100 51 15 10
100 100 100 100 100 100 100 100 100 100 100 100 100 100 100 100 100 100 100 100 100 100 100 100 100 100 100 100 100 100 100 100 100 100 100 100 100 100 100 100 68 82 81
100 100 100 100 100 100 100 100 100 100 100 100 100 100 100 100 100 100 100 100 100 100 100 100 100 100 100 100 100 100 100 100 100 100 100 94 59 72 92 63 85 98 100
100 100 100 100 100 100 100 100 100 100 100 100 100 100 100 100 100 100 100 100 100 100 100 100 100 100 100 100 100 100 100 100 100 100 100 100 98 80 100 100 100 100 100
100 100 100 100 100 100 100 100 100 100 100 100 100 100 100 100 100 100 100 100 100 100 100 100 100 100 100 100 100 98 25 86 44 94 100 100 100 100 100 100 100 88 100
100 100 100 100 100 100 100 100 100 100 100 100 100 100 100 100 100 100 100 100 100 100 100 100 100 100 69 31 24 11 6 14 78 47 5 16 83 99 100 99 92 8 5
100 100 100 100 100 100 100 100 100 100 100 100 100 100 100 100 100 100 100 100 100 100 100 100 100 86 68 5 25 5 7 11 11 60 100 97 87 74 96 89 63 74 82
100 100 100 100 100 100 100 100 100 100 100 100 100 100 100 100 100 100 100 100 100 100 100 100 100 65 25 22 92 100 100 96 69 100 100 100 100 100 100 100 100 100 100
100 100 100 100 100 100 100 100 100 100 100 100 100 100 100 100 100 100 100 100 94 85 100 100 100 100 100 100 100 100 100 100 100 100 100 100 100 100 100 100 100 100 100
93 100 100 100 100 100 100 100 100 100 100 100 100 100 100 100 100 100 100 100 100 100 100 100 100 100 100 100 100 100 100 100 100 100 100 100 100 100 100 100 100 100 100
100 100 100 100 100 100 99 99 95 100 100 100 100 100 100 100 100 100 100 100 100 100 100 100 100 100 100 100 100 100 100 100 100 100 100 100 100 100 100 100 100 100 100
100 100 100 100 100 100 100 100 100 100 100 100 100 100 100 100 100 100 100 100 100 100 100 100 100 100 100 100 100 100 100 100 100 100 100 100 100 100 100 100 100 100 100
100 100 100 100 100 100 100 100 100 100 100 100 100 100 100 100 100 100 100 100 100 100 100 100 100 100 90 100 99 100 100 100 100 100 100 100 100 100 100 100 100 100 100

GFSMA_prec_cloud_093.txt.gz
Cloud_Cover
27 88 95 100 83 100 100 100 100 100 100 100 100 100 100 100 100 98 85 73 99 100 100 100 100 100 100 100 100 100 100 100 100 100 100 100 100 22 49 100 99 100 17
77 39 100 100 100 100 100 100 100 100 100 100 100 100 100 100 100 100 94 24 100 100 100 100 100 100 92 100 99 97 100 100 100 100 100 100 100 70 90 72 80 43 22
60 36 100 100 100 100 100 100 100 100 100 100 100 100 100 100 100 100 84 100 98 100 100 100 100 100 98 100 100 100 93 100 100 100 100 100 100 100 100 87 91 18 87
43 99 100 100 100 100 100 100 100 100 100 100 100 100 100 100 100 100 99 100 100 92 70 100 100 100 100 100 97 98 100 100 100 100 100 100 100 100 100 100 91 44 66
85 92 100 99 100 100 100 100 100 100 100 100 100 100 100 100 100 91 100 100 100 97 100 100 98 100 100 100 100 100 100 100 100 100 100 100 97 99 100 100 100 100 90
100 91 100 100 100 100 100 100 100 100 100 100 100 100 100 100 100 88 96 95 100 100 100 100 18 98 100 99 100 100 100 100 100 100 100 100 100 100 100 100 100 100 100
100 98 100 100 100 100 100 100 100 100 100 100 100 100 100 100 100 100 98 100 77 89 88 100 93 71 100 82 100 100 100 100 100 100 100 100 100 100 100 100 100 100 100
100 100 100 100 100 100 100 100 100 100 100 100 100 100 100 100 99 98 97 100 100 100 100 100 100 70 33 68 96 96 100 100 100 100 100 100 100 100 100 100 100 100 100
92 100 100 100 100 100 100 100 100 100 100 100 100 100 100 100 100 99 100 100 100 100 100 100 90 87 32 85 93 91 100 100 100 100 100 100 100 100 100 100 100 100 100
100 100 100 100 100 100 100 100 100 100 100 100 100 100 100 100 100 100 100 100 100 100 100 100 86 90 62 61 92 100 98 100 100 100 100 100 100 100 100 100 100 100 100
100 100 100 100 100 100 100 100 100 100 100 100 100 100 100 100 100 100 100 100 100 59 100 100 96 81 75 88 78 99 100 100 100 100 100 100 100 100 100 100 100 100 100
100 100 100 100 100 100 100 100 100 100 100 100 100 100 100 100 100 100 100 100 100 86 100 85 55 83 85 100 100 100 100 100 100 100 100 100 100 100 100 100 100 100 100
100 100 100 100 100 100 100 100 100 100 100 100 100 100 100 100 100 100 100 100 100 100 72 91 94 98 100 100 100 100 100 100 100 100 100 100 100 100 100 100 100 100 100
100 100 100 100 100 100 100 100 100 100 100 100 100 100 100 100 100 100 100 100 100 100 100 100 79 82 100 100 100 100 100 100 100 100 100 100 100 100 100 100 100 100 100
100 100 100 100 100 100 100 100 100 100 100 100 100 100 100 100 100 100 100 100 100 94 100 100 67 100 100 100 100 100 100 100 100 100 100 100 100 100 100 100 100 100 100
100 100 100 100 100 100 100 100 100 100 100 100 100 100 100 100 100 100 100 100 100 100 99 100 100 100 100 100 100 100 100 100 100 100 100 100 100 99 100 97 63 84 78
100 100 100 100 100 100 100 100 100 100 100 100 100 100 100 100 100 98 100 88 99 100 100 99 100 100 100 100 100 100 100 100 100 100 100 100 78 91 37 24 59 93 100
100 100 100 100 100 100 100 100 100 100 100 100 100 100 100 100 100 99 100 100 100 100 100 100 100 100 100 100 100 100 100 100 100 95 100 100 100 98 98 99 100 65 72
100 100 100 100 100 100 100 100 100 100 100 100 100 100 99 100 100 100 100 100 100 100 100 100 100 100 100 100 100 100 100 91 25 83 66 28 89 97 100 100 94 73 67
100 100 100 100 100 100 100 100 100 100 100 100 100 100 91 100 100 100 100 100 100 100 100 100 100 100 100 100 100 93 21 35 5 23 71 100 100 100 100 100 100 97 98
100 100 100 100 100 100 100 100 100 100 100 100 100 100 100 100 100 100 100 100 100 100 100 100 100 100 100 100 59 64 86 92 98 98 100 100 100 100 100 100 100 100 100
100 100 100 100 100 100 100 100 100 100 100 100 100 100 100 100 100 100 100 100 100 100 100 100 100 100 100 100 100 100 100 100 100 100 100 100 100 100 100 100 100 100 100
100 100 100 100 100 100 100 100 100 100 100 100 100 100 100 100 100 100 100 100 100 100 100 100 100 100 100 100 100 100 100 100 100 100 100 100 100 100 100 100 100 100 100
100 100 100 100 100 100 100 100 100 100 100 100 100 100 100 100 100 100 100 100 100 100 100 100 100 100 100 100 100 100 100 100 100 100 100 100 100 100 100 100 100 100 100
100 100 100 100 100 100 100 100 100 100 100 100 100 100 100 100 100 100 100 100 100 100 100 100 100 100 100 100 100 100 96 100 100 100 100 100 100 79 65 100 100 100 100
100 100 100 100 100 100 100 100 100 100 100 100 100 100 100 100 100 100 100 100 100 100 100 100 100 100 80 96 38 100 100 100 100 100 100 100 100 100 100 93 100 100 100

GFSMA_prec_cloud_096.txt.gz
Cloud_Cover
0 0 40 23 90 100 100 100 100 100 100 100 100 100 94 100 100 100 100 100 95 100 100 100 100 100 100 100 100 100 100 100 100 14 95 100 100 100 100 100 93 99 99
0 0 47 100 45 100 100 100 100 100 100 100 100 100 100 100 100 100 100 100 96 100 99 100 100 100 100 100 99 100 100 100 100 96 100 100 100 100 100 100 100 100 68
0 0 28 39 13 73 100 100 100 100 100 100 100 100 100 100 100 100 92 93 100 100 100 100 100 97 92 100 100 100 100 54 92 100 100 100 100 100 100 100 100 100 100
0 17 44 94 48 59 100 100 100 100 100 100 100 100 100 100 100 100 100 58 60 100 100 100 100 96 96 100 100 100 100 100 93 100 100 100 100 100 100 100 100 100 100
0 0 20 8 67 100 92 100 100 100 100 100 100 100 100 100 100 100 100 100 93 100 100 100 100 90 100 100 100 100 100 94 100 100 100 100 100 100 100 100 100 100 100
43 100 51 41 34 95 100 100 100 100 100 100 100 100 100 100 100 100 100 100 100 100 100 100 100 100 100 74 96 100 100 100 100 100 100 100 100 100 100 100 100 100 100
100 100 100 55 87 100 100 100 100 100 100 100 100 100 100 100 100 100 100 100 100 89 100 100 100 100 100 52 28 56 84 100 100 100 100 100 100 100 100 100 100 100 100
100 100 83 66 100 100 100 100 100 100 100 100 100 100 100 100 100 100 100 100 100 93 96 100 100 100 96 100 100 45 100 98 100 100 100 100 100 100 100 100 100 100 100
100 100 100 100 100 100 100 100 100 100 100 100 100 100 100 100 100 100 100 94 98 100 100 100 100 100 99 77 62 100 100 90 100 99 100 100 100 100 100 100 100 100 100
50 59 96 100 100 100 100 100 100 100 100 100 100 100 100 100 100 100 100 100 99 100 100 100 100 100 90 51 93 100 95 98 78 99 100 100 100 100 100 100 100 99 100
100 95 94 100 100 100 100 100 100 100 100 100 100 100 100 100 100 100 100 100 100 100 100 100 97 100 100 99 92 82 14 79 80 100 100 100 100 100 100 99 100 98 100
37 100 100 100 100 100 100 100 100 100 100 100 100 100 100 100 100 100 100 100 100 100 100 100 100 96 100 100 95 99 100 99 99 95 95 100 99 100 100 100 99 92 91
98 100 100 100 100 100 100 100 100 100 100 100 100 100 100 100 100 100 100 100 100 100 100 100 100 98 92 100 97 96 92 100 100 100 100 100 100 100 97 85 88 100 100
100 100 100 100 100 100 100 100 100 100 100 100 100 100 100 100 100 100 100 100 100 100 100 100 100 100 88 78 100 99 96 100 60 86 100 100 92 97 100 100 100 100 100
100 100 100 100 100 100 100 100 100 100 100 100 100 100 100 100 100 100 100 100 100 100 100 100 100 96 99 100 100 100 100 100 96 100 100 100 100 100 100 100 100 100 61
100 100 100 100 100 100 100 100 100 100 100 100 100 100 100 100 100 100 100 100 100 100 100 100 100 100 88 100 98 95 97 100 100 100 100 100 100 100 100 100 100 100 99
80 100 100 100 100 100 100 100 100 100 100 100 100 100 100 100 100 100 100 100 100 100 99 100 98 100 93 99 91 100 100 100 100 100 100 100 100 100 100 100 100 78 99
100 100 100 100 100 100 100 100 100 100 100 100 100 100 100 100 100 100 100 100 100 99 98 100 100 100 99 100 100 100 100 100 100 100 100 100 100 100 100 91 97 70 60
100 100 100 100 100 100 100 100 100 100 100 100 100 100 100 100 100 100 100 100 100 95 99 100 100 100 100 100 100 100 100 100 100 100 100 100 95 89 97 98 100 100 100
100 100 100 100 100 100 100 100 100 100 100 100 100 100 100 100 100 100 100 100 100 100 100 100 100 100 100 100 100 100 100 100 100 100 100 98 100 90 88 100 100 92 100
100 100 100 100 100 100 100 100 100 100 100 100 100 100 100 100 100 100 100 100 100 100 100 100 100 100 100 100 100 100 100 100 100 100 96 100 100 100 100 100 100 100 100
100 100 100 100 100 100 100 100 100 100 100 100 100 100 100 100 100 100 100 100 100 100 100 100 100 100 100 100 100 100 100 100 100 100 100 100 100 100 100 100 100 100 100
100 100 100 100 100 100 100 100 100 100 100 100 100 100 100 100 100 100 100 100 100 100 100 100 100 100 100 100 100 100 100 100 100 100 100 100 100 100 100 100 100 100 100
100 100 100 100 100 100 100 100 100 100 100 100 100 100 100 100 100 100 100 100 100 100 100 100 100 100 100 100 100 100 100 100 100 100 100 100 94 100 94 97 99 100 100
100 100 100 100 100 100 100 100 100 100 100 100 100 100 100 100 100 100 100 100 100 100 100 100 100 100 100 100 100 100 100 100 100 100 91 99 98 98 100 100 87 100 100
100 100 100 100 100 100 100 100 100 100 100 100 100 100 100 100 100 100 100 100 100 100 100 100 100 100 100 100 100 87 100 100 100 100 75 100 100 100 100 99 100 98 35

GFSMA_prec_cloud_099.txt.gz
Cloud_Cover
0 3 6 23 45 45 12 96 100 100 100 100 100 100 100 54 98 100 100 100 100 100 100 100 100 100 100 100 100 100 100 100 100 60 66 30 97 100 100 100 100 100 100
0 0 0 19 46 39 28 97 100 100 100 100 100 100 100 99 100 100 100 100 100 100 100 100 100 100 100 100 100 100 98 100 100 66 93 86 100 100 100 100 100 100 100
0 0 0 1 18 39 66 100 100 100 100 100 100 100 100 100 100 100 100 100 100 99 100 100 100 100 100 100 100 100 100 100 100 96 100 83 100 100 100 100 100 100 100
0 0 3 12 52 91 100 100 100 100 100 100 100 100 100 100 100 100 100 100 99 100 99 100 100 100 100 100 52 100 100 100 100 100 100 100 100 100 100 100 100 100 100
0 0 2 22 77 96 99 100 100 100 100 100 100 100 100 100 100 100 99 100 100 100 99 100 100 100 100 100 65 100 100 100 100 100 100 100 100 100 100 100 100 100 100
0 0 7 38 48 95 100 100 100 100 100 100 100 100 100 100 100 100 100 100 100 100 100 100 100 100 100 100 99 100 95 100 100 100 100 100 100 100 100 100 100 100 100
100 40 47 100 100 100 100 100 100 100 100 100 100 100 100 100 100 100 100 100 100 100 100 100 96 100 100 100 100 100 15 29 70 100 100 100 100 100 100 100 100 100 100
100 100 100 100 100 100 100 100 100 100 100 100 100 100 100 100 100 100 100 100 100 100 100 100 100 100 33 90 96 75 95 100 100 66 90 98 99 100 100 100 100 100 100
100 100 100 100 100 100 99 100 100 100 100 100 100 100 100 100 100 100 100 100 100 100 100 100 100 32 95 81 100 94 100 100 79 84 76 54 100 100 98 100 100 100 100
100 100 100 100 100 100 100 100 100 100 100 100 100 100 100 100 100 100 100 100 100 100 100 100 100 100 96 100 100 91 62 26 84 100 86 86 66 87 100 100 100 100 100
100 100 100 100 100 100 100 99 100 100 100 100 100 100 100 100 100 100 100 100 100 100 100 100 100 100 100 100 100 98 100 100 22 97 88 88 99 95 98 98 100 100 100
100 100 100 57 85 80 100 100 100 100 96 100 100 100 100 100 100 100 100 100 100 100 100 100 100 100 100 100 100 100 100 100 100 100 100 100 96 99 100 100 90 100 99
88 100 100 100 100 100 100 100 100 100 80 100 100 100 100 100 100 100 100 100 100 100 100 100 100 100 100 100 100 95 97 80 95 100 96 100 100 100 97 100 100 99 100
100 100 73 100 89 100 100 100 100 100 100 100 100 100 100 100 100 100 100 100 100 100 100 100 100 100 100 100 100 100 100 100 81 94 100 100 100 97 91 94 99 93 100
55 51 98 100 100 100 100 100 100 100 100 100 100 100 100 100 100 100 100 100 100 100 100 100 100 100 100 100 100 100 100 98 93 100 100 100 100 100 100 100 100 100 100
11 91 100 100 100 100 100 100 100 100 100 100 100 100 100 100 100 100 100 100 100 100 100 100 100 100 100 100 100 100 100 100 97 100 100 100 100 100 100 100 100 100 85
100 100 83 100 100 100 100 100 100 100 100 100 100 100 100 100 100 100 100 100 100 100 100 100 100 100 100 100 100 100 100 100 84 100 100 100 100 100 100 100 100 100 93
100 58 100 100 100 100 100 100 100 100 100 100 100 100 100 100 100 100 100 100 100 100 100 100 100 100 100 100 100 100 100 100 100 100 100 100 100 100 100 100 91 94 100
100 100 100 100 100 100 100 100 100 100 100 100 100 100 100 100 100 100 100 100 100 100 100 100 100 100 100 100 98 100 100 100 100 100 100 100 100 100 100 98 21 24 91
100 100 100 100 100 100 100 100 100 100 100 100 100 100 100 100 100 100 100 100 100 100 100 100 100 100 90 100 100 100 100 100 41 100 100 100 99 96 99 100 98 100 100
100 100 100 100 100 100 100 100 100 100 100 100 100 100 100 100 100 100 100 100 100 100 100 100 100 100 79 100 91 87 99 36 100 100 100 100 100 93 98 100 100 100 100
100 100 100 100 100 100 100 100 100 100 100 100 100 100 100 100 100 100 100 100 100 100 100 100 100 100 100 100 100 100 100 100 100 100 100 100 100 100 100 100 100 100 100
100 100 100 100 100 100 100 100 100 100 100 100 100 100 100 100 100 100 100 100 100 100 100 100 100 100 100 100 100 100 100 100 100 100 100 100 100 100 100 100 100 100 100
100 100 100 100 100 100 100 100 100 100 100 100 100 100 100 100 100 100 100 100 100 100 100 100 100 100 100 100 100 100 100 100 100 100 100 100 100 100 100 100 100 100 100
100 100 100 100 100 100 100 100 100 100 100 100 100 100 100 100 100 100 100 100 100 100 100 100 100 100 100 100 100 100 100 100 100 100 100 100 100 100 100 100 90 79 97
100 100 100 100 100 100 100 100 100 100 100 100 100 100 100 100 100 100 100 100 100 100 100 100 100 100 100 100 100 100 100 100 99 100 100 84 100 100 100 100 99 98 100

GFSMA_prec_cloud_102.txt.gz
Cloud_Cover
46 30 32 38 40 48 9 12 29 36 10 90 100 100 100 100 100 100 100 100 100 100 100 100 100 100 100 100 100 100 100 100 100 100 100 83 99 28 100 100 100 100 100
12 16 46 55 88 46 15 0 0 18 24 89 100 100 100 100 100 99 100 91 100 100 100 100 100 100 100 100 100 100 95 100 100 97 100 78 61 93 60 100 100 100 100
5 9 39 88 96 67 18 5 25 99 98 100 100 100 100 100 100 100 100 100 100 100 100 100 100 100 100 100 100 100 100 100 100 100 100 100 100 90 98 100 100 100 100
5 14 33 58 99 100 72 76 92 100 100 100 100 100 100 100 100 100 100 100 100 100 100 100 99 100 100 100 100 100 100 100 100 100 100 100 100 100 94 100 100 100 100
5 9 26 49 98 100 99 100 100 100 100 100 100 100 100 100 100 100 100 100 100 100 100 100 98 100 100 100 100 100 100 100 100 100 100 100 100 100 100 100 100 100 100
11 23 46 93 99 100 100 100 100 100 100 100 100 100 100 100 100 100 100 100 100 100 100 100 97 100 100 100 100 100 100 100 100 93 100 100 100 100 100 100 99 100 98
28 36 70 100 100 100 100 100 100 100 100 100 100 100 100 100 100 100 100 100 100 100 100 100 100 100 100 100 88 100 100 100 100 100 100 100 100 100 100 100 100 100 100
86 98 88 100 100 100 100 100 100 100 100 100 100 100 100 100 100 100 100 100 100 100 100 100 100 100 98 100 100 100 99 100 100 56 95 100 91 100 97 100 100 100 100
100 100 100 100 100 100 100 100 100 100 100 100 100 100 100 100 100 100 100 100 100 100 100 100 100 100 99 94 100 100 100 100 100 100 100 100 66 100 100 100 88 95 97
100 100 100 100 100 100 100 100 100 98 100 100 100 100 100 100 100 100 100 100 100 100 100 100 100 100 100 99 100 100 100 100 100 100 100 94 99 100 11 86 100 100 98
100 100 100 100 100 100 100 100 100 100 100 100 100 100 100 100 100 100 100 100 100 100 100 100 100 100 100 100 100 100 100 100 100 100 91 100 100 100 100 95 94 100 100
100 100 100 100 100 100 100 100 100 100 100 100 100 100 100 100 100 100 100 100 100 100 100 100 100 100 100 100 100 100 100 100 100 100 100 96 100 100 100 100 100 97 98
100 100 100 100 100 100 100 100 100 100 100 100 100 100 100 100 100 100 100 100 100 100 100 100 100 100 100 100 100 100 100 100 100 100 100 99 100 100 100 100 78 98 100
49 34 92 99 100 100 100 100 100 100 100 100 100 98 100 100 100 100 100 100 100 100 100 100 100 100 100 100 100 100 100 100 100 100 100 100 100 100 92 89 92 74 15
42 34 82 88 100 100 100 100 100 100 100 100 100 100 100 100 100 100 100 100 100 100 100 100 100 100 100 100 100 100 100 100 100 100 100 85 100 100 87 77 91 75 82
100 99 100 100 100 100 88 100 100 100 100 100 100 100 100 100 100 100 100 100 100 100 100 100 100 100 100 100 100 100 100 100 100 100 96 100 100 94 80 84 100 100 100
100 100 100 100 100 100 100 100 100 100 100 100 100 100 100 100 100 100 100 100 100 100 100 100 100 100 100 100 100 100 100 100 100 100 100 100 100 97 100 100 100 100 100
100 100 98 100 100 100 100 100 100 100 100 100 100 100 100 100 100 100 100 100 100 100 100 100 100 100 100 100 100 100 100 100 100 100 100 100 100 99 100 100 100 100 100
100 97 100 100 100 98 85 100 100 100 100 100 100 100 100 100 100 100 100 100 100 100 100 100 100 100 100 100 100 100 100 100 100 100 85 100 99 98 100 98 100 100 100
97 100 96 100 100 100 100 100 100 100 100 100 100 100 100 100 100 100 100 100 100 100 100 100 100 100 100 100 100 100 100 100 100 92 99 100 100 100 100 100 100 100 100
100 90 98 100 100 100 100 100 100 100 100 100 100 100 100 100 100 100 100 100 100 100 100 100 100 100 100 100 100 100 100 100 100 100 100 100 100 100 100 100 100 100 100
100 100 100 100 100 100 100 100 100 100 100 100 100 100 100 100 100 100 100 100 100 100 100 100 100 100 100 100 100 100 100 100 100 100 100 100 100 100 100 100 100 100 100
100 100 100 100 100 100 100 100 100 100 100 100 100 100 100 100 100 100 100 100 100 100 100 100 100 100 100 100 100 100 100 100 100 100 100 100 100 100 100 100 100 100 100
100 100 100 100 100 100 100 100 100 100 100 100 100 100 100 100 100 100 100 100 100 100 100 100 100 100 100 100 100 100 100 100 100 100 100 100 100 100 100 100 100 100 100
100 100 100 100 100 100 100 100 100 100 100 100 100 100 100 100 100 100 100 100 100 100 100 100 100 100 100 100 100 100 100 100 100 100 100 100 100 100 100 100 100 100 100
100 100 100 100 100 100 100 100 100 100 100 100 100 100 100 100 100 100 100 100 100 100 100 100 100 100 100 100 100 100 100 100 100 100 100 100 100 100 100 100 98 41 65

GFSMA_prec_cloud_105.txt.gz
Cloud_Cover
100 100 100 100 100 43 8 20 4 16 15 3 5 12 98 100 100 100 100 100 100 100 100 100 100 99 99 100 100 100 100 100 100 100 100 100 100 100 98 52 80 78 87
100 100 82 93 83 30 16 0 0 0 19 20 10 7 93 100 100 100 100 100 100 100 100 100 100 100 92 98 100 100 100 100 100 100 100 100 100 100 38 76 98 97 100
100 100 92 100 100 71 23 7 12 14 52 33 8 18 81 100 100 100 100 100 100 100 100 100 100 100 100 100 100 100 100 100 100 100 100 81 89 100 99 100 63 100 100
100 80 86 100 100 100 55 33 18 41 71 100 77 54 100 100 100 100 100 100 100 100 100 100 100 100 100 100 100 100 100 100 100 100 100 100 100 100 100 79 81 100 100
100 55 61 100 100 100 98 57 68 100 100 100 100 100 100 100 100 100 100 100 100 99 100 100 100 100 100 100 100 100 100 100 100 100 100 100 98 100 100 100 98 100 100
99 96 67 100 100 100 100 88 100 100 100 100 100 100 100 100 100 100 100 100 100 100 100 100 100 100 100 100 100 100 100 100 100 100 100 100 54 28 84 100 99 100 100
100 100 98 100 100 100 100 100 100 100 100 100 100 100 100 100 100 100 100 100 100 100 100 100 100 100 100 100 100 100 100 100 100 100 100 100 100 100 10 5 5 5 68
100 100 100 100 100 100 100 100 100 100 100 100 100 100 100 100 100 100 100 100 100 100 100 100 100 100 100 100 97 100 100 100 100 99 99 100 100 100 72 14 100 64 5
98 100 100 100 100 100 100 100 100 93 100 100 100 100 100 100 100 100 100 100 100 100 100 100 100 100 100 100 99 100 100 100 100 100 29 80 100 100 100 94 8 49 94
100 100 100 100 100 100 100 100 100 84 87 100 100 100 100 100 100 100 100 100 100 100 100 100 100 100 100 100 100 100 100 100 100 100 98 100 98 100 19 22 61 57 55
100 100 100 100 100 100 100 100 100 100 100 100 100 100 100 100 100 100 100 100 100 100 100 100 100 100 100 100 100 100 100 100 100 100 100 100 100 100 100 32 100 58 91
100 100 100 100 100 100 100 100 100 100 100 100 100 100 100 100 100 100 100 100 100 100 100 100 100 100 100 100 100 100 100 100 100 100 100 100 100 100 100 95 100 100 100
100 100 100 100 100 100 100 100 100 100 100 100 100 100 100 100 100 100 100 100 100 100 100 100 100 100 99 100 100 100 100 100 100 100 100 100 100 100 100 100 100 100 100
100 100 100 100 100 100 100 100 100 100 100 100 100 100 100 100 100 100 100 100 100 100 100 100 100 100 100 100 100 100 100 100 100 100 100 100 100 100 100 96 100 100 99
100 100 100 100 100 100 100 100 100 100 100 100 100 100 100 92 100 100 100 100 100 100 100 100 100 100 71 99 100 100 100 100 100 100 100 100 100 100 100 68 100 100 100
100 100 98 99 90 100 100 100 100 100 100 100 100 100 100 100 100 100 100 100 100 100 100 100 100 100 96 100 100 100 100 100 100 100 100 100 100 100 88 100 100 100 100
100 100 100 99 95 100 100 100 100 100 100 100 100 100 100 100 100 100 100 100 100 100 100 100 100 100 99 100 100 100 100 100 100 100 100 100 96 82 98 100 100 97 98
100 100 100 100 100 100 100 100 100 100 100 100 100 100 100 100 100 100 100 100 100 100 100 100 100 100 100 100 100 100 100 100 100 100 100 100 100 100 100 100 88 100 100
100 100 59 100 100 100 100 100 100 100 100 100 100 100 100 100 100 100 100 100 100 100 100 100 100 100 100 100 100 100 100 100 98 100 100 100 100 100 100 100 100 100 100
100 38 82 100 100 100 100 100 100 100 100 100 100 100 100 100 100 100 100 100 100 100 100 100 100 100 100 100 100 100 100 100 100 100 100 100 100 100 100 100 100 100 100
93 94 100 100 100 100 100 100 100 100 100 100 100 100 100 100 100 100 100 100 100 100 100 100 100 100 100 100 100 100 100 100 100 100 100 100 100 100 100 100 100 100 100
100 100 100 100 100 100 100 100 100 100 100 100 100 100 100 100 100 100 100 100 100 100 100 100 100 100 100 100 100 100 100 100 100 100 100 100 100 100 100 100 100 100 100
100 100 100 100 100 100 100 100 100 100 100 100 100 100 100 100 100 100 100 100 100 100 100 100 100 100 100 100 100 100 100 100 100 100 100 100 100 100 100 100 100 100 100
100 100 100 100 100 100 100 100 100 100 100 100 100 100 100 100 100 100 100 100 100 100 100 100 100 100 100 100 100 100 100 100 100 100 100 100 100 100 100 100 100 100 100
100 100 100 100 100 100 100 100 100 100 100 100 100 100 100 100 100 100 100 100 100 100 100 100 100 100 100 100 100 100 100 100 100 100 100 100 100 100 100 100 100 100 100
100 100 100 100 100 100 95 100 100 100 100 100 100 100 100 100 100 100 100 100 100 100 100 100 100 100 100 100 100 100 100 100 100 100 100 100 100 100 100 100 100 100 100

GFSMA_prec_cloud_108.txt.gz
Cloud_Cover
100 100 100 100 100 100 100 72 22 25 31 31 24 8 21 36 57 76 74 100 100 100 100 100 100 100 83 77 100 100 100 100 100 100 100 100 100 100 100 100 100 29 72
100 100 100 100 100 100 100 42 7 14 18 14 27 13 15 23 95 98 100 100 100 100 100 100 100 100 100 84 98 100 100 95 100 100 100 100 100 100 100 100 96 98 100
100 100 100 100 100 100 53 26 18 23 38 28 15 22 12 5 99 100 100 100 100 100 100 100 97 100 100 100 100 100 100 100 100 100 100 100 100 100 100 100 77 57 99
100 100 100 100 100 100 97 40 6 15 42 47 20 43 32 44 100 98 100 100 100 100 100 100 100 100 100 100 100 100 100 100 100 100 100 100 100 57 93 100 100 86 100
100 100 100 100 100 100 100 70 34 14 39 97 42 100 53 97 100 100 100 100 100 100 100 100 100 100 100 100 100 100 100 100 100 100 100 100 68 96 62 99 100 99 99
100 100 100 100 100 100 100 100 59 58 86 98 82 100 100 100 100 100 100 100 100 100 100 100 100 100 100 100 100 100 100 100 100 100 100 100 97 63 86 12 44 11 5
100 100 100 100 100 100 100 100 100 100 100 100 100 82 100 100 100 100 100 100 100 100 100 100 100 100 100 100 100 100 100 100 100 100 100 100 100 99 72 37 5 12 5
100 100 100 100 100 100 100 100 100 100 100 100 70 73 100 100 100 100 100 100 100 100 100 100 100 100 100 100 100 100 100 100 100 100 100 78 93 100 100 30 5 5 5
100 100 100 100 100 100 100 100 100 100 100 100 95 23 100 100 98 100 100 100 100 100 100 100 100 100 100 100 100 100 100 100 100 98 100 100 84 92 100 100 9 8 59
100 100 100 100 100 100 100 100 100 100 100 100 100 96 100 100 100 100 100 100 100 100 100 100 100 100 100 100 100 100 100 100 100 95 100 96 99 100 100 100 29 10 49
100 100 100 100 100 100 100 100 100 100 100 100 98 100 100 100 100 100 100 100 100 100 100 100 100 100 100 100 100 100 100 100 100 100 100 100 100 100 100 100 100 100 100
100 100 100 100 100 100 100 100 100 100 100 100 100 100 100 100 100 100 100 100 100 100 100 100 100 100 100 100 100 100 100 100 100 100 100 100 100 100 100 100 100 100 100
100 100 100 100 100 100 100 100 100 100 100 100 100 100 100 100 100 100 100 100 100 100 100 100 100 100 100 100 100 100 100 100 100 100 100 100 100 100 100 100 100 100 95
100 100 100 100 100 100 100 100 100 100 100 100 100 100 100 100 100 100 100 100 100 100 100 100 100 100 100 100 100 100 100 100 100 100 100 100 100 100 100 100 100 100 100
100 100 91 100 100 100 100 100 100 100 100 100 100 100 100 100 100 100 100 86 100 100 100 100 100 100 100 100 100 100 100 100 100 100 100 100 100 100 100 100 100 100 100
100 100 100 100 100 100 100 100 100 100 100 100 100 100 100 100 100 100 100 100 100 100 100 100 100 100 100 99 100 100 100 98 100 100 100 100 100 100 100 100 100 100 100
100 100 100 100 100 100 100 100 100 100 100 100 100 100 97 100 100 100 75 100 100 100 100 100 100 100 100 100 98 100 96 99 100 100 100 100 100 100 100 100 100 100 100
100 100 100 100 100 100 100 100 100 100 100 100 100 100 100 100 100 100 100 100 100 100 100 100 100 100 100 100 100 100 100 100 100 100 100 100 100 100 100 100 100 100 100
100 100 100 100 100 100 100 100 100 100 100 100 100 100 100 100 100 100 100 100 100 100 100 100 100 100 100 100 100 97 100 100 100 100 100 100 100 100 100 100 100 100 100
100 100 100 100 100 100 100 100 100 100 100 100 100 99 99 100 100 100 100 100 100 100 100 100 100 100 100 100 100 100 100 100 100 100 100 100 100 100 100 100 100 100 100
100 100 100 100 100 100 100 100 100 96 94 98 71 92 97 100 100 100 100 100 100 100 100 100 100 100 100 100 100 100 100 100 100 100 100 100 100 100 100 100 100 100 100
100 100 100 100 100 100 100 100 100 100 100 100 100 100 100 100 100 100 100 100 100 100 100 100 100 100 100 100 100 100 100 100 100 100 100 100 100 100 100 100 100 100 100
100 100 100 100 100 100 100 100 100 100 100 99 100 100 100 100 100 100 100 100 100 100 100 100 100 100 100 100 100 100 100 100 100 100 100 100 100 100 100 100 100 100 100
100 100 100 100 100 100 100 100 100 100 100 100 100 100 100 100 100 100 100 100 100 100 100 100 100 100 100 100 100 100 100 100 100 100 100 100 100 100 100 100 100 100 100
100 100 100 100 100 100 100 100 100 100 100 100 100 100 100 100 100 100 100 100 100 100 100 100 100 100 100 100 100 100 100 100 100 100 100 100 100 100 100 100 100 100 100
100 100 100 100 100 100 100 100 100 100 100 100 100 100 100 100 100 100 100 100 100 100 100 100 100 100 100 100 100 100 100 100 100 100 100 100 100 100 100 100 100 100 100

GFSMA_prec_cloud_111.txt.gz
Cloud_Cover
100 100 79 46 55 62 50 100 100 100 100 50 52 36 23 29 48 39 27 14 100 100 100 100 100 100 100 100 39 55 84 100 100 100 100 100 100 100 100 100 100 100 98
100 100 100 68 67 59 100 100 100 100 100 71 50 46 31 32 19 20 32 96 100 100 100 100 100 100 100 100 92 8 99 100 100 100 100 100 100 73 100 100 100 100 100
100 100 100 100 79 95 100 100 100 100 100 63 57 59 51 43 20 30 0 93 100 100 100 100 100 100 100 100 100 100 100 98 100 99 100 100 100 100 100 100 100 100 100
61 22 100 100 100 100 100 100 100 100 80 64 70 94 76 61 36 48 10 7 62 100 100 100 100 100 100 100 100 100 100 100 100 99 100 100 100 100 100 100 100 100 100
26 74 100 100 100 100 100 100 100 100 74 81 74 54 53 52 80 99 20 96 100 100 100 100 100 100 100 100 100 100 100 80 100 100 100 100 100 100 100 57 100 100 100
100 100 100 100 100 100 100 100 100 100 98 89 58 72 75 46 96 44 34 100 100 100 100 100 100 100 100 100 100 100 100 97 100 98 100 100 100 100 73 60 97 27 66
100 100 100 100 100 100 100 100 100 97 100 100 100 100 77 75 100 99 100 100 100 100 100 100 100 100 100 100 100 100 100 100 100 100 100 100 97 98 100 84 98 100 83
100 100 100 100 100 100 100 100 100 100 100 83 100 100 100 100 95 73 100 100 100 100 100 100 100 100 100 100 100 100 100 100 100 100 100 95 92 93 100 100 74 46 31
100 100 100 100 100 100 100 100 100 100 100 100 100 100 97 66 72 100 100 100 100 100 100 100 100 100 100 100 100 100 100 100 100 100 100 100 98 100 100 100 100 67 49
100 100 100 100 100 100 100 100 100 100 100 100 100 100 99 26 70 100 100 100 100 100 100 100 100 100 100 100 100 100 100 100 100 100 100 100 100 100 100 100 100 94 62
100 100 100 100 100 100 100 100 100 100 100 78 84 100 100 62 42 100 100 93 100 100 100 100 100 100 100 100 100 100 100 100 100 100 100 100 100 100 100 100 100 100 100
100 100 100 100 100 100 100 100 100 100 100 92 100 100 100 100 100 100 100 100 99 100 100 100 100 100 100 100 100 100 100 100 100 100 100 100 100 100 100 100 100 100 100
100 100 100 100 100 100 100 100 100 100 100 100 100 100 90 100 100 100 100 100 81 99 100 100 100 100 100 100 100 100 100 100 100 100 100 100 100 100 100 100 100 100 100
100 100 100 100 100 100 100 100 100 100 100 100 100 98 100 100 98 100 100 100 100 100 100 100 100 100 100 100 100 100 100 100 100 97 100 100 100 100 100 100 100 100 100
79 96 100 100 100 100 100 100 100 100 100 100 100 100 100 100 100 100 100 100 100 100 100 100 100 100 100 100 100 96 100 100 100 100 100 100 100 100 100 100 100 100 100
100 100 100 100 100 100 100 100 100 100 100 100 100 100 100 100 100 100 100 100 100 88 100 100 100 100 100 100 100 100 99 99 100 99 100 100 100 100 100 100 100 100 100
100 100 100 100 98 100 100 100 100 100 100 100 100 100 100 100 100 100 100 100 100 100 100 100 100 100 100 100 100 100 95 69 94 100 100 100 100 100 100 100 100 100 100
100 100 100 98 100 100 100 100 100 100 100 100 100 90 97 100 100 100 100 100 100 100 100 100 100 100 100 100 100 100 100 76 94 100 100 100 100 100 100 100 100 100 100
100 100 100 100 100 100 100 100 100 100 100 100 100 100 100 99 91 80 100 100 100 100 100 100 100 100 100 100 100 100 100 99 100 100 100 100 100 100 100 100 100 100 100
100 100 100 100 100 100 100 100 100 100 100 100 100 85 71 84 100 100 100 100 100 100 100 100 100 100 100 100 100 100 100 100 100 100 98 100 100 100 100 100 100 100 100
100 100 100 100 100 100 100 100 100 100 100 57 35 79 90 79 18 27 88 100 100 100 100 100 100 100 100 100 100 100 100 100 100 100 100 100 100 100 100 100 100 100 100
100 100 100 100 100 100 100 100 100 100 100 100 100 100 92 75 100 100 100 100 100 100 100 100 100 100 100 100 100 100 100 100 100 100 100 100 100 100 100 100 100 100 100
100 100 100 100 100 100 100 100 100 100 100 100 100 100 99 89 66 97 100 100 100 100 100 100 100 100 100 100 100 100 100 100 100 100 100 100 100 100 100 100 100 100 100
100 100 100 100 100 100 100 100 100 100 100 100 100 100 100 100 100 71 100 100 100 100 100 100 100 100 100 100 100 100 100 100 100 100 100 100 100 100 100 100 100 100 100
100 100 100 100 100 100 100 100 100 100 100 100 100 100 100 100 100 96 100 100 100 100 100 100 100 100 100 100 100 100 100 100 100 100 100 100 100 100 100 100 100 100 100
100 100 100 100 100 100 100 100 100 100 100 100 100 100 100 100 100 100 100 100 100 100 100 100 100 100 100 100 100 100 100 100 100 100 100 100 100 100 100 100 100 100 100

GFSMA_prec_cloud_117.txt.gz
Cloud_Cover
5 20 23 87 75 69 48 85 99 100 100 100 100 100 98 100 100 100 100 91 5 4 3 49 100 100 92 100 100 100 99 100 100 70 90 100 100 100 100 100 100 100 98
6 5 28 96 96 100 100 97 44 100 100 100 100 100 100 100 100 100 100 33 5 4 5 2 86 100 100 100 100 100 68 100 100 100 100 100 100 100 100 100 97 100 87
33 7 21 80 83 54 66 98 73 100 100 100 100 100 100 100 100 100 100 45 73 43 3 5 5 91 100 99 100 100 92 100 100 100 100 100 100 100 100 100 100 100 100
16 21 37 41 100 54 72 97 96 70 79 100 100 100 98 100 100 100 76 10 100 100 65 5 0 2 100 100 100 100 100 100 100 100 100 100 100 99 100 100 100 100 100
100 16 29 74 98 51 59 99 100 100 69 76 69 100 100 100 100 98 89 6 84 100 100 39 0 18 100 100 100 100 100 100 100 100 100 100 100 100 98 100 100 100 99
100 93 5 40 69 97 65 100 100 100 100 100 74 100 100 100 100 100 100 92 100 89 4 34 2 12 90 100 100 100 100 100 100 100 100 100 100 100 100 100 98 75 66
100 100 72 4 5 76 48 70 92 89 100 100 100 100 100 100 100 99 81 98 33 100 9 12 64 18 96 100 100 100 100 100 100 100 100 100 100 100 95 100 60 98 79
100 100 89 46 13 30 99 100 92 100 100 100 100 100 100 100 87 69 31 50 72 76 68 56 99 100 100 100 100 100 100 100 100 100 100 100 100 100 100 100 100 100 96
100 100 100 22 0 17 90 100 100 100 100 100 100 100 100 100 61 41 13 72 99 35 43 100 98 86 100 100 100 100 100 100 100 100 100 100 100 100 100 100 83 76 100
100 100 100 54 4 27 28 99 100 100 100 100 100 100 100 100 100 78 30 35 61 87 19 53 100 100 100 100 100 100 100 100 100 100 100 100 100 100 100 100 100 99 48
100 100 100 93 57 61 31 79 100 100 100 100 100 100 100 100 100 59 100 100 15 31 14 50 100 100 100 100 100 100 100 100 100 100 100 100 100 100 100 100 100 100 100
68 100 100 100 43 76 83 57 100 88 100 100 100 100 100 100 100 67 88 99 99 98 41 100 73 26 98 100 100 100 100 100 100 100 100 100 100 100 100 100 100 100 89
100 100 100 100 100 97 100 96 92 93 100 100 100 100 100 100 100 87 100 55 100 82 100 58 64 99 96 86 100 100 100 100 100 100 100 100 100 100 100 100 100 100 100
100 100 100 100 100 98 100 100 100 100 100 100 100 100 100 100 100 100 100 99 52 63 56 31 18 66 92 100 100 100 100 100 100 100 100 100 100 100 100 100 100 100 100
100 99 71 99 100 100 100 100 97 100 100 100 100 100 100 100 73 37 100 100 98 98 83 28 6 48 49 99 100 100 100 100 100 100 100 100 100 100 100 100 100 100 100
57 31 98 55 100 100 100 100 100 100 100 100 100 100 100 100 100 100 100 100 24 38 26 19 70 89 91 69 100 100 100 100 100 100 100 100 100 100 100 100 100 100 100
0 34 67 50 100 100 100 100 100 100 100 100 100 100 100 100 100 100 100 100 64 45 87 24 60 90 45 51 93 100 100 97 100 100 100 100 100 100 100 100 100 100 100
9 99 96 57 64 100 100 100 100 100 100 100 100 100 100 100 100 100 100 100 100 100 100 100 33 100 97 6 100 100 100 100 100 100 100 100 100 100 100 100 100 100 100
100 93 100 98 99 100 100 100 100 100 100 100 100 100 100 100 100 100 100 100 54 77 100 99 43 96 100 100 92 100 100 100 100 100 100 100 100 100 100 100 100 100 100
100 100 100 100 100 100 100 100 100 100 100 100 100 100 100 100 100 100 100 91 56 80 36 99 100 68 73 100 98 93 100 100 100 100 100 100 100 100 100 100 100 100 100
100 100 100 100 100 100 100 100 100 100 100 100 100 100 100 100 100 100 100 77 68 97 100 100 99 99 100 100 100 100 100 100 100 100 100 100 100 100 100 100 100 100 100
100 100 100 100 100 100 100 100 100 100 100 100 100 100 100 100 100 100 100 90 100 100 100 100 100 100 100 100 100 100 100 100 100 100 100 100 100 100 100 100 100 100 100
100 100 100 100 100 100 100 100 100 100 100 100 100 100 100 100 100 100 62 100 100 100 100 100 100 100 100 100 100 100 100 100 100 99 100 100 100 100 100 100 100 100 100
100 100 100 100 100 100 100 100 100 100 100 100 100 100 100 100 100 96 100 100 100 100 100 100 100 100 100 100 100 100 100 100 100 100 100 100 100 100 100 100 100 100 100
100 100 100 100 100 100 100 100 100 100 100 100 100 100 100 100 100 100 100 100 100 100 100 100 100 100 100 100 98 96 100 100 100 100 100 100 100 100 100 100 100 100 100
100 100 100 100 100 100 100 100 100 100 100 100 100 100 100 100 100 100 100 100 100 100 100 95 100 100 100 100 100 100 100 100 100 100 100 100 100 100 100 100 100 100 100

GFSMA_prec_cloud_120.txt.gz
Cloud_Cover
36 59 1 32 100 0 5 2 9 16 50 49 98 95 100 100 100 100 93 99 100 98 23 8 2 36 100 100 100 100 100 100 100 100 100 96 100 100 100 100 100 100 84
46 100 92 53 96 5 5 5 40 41 50 17 34 100 100 100 100 100 100 100 100 98 5 3 3 49 100 100 100 100 100 100 100 100 100 100 100 100 100 100 100 61 14
83 97 80 22 94 77 5 44 38 92 65 100 100 25 100 100 100 79 100 100 100 95 6 63 5 20 100 100 65 100 100 100 100 100 100 100 100 100 100 100 100 100 74
97 100 95 100 7 100 45 12 73 100 99 100 60 5 8 96 96 94 100 100 100 94 26 27 5 50 70 61 13 100 100 100 100 100 99 100 100 100 100 100 100 100 100
100 100 14 100 100 98 28 99 5 34 100 100 100 84 97 15 81 100 100 100 100 36 28 5 39 9 49 68 4 47 100 100 100 100 100 100 100 100 100 96 100 100 100
94 18 96 91 80 100 71 98 56 6 100 100 96 65 30 38 13 100 100 100 100 72 95 5 11 5 5 2 5 62 100 100 100 100 100 100 100 100 100 100 100 100 100
100 100 76 96 37 44 100 100 69 5 6 100 100 75 100 93 79 100 100 100 43 79 100 40 5 5 5 78 72 100 100 100 100 100 100 100 100 100 100 100 100 100 100
100 100 100 100 100 19 73 100 100 5 68 62 83 66 100 97 100 100 100 100 83 100 86 100 68 4 98 60 94 100 100 100 100 100 100 100 100 100 100 100 100 100 100
42 84 100 100 100 30 24 61 65 33 5 58 100 78 100 100 93 100 100 19 60 61 23 6 3 80 15 74 100 100 100 100 100 100 100 100 100 100 100 100 100 100 100
16 92 62 93 98 10 64 100 100 52 12 5 100 100 100 93 100 100 93 25 98 100 21 6 5 42 70 46 100 100 100 100 100 100 100 100 100 100 100 100 100 100 100
85 5 100 74 100 13 98 100 83 100 23 48 49 100 100 100 100 100 100 99 33 60 100 100 5 5 76 100 94 100 100 100 100 100 100 100 100 100 100 100 100 100 100
100 34 37 74 94 100 97 100 100 100 96 30 100 99 100 100 100 81 100 100 100 95 100 100 5 6 50 90 100 100 100 100 100 100 100 100 100 100 100 100 100 100 100
94 100 16 96 100 92 16 34 100 100 98 84 93 96 100 100 100 95 100 100 18 74 100 95 5 5 99 63 100 100 100 100 100 100 100 100 100 100 100 100 100 100 100
8 100 100 100 100 95 100 54 84 100 100 100 100 100 100 100 100 99 77 100 70 100 100 100 82 5 10 18 60 100 100 100 100 100 100 100 98 100 100 100 100 100 100
0 3 100 5 99 100 100 100 74 100 100 100 100 100 100 100 100 90 92 100 100 100 100 100 100 78 6 17 96 82 94 100 100 100 100 100 100 100 100 100 100 100 100
6 0 0 28 100 100 100 100 100 100 100 100 100 100 100 100 100 100 81 100 100 100 100 100 100 69 76 5 8 82 50 60 100 100 100 100 100 100 100 100 100 100 100
6 0 2 100 100 100 100 100 100 100 100 100 100 100 100 92 100 63 99 100 100 100 100 100 100 60 10 22 3 10 56 90 100 100 100 100 100 100 100 100 100 100 100
40 96 22 100 100 100 100 100 100 100 100 100 100 100 100 100 100 99 98 100 100 100 100 100 99 76 88 90 5 12 50 99 79 100 100 100 100 100 100 100 100 100 100
100 100 100 100 100 100 100 100 100 100 100 100 100 100 100 100 100 100 87 100 100 100 100 100 100 95 88 32 63 87 98 100 100 96 100 100 100 100 100 100 100 100 100
100 100 100 100 100 100 100 100 100 100 100 100 100 100 100 100 100 100 100 100 100 100 100 100 100 100 30 78 100 100 96 100 98 93 100 100 100 100 100 100 100 100 100
100 100 100 100 100 100 100 100 100 100 100 100 100 100 100 100 100 100 100 100 100 100 100 100 100 100 100 94 82 100 100 100 100 100 100 100 100 100 100 100 100 100 100
100 100 100 100 100 100 100 100 100 100 100 100 100 100 100 100 100 100 100 100 100 100 100 100 100 100 100 100 100 76 100 85 100 100 100 100 100 100 100 100 100 100 100
100 100 100 100 100 100 100 100 100 100 100 100 100 100 100 100 100 100 100 100 100 100 100 100 100 100 100 100 100 100 100 100 100 88 100 100 100 100 100 100 100 100 100
100 100 100 100 100 100 100 100 100 100 100 100 100 100 100 100 100 100 100 100 100 100 100 100 100 100 100 100 100 100 100 100 100 100 100 100 100 100 100 100 100 100 100
100 100 100 100 100 100 100 100 100 100 100 100 100 100 100 100 100 100 100 100 100 100 100 100 100 100 100 100 100 100 100 100 100 100 100 100 100 100 100 100 100 100 100
100 100 100 100 100 100 100 100 100 100 100 100 100 100 100 100 100 100 100 100 100 100 100 100 100 100 100 100 100 100 100 100 100 100 100 100 100 100 100 100 100 100 100

GFSMA_prec_cloud_123.txt.gz
Cloud_Cover
100 100 98 20 47 34 25 53 46 21 0 0 0 6 92 38 87 99 100 100 98 100 42 100 100 4 5 63 99 100 100 99 96 71 100 100 86 100 83 100 100 100 100
100 100 100 6 100 4 24 100 45 5 2 5 7 1 74 92 6 98 100 100 100 100 100 100 100 17 13 61 99 91 98 100 95 96 78 100 100 100 100 100 100 100 100
100 80 100 30 5 5 8 100 99 39 23 0 80 5 15 14 30 14 94 99 100 100 100 100 100 20 21 100 98 7 15 100 100 60 98 100 100 100 100 100 100 100 100
100 100 100 43 21 5 0 19 97 100 72 2 5 5 100 80 28 82 62 6 44 75 100 100 100 100 75 6 62 22 5 24 84 96 97 100 100 98 100 100 100 100 100
100 100 100 54 77 65 13 0 74 99 94 100 6 62 21 42 5 53 98 85 98 94 98 99 100 75 5 38 92 41 6 34 21 89 100 100 100 100 100 100 100 100 100
100 100 100 100 100 99 5 4 0 9 26 100 90 7 66 26 23 99 70 100 73 100 74 12 100 11 5 34 34 28 5 45 99 100 100 100 100 100 100 100 100 100 100
76 100 100 96 100 100 47 4 0 0 6 87 35 100 12 8 24 53 61 49 100 100 99 12 28 13 12 5 32 11 4 100 100 100 100 100 100 100 100 100 100 100 100
14 48 92 100 100 100 100 9 5 4 5 3 51 66 98 36 63 42 87 53 82 100 100 100 19 5 6 10 5 5 30 98 100 100 100 100 100 100 100 100 100 100 100
14 5 82 100 100 100 100 30 11 24 5 43 69 5 94 26 19 25 92 98 87 100 100 100 44 13 38 5 30 20 100 100 100 100 100 100 100 100 100 100 100 100 100
54 6 9 100 100 100 100 98 8 15 63 100 100 99 99 15 0 20 44 97 100 38 89 97 100 52 16 5 67 89 100 100 100 100 100 100 100 100 100 100 100 100 100
96 43 84 12 98 100 100 100 76 100 100 100 100 100 77 100 22 5 100 100 98 12 65 39 100 100 100 15 46 69 100 100 100 100 100 100 100 100 100 100 100 100 100
16 84 99 92 10 70 100 100 100 100 100 100 100 100 100 100 100 5 68 100 100 9 88 98 100 100 98 39 46 63 100 100 100 100 100 100 100 100 100 100 100 100 100
6 45 100 99 14 5 5 66 100 100 100 100 100 100 100 100 100 13 5 100 100 43 50 57 100 97 57 22 36 100 97 100 100 100 100 100 100 100 100 100 100 100 100
67 34 58 100 100 5 7 2 89 100 100 100 100 100 100 100 100 98 5 73 100 100 29 100 99 99 100 51 24 83 100 100 100 100 100 100 100 100 100 100 100 100 100
75 46 88 100 100 45 0 2 74 82 100 100 100 100 100 100 100 100 51 8 100 51 100 100 100 100 95 28 38 29 88 100 100 100 100 100 95 100 100 100 100 100 100
100 100 98 100 100 100 5 0 47 100 100 100 100 100 100 100 100 100 100 41 100 13 62 100 100 100 100 100 38 38 76 77 100 100 100 100 100 100 100 100 100 100 100
100 63 100 97 25 98 95 2 4 100 100 100 100 100 100 100 100 100 100 26 100 56 42 100 100 100 100 100 85 54 65 75 90 100 87 100 100 100 100 100 100 100 100
100 100 100 100 76 61 23 3 3 100 100 100 100 100 100 100 100 100 100 34 100 74 96 100 100 100 100 100 98 84 55 54 72 89 100 100 90 100 100 100 100 100 100
100 100 100 100 100 100 100 100 97 100 100 100 100 100 91 100 100 100 100 87 100 100 100 100 100 100 100 100 100 75 68 69 60 44 77 98 98 100 100 100 100 100 100
100 100 100 100 100 100 100 100 100 100 99 99 92 100 100 100 100 100 100 89 100 100 100 100 100 100 100 100 100 100 100 100 96 97 42 52 82 98 100 100 100 100 100
100 100 100 100 100 100 100 100 100 100 100 100 100 100 100 100 100 100 100 100 100 100 100 100 100 100 100 100 99 100 100 100 100 92 81 100 96 100 100 100 100 100 100
100 100 100 100 100 100 100 100 100 100 100 100 100 100 100 100 100 100 100 100 100 100 100 93 100 100 100 100 100 100 100 100 100 100 100 95 99 100 100 100 100 100 100
100 100 100 100 100 100 100 100 100 100 100 100 100 100 100 100 100 100 100 100 100 100 100 100 100 100 100 100 100 100 100 100 100 100 100 100 100 100 100 100 100 100 100
100 100 100 100 100 100 100 100 100 100 100 100 100 100 100 100 100 100 100 100 100 100 100 100 100 100 100 100 100 100 100 100 100 100 98 100 100 100 100 100 100 100 100
100 100 100 100 100 100 100 100 100 100 100 100 100 100 100 100 100 100 100 100 100 100 100 100 100 100 100 100 100 100 100 100 100 100 100 100 100 100 100 100 100 100 100
100 100 100 100 100 100 100 100 100 100 100 100 100 100 100 100 100 100 100 100 100 100 100 100 100 100 100 100 100 100 100 100 100 100 100 100 100 100 100 100 100 100 100

GFSMA_prec_cloud_129.txt.gz
Cloud_Cover
99 100 100 100 100 100 100 100 100 100 100 99 92 68 94 79 6 7 16 0 0 3 2 100 100 100 100 100 100 100 100 94 20 5 15 18 74 43 5 91 96 100 65
100 100 100 100 100 100 100 100 100 100 100 100 69 100 60 100 72 17 13 0 0 1 4 5 37 100 100 100 100 96 100 97 18 72 49 90 79 81 28 72 100 100 100
100 100 100 100 100 100 100 100 100 100 100 100 55 100 100 46 100 100 10 6 0 0 0 5 4 5 70 85 100 96 100 71 99 100 93 88 100 27 97 100 21 100 100
100 100 100 100 100 100 100 100 100 100 100 100 93 95 100 100 100 100 78 4 0 0 0 0 3 5 5 46 100 98 12 57 99 94 55 62 100 66 34 90 44 86 99
30 100 100 100 100 100 100 100 100 100 100 100 100 100 100 100 94 100 100 60 5 2 0 4 0 0 4 11 71 44 94 71 100 85 99 88 91 99 64 5 35 100 100
14 99 100 100 100 100 100 100 100 100 100 100 100 100 100 84 100 100 100 100 31 76 4 0 8 5 4 5 35 5 100 85 99 100 91 35 47 42 100 87 56 100 100
26 87 100 100 100 100 100 100 100 100 100 100 100 100 100 44 89 100 100 100 100 31 100 100 7 23 30 5 5 5 13 100 100 100 100 5 27 92 100 100 82 83 100
1 81 64 81 100 100 100 100 100 100 100 100 100 100 100 100 100 77 97 100 100 62 100 95 90 53 34 52 43 38 16 10 12 98 92 34 58 100 100 100 100 100 100
0 8 84 38 98 100 100 100 100 100 100 100 100 100 100 100 100 96 100 100 100 100 100 93 24 98 14 33 52 99 88 8 20 66 17 100 37 100 100 100 100 100 100
0 0 31 48 98 100 100 100 100 100 100 100 100 100 100 100 100 100 100 100 100 100 100 100 100 64 90 20 13 99 34 30 22 10 5 5 100 52 100 100 100 100 100
0 0 3 75 14 51 100 100 100 100 100 100 100 100 100 100 100 100 100 100 100 100 100 100 100 43 61 57 16 62 100 47 34 6 5 10 100 89 100 100 100 100 100
36 28 8 12 36 63 40 100 100 100 100 100 100 100 100 100 100 100 100 100 100 100 100 100 100 100 62 76 30 10 100 100 69 80 10 5 56 100 100 100 100 100 100
100 100 100 98 12 5 5 69 84 100 100 100 100 100 100 100 100 100 100 100 100 100 100 100 100 100 88 95 100 98 100 96 99 12 5 5 4 80 100 90 100 100 100
100 100 100 100 100 77 74 100 82 26 100 100 100 96 52 77 100 100 100 100 100 100 100 100 100 100 62 99 91 100 100 100 95 69 88 28 100 75 100 99 94 100 100
100 100 100 100 100 100 100 99 37 12 19 78 98 92 39 76 100 100 100 100 100 100 100 100 100 100 75 48 100 100 100 100 100 100 100 100 79 9 86 100 91 85 90
100 100 100 100 100 100 100 100 100 95 6 5 52 80 56 84 100 100 100 100 100 100 100 100 100 100 100 53 91 100 100 100 100 100 100 100 100 100 97 80 100 100 98
100 100 100 100 100 100 100 100 100 100 96 92 86 100 64 6 64 100 100 100 100 100 100 100 100 100 100 100 78 100 100 96 100 100 100 100 100 100 100 100 100 100 100
100 100 100 100 100 100 100 100 100 100 100 77 47 100 85 71 18 100 100 100 100 100 100 100 100 100 100 100 100 100 100 100 100 100 100 100 100 100 100 100 100 100 100
100 100 100 100 100 100 100 100 100 100 100 100 94 100 100 96 83 90 100 100 100 100 100 100 100 100 100 100 100 100 100 100 100 100 100 100 100 100 100 100 100 100 100
100 100 100 100 100 100 100 100 100 100 100 100 100 100 100 100 100 100 100 100 100 100 100 100 100 100 100 100 100 100 100 100 100 100 100 100 100 100 100 100 100 100 100
100 100 100 100 100 100 100 100 100 100 100 100 100 100 100 100 100 97 93 100 100 100 100 100 100 100 100 100 100 100 100 100 100 100 100 100 100 100 100 100 100 100 100
100 100 100 100 100 100 100 100 100 100 100 100 100 100 100 100 100 100 100 100 100 100 100 100 100 100 100 100 100 100 100 100 100 100 100 100 100 100 100 100 100 100 100
100 100 100 100 100 100 100 100 100 100 100 100 100 100 100 100 100 100 100 100 100 100 100 100 100 100 100 100 100 100 100 100 100 100 100 100 100 100 100 100 100 100 100
100 100 100 100 100 100 100 100 100 100 100 100 100 100 100 100 100 100 100 100 100 100 100 100 100 100 100 100 100 100 100 100 100 100 100 100 100 100 100 100 100 100 100
100 100 100 100 100 100 100 100 100 100 100 100 100 100 100 100 100 100 100 100 100 100 100 100 100 100 100 100 100 100 100 100 100 100 100 100 100 100 100 100 100 100 100
100 100 100 100 100 100 100 100 100 100 100 100 100 100 100 100 100 100 100 100 100 100 100 100 100 100 100 100 100 100 100 100 100 100 100 100 100 100 100 100 100 100 100

GFSMA_prec_cloud_132.txt.gz
Cloud_Cover
100 100 100 100 100 100 100 100 100 100 100 98 100 100 90 25 87 88 100 100 1 0 0 5 45 58 100 100 100 100 100 100 100 100 100 100 83 98 66 18 6 46 80
100 100 100 100 100 100 100 100 100 100 100 100 100 100 100 38 33 100 100 100 99 1 0 0 3 12 82 79 100 96 100 100 100 100 100 95 98 80 84 66 54 90 72
94 100 100 100 100 100 100 71 89 100 100 100 100 100 100 22 92 100 100 100 100 62 0 0 0 1 3 3 5 5 95 98 100 78 20 55 100 98 98 99 88 100 97
1 6 89 36 100 100 100 100 100 100 100 100 100 100 100 100 100 85 100 100 100 100 47 5 1 0 1 5 6 35 7 5 92 93 5 26 98 99 97 99 88 39 51
0 5 27 93 98 100 100 100 100 100 100 100 100 100 100 100 100 100 98 100 100 100 100 98 20 5 5 1 4 22 33 22 35 87 7 46 99 100 84 10 100 25 98
0 0 5 83 100 63 100 100 100 100 100 100 100 100 100 100 100 100 100 99 100 100 100 100 99 64 5 28 29 8 25 88 76 53 38 100 73 100 99 81 100 100 84
0 0 0 9 91 99 100 100 100 100 100 100 100 100 100 100 100 100 100 43 100 100 100 100 100 79 100 89 5 6 48 100 100 100 76 100 100 34 52 100 90 100 67
33 0 0 0 4 100 79 100 100 100 100 100 100 100 100 100 100 100 100 31 76 100 99 100 100 100 100 100 34 6 10 5 84 24 5 100 100 89 94 100 100 82 57
3 0 0 0 0 31 100 100 100 100 100 100 100 100 100 100 100 100 100 65 33 22 86 99 100 100 100 100 86 53 11 40 5 24 6 5 5 4 97 77 100 100 100
5 0 0 0 0 0 90 98 100 100 100 100 100 100 100 100 100 100 100 100 97 35 100 100 98 100 100 100 100 34 32 68 10 5 10 5 5 5 10 35 100 100 100
100 83 1 0 0 1 5 17 100 100 100 100 100 100 100 100 100 100 100 100 100 100 100 100 100 100 100 100 100 97 52 97 63 5 9 18 61 16 14 76 100 100 100
100 100 92 93 80 18 1 56 98 56 100 100 100 100 100 100 100 100 100 100 100 100 100 100 100 100 98 100 100 100 43 72 100 45 35 41 99 52 6 98 100 100 100
100 100 99 100 100 100 95 15 35 100 100 100 100 100 95 100 100 100 100 100 100 100 100 100 100 100 99 100 100 100 49 98 100 70 66 100 82 5 16 8 100 82 95
100 100 100 100 100 100 100 100 76 19 100 100 100 100 100 100 100 100 100 100 100 100 100 100 100 100 100 100 100 100 100 100 100 98 67 56 96 96 8 22 75 97 83
100 100 100 100 100 100 100 100 100 100 87 96 100 100 100 100 100 100 100 100 100 100 100 100 100 100 100 100 100 100 100 99 100 100 90 99 80 100 44 13 29 44 100
100 100 100 100 100 100 100 100 100 100 100 98 100 100 100 100 100 100 100 100 100 100 100 100 100 100 100 100 100 100 100 100 100 100 100 100 100 100 43 98 49 90 84
100 100 100 100 100 100 100 100 100 100 100 100 100 100 100 100 100 100 100 100 98 100 100 100 100 100 100 100 100 100 100 100 100 100 100 100 100 100 100 100 90 91 93
100 100 100 100 100 100 100 100 100 100 100 100 100 100 100 100 100 100 100 100 100 97 100 100 100 100 100 100 100 100 100 100 100 100 100 100 100 100 100 100 100 100 100
100 100 100 100 100 100 100 100 100 100 100 100 100 100 100 100 100 100 100 100 100 100 100 100 100 100 100 100 100 100 100 100 100 100 100 100 100 100 100 100 100 100 100
100 100 100 100 100 100 100 100 100 100 100 100 100 100 100 100 100 100 100 100 100 100 100 91 100 100 100 100 100 100 100 100 100 100 100 100 100 100 100 100 100 100 100
100 100 100 100 100 100 100 100 100 100 100 100 100 100 100 100 100 100 100 100 100 100 100 100 100 100 100 100 100 100 100 100 100 100 100 100 100 100 100 100 100 100 100
100 100 100 100 100 100 100 100 100 100 100 100 100 100 100 100 100 100 100 100 100 100 100 100 100 100 100 100 100 100 100 100 100 100 100 100 100 100 100 100 100 100 100
100 100 100 100 100 100 100 100 100 100 100 100 100 100 100 100 100 100 100 100 100 100 100 100 100 100 100 100 100 100 100 100 100 100 100 100 100 100 100 100 100 100 100
100 100 100 100 100 100 100 100 100 100 100 100 100 100 100 100 100 100 100 100 100 100 100 100 100 100 100 100 100 100 100 100 100 100 100 100 100 100 100 100 100 100 100
100 100 100 100 100 100 100 100 100 100 100 100 100 100 100 100 100 100 100 100 100 100 100 100 100 100 100 100 100 100 100 100 100 100 100 100 100 100 100 100 100 100 100
100 100 100 100 100 100 100 100 100 100 100 100 100 100 100 100 100 100 100 100 100 100 100 100 100 100 100 100 100 100 100 100 100 100 100 100 100 100 100 100 100 100 100

GFSMA_prec_cloud_135.txt.gz
Cloud_Cover
89 95 100 100 100 100 100 100 100 100 100 70 92 100 100 100 100 8 79 100 100 90 1 0 0 4 3 53 47 100 100 60 91 99 100 100 100 100 11 25 98 98 35
100 91 72 100 100 100 100 100 100 100 100 100 98 100 92 100 100 99 34 96 100 100 16 0 0 0 72 75 36 61 100 100 59 32 100 99 100 100 55 5 44 100 52
3 4 3 43 100 100 100 100 100 100 100 100 100 98 98 92 100 100 100 100 100 100 100 9 4 1 0 93 3 7 62 100 100 100 100 100 86 99 91 100 36 88 93
0 14 2 0 14 95 100 100 100 100 100 100 100 100 100 91 75 100 100 100 99 100 100 100 5 31 2 3 5 4 3 0 16 100 100 97 100 100 100 97 92 84 49
1 0 0 3 30 49 100 86 98 100 100 100 100 100 100 100 100 51 100 100 95 100 100 100 89 96 74 17 3 3 86 25 4 27 69 53 100 100 100 100 50 94 100
0 0 0 0 0 1 65 100 83 100 100 100 100 100 100 100 100 60 100 100 100 90 100 100 100 70 80 3 46 4 33 100 82 47 5 6 82 100 100 97 67 89 60
0 0 0 0 0 0 11 62 92 100 100 100 100 100 100 99 100 100 100 100 100 88 100 96 100 99 100 20 100 100 22 6 51 34 35 5 41 97 63 6 95 86 34
1 0 0 0 0 0 0 4 98 100 100 100 100 100 100 100 100 100 100 100 100 99 99 100 100 100 100 100 64 100 100 23 5 5 30 27 44 100 100 48 27 71 97
40 41 24 3 0 1 4 0 16 100 100 100 100 100 100 100 100 100 100 100 100 100 100 100 99 100 100 94 50 99 100 100 5 5 5 14 13 95 34 87 54 55 100
94 67 69 63 29 15 5 0 0 5 100 100 100 100 100 99 100 100 100 100 100 100 100 56 73 62 96 100 91 100 100 100 100 69 66 6 5 52 76 16 30 99 100
100 100 100 100 91 82 72 38 32 48 13 87 100 100 100 52 100 100 100 100 100 100 100 100 58 62 45 48 100 100 100 100 100 100 9 5 5 6 5 10 36 96 98
100 100 100 100 100 99 100 98 69 40 8 3 88 100 100 51 100 100 100 100 100 100 100 100 71 46 40 30 100 100 100 100 100 100 51 35 12 5 16 7 5 43 98
100 100 100 100 100 100 100 100 100 100 100 100 100 100 100 100 100 100 100 100 100 100 100 100 99 78 100 60 100 100 100 100 100 100 100 76 52 10 5 5 5 21 97
100 100 100 100 100 100 100 100 100 100 100 93 100 99 100 100 100 100 100 100 100 100 100 100 100 88 100 100 100 100 100 100 100 100 100 100 100 68 15 5 4 5 36
100 100 100 100 100 100 100 100 100 100 100 100 21 99 97 100 100 100 100 100 100 100 100 100 100 100 100 100 100 100 100 100 100 100 100 100 100 96 84 52 9 5 24
100 100 100 100 100 100 100 100 100 100 100 100 100 72 100 100 100 100 100 100 100 100 100 100 100 100 100 100 100 100 100 100 100 100 100 100 100 100 100 100 91 7 29
100 100 100 100 100 100 100 100 100 100 100 100 100 100 84 100 98 100 100 100 100 100 100 100 100 100 100 100 100 100 100 93 100 100 100 100 100 100 100 100 56 35 36
100 100 100 100 100 100 100 100 100 100 100 100 100 100 100 100 100 100 100 99 100 100 100 100 100 100 100 100 100 100 100 100 100 100 100 100 100 100 100 100 98 100 99
100 100 100 100 100 100 100 100 100 100 100 100 100 100 100 100 100 100 100 100 100 100 100 100 100 100 100 100 100 100 100 100 100 100 100 100 100 100 100 100 100 100 100
100 100 100 100 100 100 100 100 100 100 100 100 100 100 100 100 100 100 100 100 100 100 100 100 100 100 100 100 94 100 100 100 100 100 100 96 100 100 100 100 100 100 100
100 100 100 100 100 100 100 100 100 100 100 100 100 100 100 100 100 100 100 100 100 100 100 100 100 100 100 100 99 100 100 100 100 100 100 100 100 100 100 100 100 100 100
100 100 100 100 100 100 100 100 100 100 100 100 100 100 100 100 100 100 100 100 100 100 100 100 100 100 100 100 100 100 100 100 100 100 100 100 100 100 100 100 100 100 100
100 100 100 100 100 100 100 100 100 100 100 100 100 100 100 100 100 100 100 100 100 100 100 100 100 100 100 100 100 100 100 100 100 100 100 100 100 100 100 100 100 100 100
100 100 100 100 100 100 100 100 100 100 100 100 100 100 100 100 99 95 97 100 100 100 100 100 100 100 100 100 100 100 100 100 100 100 100 100 100 100 100 100 100 100 100
100 100 100 100 100 100 100 100 100 100 96 100 100 97 99 100 100 99 68 84 99 100 100 100 100 100 100 100 100 100 100 100 100 100 100 100 100 100 100 100 100 100 100
100 100 100 100 100 100 100 100 100 100 100 100 100 100 100 100 99 99 100 100 100 100 100 100 100 100 100 100 100 100 100 100 100 100 100 100 100 98 100 100 100 100 100

GFSMA_prec_cloud_138.txt.gz
Cloud_Cover
100 82 86 76 92 100 67 100 100 100 100 100 100 100 100 45 100 100 100 100 36 58 99 1 5 4 0 3 2 6 98 96 100 90 66 5 58 64 100 100 83 59 69
99 98 34 78 74 58 100 100 100 100 100 100 100 100 100 96 100 100 99 100 100 100 100 100 3 50 13 3 5 5 70 63 100 100 75 91 95 100 100 100 84 100 100
100 100 99 94 55 100 92 98 100 100 100 100 100 100 100 100 100 100 100 100 100 90 100 100 98 55 94 54 5 4 6 65 64 100 100 100 100 81 30 96 100 99 99
66 96 34 6 4 19 89 68 93 100 100 100 100 100 100 100 100 100 100 100 100 100 100 100 100 37 63 13 5 4 0 2 4 4 7 5 33 5 5 75 100 82 98
0 0 0 0 0 0 2 28 32 100 100 100 100 100 100 100 100 100 100 100 100 100 100 99 98 79 100 48 11 34 5 1 0 0 0 2 5 5 8 44 98 100 100
0 0 0 0 0 0 0 1 10 0 34 93 70 100 100 100 100 100 100 100 100 100 100 100 99 63 100 100 6 4 9 82 30 8 0 5 4 5 5 42 54 15 86
0 0 0 0 0 0 0 0 0 3 53 42 100 100 100 100 100 100 100 100 100 100 100 100 100 96 96 100 85 5 81 100 65 5 4 5 7 5 5 72 49 19 76
12 0 2 0 0 0 0 0 0 0 0 0 90 100 100 100 100 100 100 100 100 100 100 100 100 100 74 100 100 19 18 100 70 35 9 4 20 31 5 63 100 78 52
42 70 74 43 29 19 0 0 0 0 0 0 92 100 100 100 100 100 100 100 100 100 99 100 100 100 100 100 100 100 82 28 98 100 100 6 49 60 5 78 100 100 100
100 99 100 100 100 89 63 21 2 5 0 0 16 70 100 100 100 100 100 100 100 100 95 100 100 100 100 100 100 100 100 99 79 100 100 44 13 9 5 27 6 43 99
100 100 100 100 100 100 100 100 100 98 29 1 0 11 77 100 100 100 100 100 100 100 100 100 100 100 100 100 62 59 100 100 98 100 100 100 10 0 6 36 63 43 30
100 100 100 100 100 100 100 100 100 100 100 76 4 59 100 100 100 100 100 100 100 100 100 100 100 100 100 100 100 33 31 99 100 80 100 100 100 100 9 8 54 63 54
100 100 100 100 100 100 100 100 100 100 100 100 99 96 100 100 100 100 100 100 100 100 100 100 100 100 100 100 100 100 73 100 100 100 100 100 100 100 71 5 57 20 75
100 100 100 100 100 100 100 100 100 100 100 100 100 98 100 100 94 100 100 100 100 100 100 100 100 100 100 100 100 100 93 100 100 100 100 100 100 100 100 99 12 68 42
100 100 100 100 100 100 100 100 100 100 100 100 100 100 99 71 99 36 96 100 100 100 100 100 99 100 100 100 100 100 99 95 100 100 100 100 100 100 100 100 98 86 96
100 100 100 100 100 100 100 100 100 100 100 100 100 100 100 82 56 46 9 97 100 100 100 100 100 100 100 100 100 100 100 100 100 100 100 100 100 100 100 100 100 100 98
100 100 100 100 100 100 100 100 100 100 100 100 100 100 100 100 100 100 74 56 100 98 100 100 100 100 100 100 100 100 100 100 100 100 100 100 100 100 100 100 100 100 100
100 100 100 100 100 100 100 100 100 100 100 100 100 100 100 100 100 99 90 95 100 100 100 100 100 100 100 100 100 100 100 100 100 100 100 100 100 100 100 100 100 100 100
100 100 100 100 100 100 100 100 100 100 100 100 100 100 100 100 100 100 100 84 91 99 100 100 100 100 100 100 100 100 100 100 100 100 100 100 100 100 100 100 100 100 100
100 100 100 100 100 100 100 100 100 100 100 100 100 100 100 100 100 100 100 98 98 90 100 100 100 100 100 100 100 100 100 100 100 100 100 100 100 100 100 100 100 100 100
100 100 100 100 100 100 100 100 100 100 100 100 100 100 100 100 100 100 100 100 100 99 99 100 100 100 100 100 100 100 100 100 100 100 100 100 100 100 100 100 100 100 100
100 100 100 97 100 100 100 100 100 100 100 100 100 100 100 100 100 100 100 100 100 100 100 100 100 100 100 100 100 100 100 100 100 100 100 100 100 100 100 100 100 100 100
100 100 100 98 98 100 100 100 100 100 100 100 100 100 100 100 100 100 100 100 100 100 100 100 100 100 100 100 100 100 100 100 100 100 100 100 100 100 100 100 100 100 100
100 100 100 100 100 100 100 98 100 100 100 100 100 100 100 98 96 100 100 97 93 100 100 100 100 100 100 100 100 100 100 100 100 100 100 100 100 100 100 100 100 100 100
100 100 100 100 100 100 100 100 100 100 100 100 99 100 100 100 99 99 82 80 88 92 98 100 100 100 100 100 100 100 100 100 100 100 100 100 100 100 100 100 100 100 100
100 100 100 100 100 100 100 100 100 100 100 100 100 100 100 100 100 97 27 26 84 96 83 99 100 100 100 100 100 100 100 100 100 100 100 100 100 100 100 100 100 100 100

GFSMA_prec_cloud_141.txt.gz
Cloud_Cover
11 4 0 37 78 31 100 100 100 100 100 100 100 100 100 100 100 94 100 100 100 100 100 100 100 20 5 18 5 1 10 78 86 100 100 100 86 30 17 57 19 74 62
11 5 5 0 4 11 40 54 79 100 100 100 100 100 100 100 100 100 100 100 100 99 100 100 100 100 40 67 7 4 5 12 98 56 98 98 84 68 99 38 94 100 76
0 5 5 2 0 2 15 58 32 25 69 100 100 100 100 100 100 100 100 100 100 100 100 100 100 100 35 27 99 9 4 10 5 89 100 98 100 100 98 23 75 100 100
0 0 0 1 2 26 40 100 20 7 5 56 100 100 100 100 100 100 100 100 100 100 100 100 100 100 100 10 100 97 8 1 0 5 9 2 0 0 1 10 94 12 74
0 0 0 0 0 0 0 2 44 5 2 5 96 100 100 100 100 100 100 100 100 100 100 100 100 100 100 75 5 80 94 11 48 5 4 4 0 0 0 5 5 5 6
0 0 0 0 0 0 0 0 0 5 2 2 13 100 100 100 100 100 100 100 100 100 100 100 100 100 100 87 19 7 71 46 12 74 53 5 0 0 0 0 3 5 5
0 17 0 0 0 0 0 0 0 0 0 0 0 99 6 100 100 100 100 100 100 100 100 100 100 100 100 100 100 6 81 84 43 100 18 5 5 3 0 0 2 4 5
22 37 42 43 30 22 5 0 0 0 0 0 0 86 5 71 100 100 100 100 100 100 100 100 100 100 100 100 100 34 5 78 9 100 57 28 38 8 2 0 0 2 19
59 64 98 100 100 100 92 57 21 14 2 0 0 1 5 4 73 100 100 100 100 100 100 100 100 100 100 100 100 98 8 69 88 67 52 100 99 26 5 19 2 0 97
100 100 100 100 100 100 99 43 67 95 60 6 0 0 0 4 19 30 100 100 100 100 100 98 100 100 100 100 94 100 93 100 100 100 98 41 100 84 21 10 5 3 64
100 100 100 100 100 100 100 100 100 67 76 87 20 0 0 0 0 45 93 100 100 100 100 78 100 100 100 100 100 99 100 100 100 98 98 98 58 100 32 74 55 46 5
100 100 100 100 100 95 90 100 100 100 100 100 81 41 51 18 7 67 47 100 100 100 100 100 100 100 100 100 95 100 100 100 100 100 100 97 60 100 95 100 78 54 90
100 100 100 100 100 100 100 100 100 100 100 100 100 91 46 81 98 88 100 100 100 100 100 100 100 100 100 100 100 100 100 100 100 100 100 100 95 40 100 99 100 98 100
100 100 100 100 100 100 100 100 100 100 100 100 100 100 100 99 56 82 100 100 99 100 100 100 100 100 100 100 100 100 100 100 100 100 100 100 100 100 71 99 100 100 77
100 100 100 100 100 100 100 100 100 100 100 100 100 100 100 100 100 49 22 89 100 88 100 100 100 100 100 100 100 98 100 100 100 100 100 100 100 100 100 100 100 100 100
100 100 100 100 100 100 100 100 100 100 100 100 100 100 100 100 100 100 7 0 40 71 96 14 98 100 84 100 100 100 100 100 100 100 100 100 100 100 100 100 100 100 100
100 100 100 100 100 100 100 100 100 100 100 100 100 100 100 100 100 100 68 44 27 62 100 94 100 69 100 100 100 100 100 100 100 100 100 100 100 100 100 100 100 100 100
100 100 100 100 100 100 100 100 100 100 100 100 100 100 100 100 100 100 100 100 100 100 100 72 100 100 98 100 100 100 100 100 100 100 100 100 100 100 100 100 100 100 100
100 100 100 100 100 100 100 100 100 100 100 100 100 100 100 100 100 100 100 100 100 100 100 100 91 100 100 100 100 100 100 100 100 100 100 100 100 100 100 100 100 100 100
100 100 100 100 100 100 100 100 100 100 100 100 100 100 100 100 100 100 100 100 100 100 100 100 98 100 100 100 100 100 100 100 100 100 100 100 100 100 100 100 100 100 100
100 100 100 100 100 100 100 100 100 100 100 100 100 100 100 100 100 100 100 100 100 100 100 100 100 100 100 100 100 100 100 100 100 100 100 100 100 100 100 100 100 100 100
100 100 100 100 100 100 100 98 100 100 100 100 100 100 100 100 100 100 100 100 100 100 100 100 100 100 100 100 100 100 100 100 100 100 100 100 100 100 100 100 100 100 100
100 100 100 100 100 100 100 100 100 100 100 100 100 100 100 100 100 100 100 100 100 100 100 100 100 100 100 100 100 100 100 100 100 100 100 100 100 100 100 100 100 100 100
100 100 100 100 100 100 100 100 100 100 100 100 100 100 100 100 100 100 100 100 100 100 100 100 100 100 100 100 100 100 100 100 100 100 100 100 100 100 100 100 100 100 100
100 100 100 100 100 100 100 100 100 100 100 100 100 100 100 100 100 100 100 100 100 100 100 100 100 96 94 100 91 92 100 100 100 100 100 100 100 100 100 100 100 100 100
100 100 100 100 100 100 100 100 100 100 100 100 100 100 100 100 100 100 100 100 100 100 100 71 72 86 95 98 78 98 100 100 100 100 100 100 100 100 100 100 100 100 100

GFSMA_prec_cloud_147.txt.gz
Cloud_Cover
0 0 5 0 0 0 0 0 0 75 38 7 8 66 100 100 100 100 100 100 100 100 100 100 100 100 100 100 100 100 42 14 5 5 5 4 4 4 5 5 31 24 97
15 5 5 5 4 0 0 0 0 0 86 100 71 22 100 100 100 100 100 100 100 100 100 100 100 100 100 100 100 100 100 5 5 5 3 1 3 4 5 16 5 13 11
5 5 7 5 3 5 0 4 1 0 5 85 71 11 96 100 100 100 100 100 100 100 100 100 100 100 100 100 100 100 100 97 73 5 2 0 0 5 5 5 5 5 5
100 100 41 1 1 4 0 0 2 5 0 5 22 90 78 100 100 100 100 100 100 100 100 100 100 100 100 100 100 100 100 100 97 25 5 0 0 4 5 94 100 40 8
0 6 2 11 5 3 0 0 0 0 0 0 0 19 66 100 100 100 100 99 100 100 100 100 100 100 100 100 100 100 100 100 100 34 5 4 0 1 5 5 4 3 7
0 0 0 0 1 1 0 0 0 0 7 0 0 0 6 62 100 100 100 100 99 100 100 100 100 100 100 100 100 100 100 100 100 82 39 15 4 4 5 5 5 4 0
0 0 5 5 5 5 5 5 0 0 0 0 0 0 0 3 90 100 100 100 51 100 100 100 100 100 100 100 100 100 100 82 94 94 98 77 27 6 5 5 5 2 0
1 5 5 5 5 27 81 95 100 48 0 7 98 18 6 0 0 96 100 100 100 67 100 89 100 100 100 100 100 100 100 100 90 97 89 86 5 24 7 4 2 0 0
5 5 5 48 89 100 100 100 100 100 100 26 39 100 32 18 16 1 71 100 100 100 100 61 100 100 100 100 100 100 100 100 100 100 100 62 5 22 4 5 65 72 6
5 5 77 80 100 100 100 100 100 100 100 100 80 35 100 100 100 44 0 8 98 100 100 100 100 100 100 100 100 100 100 100 100 100 100 100 86 38 4 2 5 43 34
5 43 44 82 96 100 100 100 100 100 100 100 100 95 94 100 100 100 10 0 5 87 86 100 100 100 100 100 100 100 100 100 100 100 100 100 100 63 54 20 9 100 98
16 22 90 62 97 96 100 100 100 100 100 100 100 100 100 100 100 100 99 59 71 0 11 20 100 100 100 86 49 94 100 100 100 100 100 100 100 100 100 76 46 100 94
70 74 76 64 87 79 100 100 100 100 100 100 100 100 100 100 100 100 100 100 100 63 21 0 98 100 100 95 93 100 100 100 100 100 100 100 82 100 100 100 100 100 100
100 79 100 82 79 100 100 100 100 100 100 100 100 100 100 100 100 100 100 100 100 100 100 2 7 100 100 100 100 100 100 100 100 100 100 100 100 100 100 100 100 100 100
99 100 100 97 100 100 100 100 100 100 100 100 100 100 100 100 100 100 100 100 100 100 99 7 0 5 92 100 100 100 100 100 100 100 100 100 100 100 100 100 100 100 100
100 100 100 90 100 100 87 97 97 100 100 100 100 100 100 100 100 100 100 100 95 79 99 58 1 0 45 71 97 99 100 100 100 100 100 100 100 100 100 100 100 100 100
100 100 100 100 100 100 96 97 100 100 100 100 100 100 100 100 100 100 100 100 100 100 100 96 76 87 99 70 82 100 98 100 100 100 100 100 100 100 100 100 100 100 100
100 100 100 100 100 100 100 100 100 100 100 100 100 100 100 100 100 100 100 100 100 100 100 98 100 100 100 77 98 100 100 91 100 100 100 100 100 100 100 100 100 100 100
100 100 100 100 100 100 100 100 100 100 100 100 100 100 100 100 100 100 100 100 100 100 100 100 100 100 100 83 100 100 100 100 100 100 100 100 100 100 100 100 100 100 100
100 100 100 100 100 100 100 100 100 100 100 100 99 100 100 100 100 100 100 100 100 100 100 100 100 100 100 100 100 100 100 100 100 100 100 100 100 100 100 100 100 100 100
100 100 100 100 100 100 100 100 100 100 100 100 100 100 100 100 100 100 100 100 100 100 100 100 100 100 100 100 100 100 100 100 100 100 100 100 100 100 100 100 100 100 100
100 100 100 100 100 100 100 100 100 100 100 100 100 100 100 100 100 100 100 100 100 100 100 100 100 100 100 100 100 100 100 100 100 100 100 100 100 100 100 100 100 100 100
100 100 100 100 100 100 100 100 100 100 100 100 100 100 100 96 100 100 100 100 100 100 100 100 100 100 100 100 100 98 100 100 98 99 100 100 100 100 100 100 100 100 100
100 100 100 100 100 100 100 100 100 100 100 100 100 98 64 73 93 69 66 89 76 99 100 98 100 100 100 100 74 10 100 100 41 5 100 100 100 100 100 100 100 100 100
100 100 100 100 100 100 100 100 100 100 100 100 100 100 100 100 100 100 100 100 97 72 99 90 100 100 100 100 82 60 91 10 14 51 69 100 100 100 100 100 100 100 100
100 100 100 100 100 100 100 100 100 100 100 100 100 100 100 100 100 100 100 100 100 100 100 100 98 100 100 100 100 100 100 100 85 93 65 47 6 64 100 100 100 100 100